     2.11           OBSERVATION DATA    G (GPS)             RINEX VERSION / TYPE
teqc 2007Jun25 20080612 09:40:55UTC                         PGM / RUN BY / DATE
MSXP|IAx86-PII|bcc32 5.0|MSWin95->XP|486/DX+                COMMENT
2.10 OBSERVATION DATA G (GPS)                               COMMENT
JPS2RIN 1.40 RUN BY 12-JUN-08 11:04                         COMMENT
build Feb 6 2004 (c) Javad Navigation Systems               COMMENT
Use -p (profile) switch to override ANTENNA TYPE and DELTA  COMMENT
and other fields                                            COMMENT
cnp0502a.jps                                                COMMENT
SE TPS 00000000                                             COMMENT
cnp0502a_2848                                               MARKER NAME
OBSERVER AGENCY                                             OBSERVER / AGENCY
MT300602848 TPS LEGACY 2.3 Apr,28,2004 p4                   REC # / TYPE / VERS
cnp0502a -Unknown-                                          ANT # / TYPE
   387440.5060  -738608.2232  6302210.4812                  APPROX POSITION XYZ
        0.0000        0.0000        0.0000                  ANTENNA: DELTA H/E/N
     1     1                                                WAVELENGTH FACT L1/2
     7    C1    P1    P2    L1    L2    D1    D2            # / TYPES OF OBSERV
    30.0000                                                 INTERVAL
Forced Modulo Decimation to 30 seconds                      COMMENT
teqc windowed: start @ 2008 May 2 13:16:00.000              COMMENT
  2008     5     2    13    16    0.0000000     GPS         TIME OF FIRST OBS
                                                            END OF HEADER
 08  5  2 13 16  0.0000000  0 11G 2G 6G 7G10G13G16G23G24G25G27G29
  21942580.168    21942580.1924   21942580.1874  115309037.665 6  89851214.70044
     -2891.393       -2253.032
  24198081.420    24198080.3944   24198083.3604  127161768.525 6  99087113.19042
      3529.118        2749.929
  23088452.938    23088452.9674   23088453.5894  121330624.916 6  94543369.92543
      3221.442        2510.199
  20949268.554    20949267.4014   20949269.4964  110089149.512 7  85783765.28545
      1978.842        1541.968
  21053744.777    21053744.8014   21053745.5354  110638174.353 8  86211579.96745
     -1134.334        -883.888
  21907204.281    21907203.9164   21907203.5434  115123146.281 7  89706355.05144
      1317.548        1026.646
  23031129.962    23031129.6204   23031128.4844  121029402.760 6  94308642.51442
     -3181.213       -2478.850
  21671631.367    21671631.0784   21671632.8934  113885189.828 7  88741721.38344
      2355.500        1835.456
  22192902.730    22192902.6634   22192902.9244  116624492.208 7  90876241.32744
      1711.321        1333.495
  23584349.614    23584350.1164   23584351.5804  123936600.113 5  96573990.97542
      3009.592        2345.135
  21286167.033    21286167.5524   21286168.7374  111859567.480 7  87163311.20145
      -731.333        -569.865
 08  5  2 13 16 30.0000000  0 11G 2G 6G 7G10G13G16G23G24G25G27G29
  22558680.518    22558680.8224   22558681.0704  118546665.474 6  92374041.53843
     -2896.719       -2257.168
  24777512.571    24777511.3764   24777513.7244  130206696.722 6 101459784.52842
      3530.348        2750.857
  23669653.872    23669654.6224   23669655.8814  124384861.016 6  96923294.13743
      3217.295        2507.002
  21537582.137    21537581.5844   21537583.4194  113180760.212 6  88192812.60245
      1968.474        1533.871
  21659836.000    21659836.3304   21659836.7434  113823206.854 8  88693423.45945
     -1147.160        -893.904
  22499295.997    22499295.6324   22499295.9894  118234607.886 7  92130870.61044
      1306.068        1017.710
  23648876.995    23648876.6704   23648876.6944  124275683.251 6  96838211.74742
     -3183.761       -2480.917
  22257784.241    22257783.8854   22257786.4304  116965444.205 7  91141919.59244
      2348.284        1829.784
  22782739.938    22782740.0154   22782741.3264  119724110.253 7  93291528.12344
      1702.142        1326.387
  24166753.625    24166752.9674   24166756.2034  126997149.614 5  98958834.76742
      3008.358        2344.156
  21889954.879    21889954.9854   21889956.0624  115032491.753 7  89635719.68745
      -743.002        -578.940
 08  5  2 13 17  0.0000000  0 11G 2G 6G 7G10G13G16G23G24G25G27G29
  22575237.785    22575237.2394   22575237.1104  118633671.489 7  92441838.40344
     -2903.842       -2262.731
  24757359.801    24757360.6844   24757361.8314  130100799.076 6 101377266.90742
      3529.334        2750.142
  23651303.176    23651303.3774   23651304.1144  124288423.085 6  96848147.66943
      3211.860        2502.721
  21526383.038    21526382.1014   21526384.2014  113121906.882 8  88146952.91645
      1955.339        1523.642
  21666427.543    21666427.4894   21666428.1454  113857844.113 7  88720413.52645
     -1162.030        -905.486
  22491878.718    22491878.4774   22491879.9084  118195633.635 7  92100501.07744
      1292.298        1006.992
  23667066.587    23667066.1604   23667065.8384  124371268.916 5  96912694.06142
     -3188.585       -2484.597
  22244403.385    22244403.2554   22244405.7074  116895128.767 7  91087128.38944
      2339.178        1822.733
  22773055.865    22773055.7854   22773057.3114  119673220.042 7  93251873.42944
      1690.793        1317.492
  24149587.245    24149587.2504   24149590.0534  126906945.490 5  98888545.80342
      3005.222        2341.770
  21894234.900    21894235.0554   21894236.2534  115054983.957 7  89653246.05345
      -756.538        -589.521
 08  5  2 13 17 30.0000000  0 11G 2G 6G 7G10G13G16G23G24G25G27G29
  22591836.438    22591836.4034   22591835.8664  118720898.723 6  92509807.68544
     -2911.600       -2268.774
  24737215.002    24737214.6154   24737217.9934  129994935.606 6 101294775.91042
      3527.779        2748.889
  23632986.646    23632986.4314   23632987.9844  124192170.994 6  96773146.07243
      3204.832        2497.271
  21515258.335    21515257.3544   21515259.6864  113063445.918 8  88101398.95545
      1941.885        1513.161
  21673104.390    21673104.9464   21673105.5074  113892933.074 8  88747755.56845
     -1177.465        -917.497
  22484542.245    22484541.7764   22484542.7044  118157077.877 7  92070457.64344
      1277.920         995.784
  23685283.181    23685282.8704   23685282.2874  124467001.290 5  96987290.68942
     -3193.410       -2488.312
  22231077.760    22231077.4384   22231079.9714  116825100.995 7  91032561.31544
      2329.131        1814.902
  22763438.079    22763438.1804   22763439.1814  119622677.078 7  93212489.30144
      1678.739        1308.107
  24132443.479    24132441.5374   24132445.0894  126816846.759 5  98818339.03842
      3001.459        2338.792
  21898594.074    21898594.3664   21898595.5764  115077892.425 7  89671096.80145
      -770.798        -600.617
 08  5  2 13 18  0.0000000  0 11G 2G 6G 7G10G13G16G23G24G25G27G29
  22608485.835    22608485.3324   22608485.0144  118808389.992 7  92577982.66544
     -2921.531       -2276.506
  24717085.777    24717086.0904   24717088.9964  129889155.011 6 101212349.51642
      3523.732        2745.781
  23614715.498    23614715.0644   23614715.6804  124096153.851 6  96698327.51943
      3195.863        2490.279
  21504216.591    21504215.9474   21504218.3324  113005424.628 8  88056187.61745
      1925.799        1500.615
  21679876.384    21679876.4334   21679877.4374  113928518.299 7  88775484.30645
     -1195.232        -931.352
  22477293.730    22477293.3624   22477294.2574  118118987.910 7  92040777.16044
      1261.104         982.663
  23703537.254    23703536.8174   23703535.3864  124562924.092 5  97062035.68041
     -3201.854       -2494.921
  22217815.787    22217815.5434   22217817.8474  116755409.000 7  90978255.87745
      2316.706        1805.219
  22753895.356    22753895.2744   22753896.3384  119572529.232 7  93173413.08444
      1664.114        1296.715
  24115325.961    24115326.6094   24115328.9814  126726901.498 5  98748251.79442
      2994.909        2333.734
  21903041.305    21903041.5904   21903042.7714  115101262.603 8  89689307.31245
      -787.587        -613.713
 08  5  2 13 18 30.0000000  0 11G 2G 6G 7G10G13G16G23G24G25G27G29
  22625190.136    22625190.3094   22625189.6984  118896174.079 7  92646385.83044
     -2931.481       -2284.282
  24696978.455    24696978.7754   24696980.0244  129783490.728 6 101130013.73342
      3519.877        2742.729
  23596495.545    23596495.1684   23596495.5554  124000404.715 6  96623717.78143
      3186.904        2483.276
  21493265.568    21493264.9134   21493267.2094  112947875.953 8  88011344.51145
      1910.002        1488.302
  21686748.011    21686748.0844   21686748.6164  113964629.375 8  88803622.81045
     -1212.813        -945.073
  22470140.624    22470140.0114   22470141.0684  118081396.202 7  92011484.94144
      1244.456         969.694
  23721831.789    23721831.2264   23721831.0044  124659065.127 5  97136950.76841
     -3208.410       -2500.117
  22204623.851    22204623.8474   22204626.0294  116686085.258 7  90924237.37044
      2304.250        1795.491
  22744433.539    22744433.7264   22744434.8884  119522808.718 7  93134669.82444
      1649.834        1285.576
  24098245.852    24098246.2274   24098248.8314  126637143.218 5  98678310.26242
      2988.483        2328.651
  21907581.996    21907582.2934   21907583.6184  115125124.246 7  89707900.79645
      -803.946        -626.469
 08  5  2 13 19  0.0000000  0 11G 2G 6G 7G10G13G16G23G24G25G27G29
  22641956.615    22641956.1924   22641955.9644  118984279.380 7  92715039.28644
     -2943.142       -2293.366
  24676899.588    24676899.7674   24676901.9854  129677976.363 6 101047794.78642
      3513.322        2737.675
  23578331.056    23578332.0714   23578333.7954  123904958.255 6  96549343.89143
      3175.667        2474.555
  21482410.550    21482409.9714   21482412.4454  112890832.941 7  87966895.43945
      1891.979        1474.279
  21693725.305    21693725.6774   21693726.1454  114001295.672 8  88832193.94945
     -1232.424        -960.309
  22463088.055    22463087.5664   22463088.6484  118044335.161 7  91982606.22144
      1225.536         954.975
  23740173.899    23740173.3054   23740172.6364  124755452.688 5  97212057.90641
     -3217.594       -2507.179
  22191508.050    22191507.9494   22191510.6714  116617162.857 7  90870531.58745
      2289.707        1784.203
  22735059.423    22735059.8694   22735061.0024  119473548.215 7  93096285.03344
      1633.358        1272.745
  24081207.647    24081207.8924   24081211.3584  126547605.144 5  98608540.31042
      2980.162        2322.188
  21912221.742    21912222.4104   21912223.5204  115149507.511 7  89726900.73945
      -822.482        -640.885
 08  5  2 13 19 30.0000000  0 11G 2G 6G 7G10G13G16G23G24G25G27G29
  22658791.555    22658791.2904   22658791.1664  119072750.178 6  92783977.56444
     -2956.117       -2303.477
  24656859.320    24656858.3704   24656860.9054  129572661.030 6 100965730.95842
      3506.189        2732.086
  23560236.109    23560235.6134   23560237.4224  123809863.610 6  96475244.11743
      3162.934        2464.652
  21471661.183    21471660.5084   21471662.6594  112834343.639 8  87922877.84245
      1872.838        1459.353
  21700816.997    21700817.1504   21700817.9944  114038562.497 7  88861233.03045
     -1253.170        -976.485
  22456145.347    22456144.9914   22456145.9514  118007852.066 7  91954177.85444
      1205.496         939.354
  23758571.553    23758571.2094   23758570.5294  124852131.220 6  97287391.81341
     -3228.605       -2515.794
  22178478.490    22178478.6084   22178480.4174  116548690.391 7  90817176.39245
      2273.951        1771.906
  22725782.465    22725782.4324   22725783.7384  119424795.823 7  93058296.16944
      1615.613        1258.907
  24064221.600    24064221.4304   24064222.8004  126458336.184 5  98538980.07642
      2970.233        2314.479
  21916970.060    21916970.3524   21916971.5064  115174458.140 7  89746342.73045
      -842.069        -656.163
 08  5  2 13 20  0.0000000  0 11G 2G 6G 7G10G13G16G23G24G25G27G29
  22675700.747    22675700.6144   22675699.9724  119161606.242 7  92853216.00944
     -2968.926       -2313.413
  24636860.511    24636860.4054   24636862.6754  129467569.190 6 100883841.25142
      3498.463        2726.135
  23542211.117    23542211.3924   23542212.4024  123715145.641 6  96401437.89943
      3149.833        2454.421
  21461021.329    21461020.7764   21461022.9824  112778431.690 8  87879310.15645
      1853.299        1444.156
  21708026.700    21708026.9304   21708027.6084  114076450.315 8  88890755.97845
     -1273.992        -992.696
  22449317.401    22449317.0564   22449317.9724  117971970.510 7  91926218.20944
      1185.314         923.648
  23777028.477    23777028.5884   23777026.0194  124949119.730 6  97362967.26441
     -3238.988       -2523.875
  22165538.787    22165538.9604   22165541.0824  116480692.299 7  90764190.84545
      2257.928        1759.425
  22716606.543    22716606.0494   22716607.7284  119376575.098 7  93020721.58444
      1597.720        1244.997
  24047289.304    24047288.9814   24047292.5664  126369360.417 5  98469648.31042
      2960.304        2306.748
  21921829.868    21921830.2424   21921831.3754  115199997.650 7  89766243.70845
      -861.938        -671.612
 08  5  2 13 20 30.0000000  0 11G 2G 6G 7G10G13G16G23G24G25G27G29
  22692685.419    22692685.4504   22692685.0504  119250862.954 7  92922766.70043
     -2982.508       -2324.018
  24616908.743    24616907.6104   24616910.7084  129362721.906 6 100802142.12042
      3490.258        2719.716
  23524263.322    23524262.9654   23524264.5484  123620825.472 6  96327941.64043
      3136.902        2444.370
  21450495.579    21450494.8994   21450497.0254  112723117.434 8  87836208.14045
      1833.192        1428.468
  21715357.893    21715358.3494   21715358.8354  114114976.076 7  88920776.04345
     -1295.454       -1009.435
  22442607.413    22442607.2694   22442608.2164  117936710.097 7  91898742.56844
      1164.263         907.247
  23795545.948    23795546.3914   23795545.2334  125046433.933 6  97438796.47141
     -3249.862       -2532.348
  22152693.160    22152693.2004   22152695.5244  116413188.432 7  90711590.45644
      2241.221        1746.405
  22707534.951    22707535.4494   22707536.6824  119328906.046 7  92983576.88044
      1578.967        1230.365
  24030416.938    24030417.3354   24030420.1264  126280698.830 5  98400561.32642
      2949.486        2298.273
  21926805.058    21926805.6684   21926806.6854  115226143.254 7  89786616.94845
      -882.320        -687.517
 08  5  2 13 21  0.0000000  0 11G 2G 6G 7G10G13G16G23G24G25G27G29
  22709750.726    22709751.3114   22709750.7014  119340544.820 6  92992648.67543
     -2996.514       -2334.943
  24597008.931    24597008.7664   24597012.2324  129258148.266 6 100720656.20942
      3481.206        2712.626
  23506395.844    23506396.1954   23506397.9324  123526932.708 6  96254778.46943
      3122.401        2433.052
  21440088.530    21440087.8454   21440090.2474  112668428.864 8  87793593.67145
      1812.406        1412.271
  21722815.416    21722815.7744   21722815.9874  114154164.694 7  88951312.63445
     -1317.449       -1026.580
  22436020.896    22436020.7134   22436021.8934  117902098.455 7  91871772.45944
      1142.681         890.411
  23814130.938    23814129.9734   23814129.7784  125144097.680 5  97514898.11341
     -3261.137       -2541.165
  22139947.266    22139946.9624   22139949.4904  116346207.085 7  90659397.15445
      2223.917        1732.918
  22698574.235    22698574.0554   22698575.7534  119281816.553 7  92946883.78544
      1559.851        1215.459
  24013611.587    24013611.3984   24013613.2814  126192380.378 6  98331741.73142
      2938.078        2289.413
  21931900.998    21931901.1644   21931902.3214  115252920.630 7  89807482.43645
      -903.273        -703.846
 08  5  2 13 21 30.0000000  0 11G 2G 6G 7G10G13G16G23G24G25G27G29
  22726900.821    22726900.1694   22726899.6584  119430664.219 6  93062871.56043
     -3011.541       -2346.654
  24577164.406    24577164.7054   24577166.7744  129153865.884 6 100639397.23942
      3471.150        2704.751
  23488613.808    23488613.6474   23488615.1734  123433485.176 6  96181962.23343
      3107.401        2421.354
  21429803.965    21429803.1884   21429805.3824  112614382.874 7  87751479.92945
      1790.658        1395.313
  21730401.520    21730401.5444   21730401.7764  114194029.691 7  88982376.27745
     -1340.344       -1044.429
  22429561.403    22429560.8674   22429561.6734  117868151.941 7  91845320.63944
      1120.247         872.921
  23832783.738    23832784.1424   23832782.5114  125242123.249 5  97591281.61341
     -3273.863       -2551.034
  22127304.125    22127303.6474   22127306.1954  116279765.566 7  90607624.56244
      2205.418        1718.493
  22689727.157    22689726.9304   22689728.2614  119235323.096 7  92910655.13644
      1539.757        1199.807
  23996872.560    23996872.7824   23996875.7004  126104422.366 6  98263203.02142
      2925.599        2279.683
  21937119.514    21937119.7424   21937120.6594  115280343.700 7  89828851.02245
      -925.095        -720.846
 08  5  2 13 22  0.0000000  0 11G 2G 6G 7G10G13G16G23G24G25G27G29
  22744136.712    22744136.0594   22744135.1424  119521238.478 6  93133448.86143
     -3027.265       -2358.867
  24557380.069    24557379.9734   24557381.9934  129049897.194 6 100558382.71443
      3459.673        2695.843
  23470919.653    23470920.6374   23470921.0464  123340504.993 6  96109510.14543
      3090.715        2408.311
  21419645.867    21419645.0124   21419646.9264  112561000.945 8  87709883.64645
      1767.655        1377.379
  21738119.619    21738119.9914   21738120.4134  114234589.707 8  89013981.50045
     -1364.251       -1063.069
  22423232.370    22423231.6724   22423232.6194  117834891.494 7  91819403.40744
      1096.594         854.479
  23851510.217    23851511.3824   23851507.4784  125340528.189 5  97667960.75941
     -3287.188       -2561.464
  22114767.339    22114766.9944   22114769.2054  116213885.667 7  90556289.60445
      2185.956        1703.330
  22680997.180    22680996.6834   22680998.4914  119189447.224 7  92874907.72844
      1518.070        1182.918
  23980209.299    23980208.2664   23980210.6484  126016846.960 6  98194962.46442
      2912.127        2269.251
  21942464.340    21942464.6594   21942465.7554  115308431.627 7  89850737.72445
      -947.978        -738.701
 08  5  2 13 22 30.0000000  0 11G 2G 6G 7G10G13G16G23G24G25G27G29
  22761460.177    22761460.5724   22761460.3974  119612280.109 6  93204390.37343
     -3042.795       -2371.030
  24537657.976    24537657.9814   24537660.4324  128946259.457 6 100477626.08143
      3448.603        2687.244
  23453318.672    23453319.0314   23453319.8644  123248010.077 6  96037436.18943
      3074.878        2396.033
  21409616.847    21409616.2524   21409618.4384  112508299.988 8  87668817.97845
      1744.930        1359.699
  21745972.784    21745972.8004   21745973.1584  114275857.361 8  89046138.11945
     -1387.789       -1081.392
  22417036.797    22417036.1644   22417036.9034  117802333.144 7  91794033.25644
      1073.220         836.275
  23870309.572    23870310.1744   23870308.4534  125439324.336 5  97744944.76741
     -3300.077       -2571.453
  22102340.412    22102340.4644   22102342.9274  116148583.869 7  90505405.13745
      2166.808        1688.419
  22672387.483    22672387.8604   22672389.0054  119144205.019 7  92839654.08644
      1497.254        1166.701
  23963619.370    23963619.1754   23963622.1594  125929671.153 5  98127033.24442
      2899.027        2258.989
  21947938.201    21947938.7084   21947939.9514  115337198.338 7  89873153.36645
      -970.444        -756.196
 08  5  2 13 23  0.0000000  0 11G 2G 6G 7G10G13G16G23G24G25G27G29
  22778873.196    22778873.3284   22778872.6834  119703784.689 6  93275692.62543
     -3058.442       -2383.204
  24517999.807    24517998.7224   24518002.2164  128842953.528 6 100397128.00942
      3437.233        2678.374
  23435810.307    23435810.9874   23435811.7534  123156001.810 6  95965741.45643
      3058.084        2382.946
  21399717.427    21399717.1204   21399719.0374  112456279.303 8  87628282.39345
      1722.216        1342.003
  21753959.743    21753959.5834   21753960.4054  114317829.307 7  89078843.54145
     -1411.435       -1099.816
  22410974.257    22410973.7964   22410975.0824  117770475.959 7  91769209.46944
      1049.804         818.047
  23889184.207    23889184.2674   23889182.5784  125538507.406 5  97822230.20041
     -3313.112       -2581.573
  22090024.002    22090023.9844   22090026.2454  116083860.284 7  90454971.19745
      2147.219        1673.174
  22663898.904    22663898.9624   22663900.2874  119099596.088 7  92804893.90344
      1475.843        1150.018
  23947106.518    23947105.7284   23947108.9874  125842895.607 5  98059415.93642
      2884.969        2248.028
  21953540.868    21953541.2764   21953542.4044  115366640.341 7  89896095.15245
      -993.258        -773.954
 08  5  2 13 23 30.0000000  0 11G 2G 6G 7G10G13G16G23G24G25G27G29
  22796376.985    22796377.5004   22796377.1244  119795768.815 6  93347368.55243
     -3074.531       -2395.748
  24498408.581    24498407.8734   24498410.2274  128740000.851 6 100316905.18542
      3425.177        2668.942
  23418398.948    23418398.6634   23418399.6024  123064501.574 6  95894442.59443
      3041.065        2369.683
  21389951.968    21389951.1624   21389953.3044  112404959.603 8  87588293.05645
      1698.438        1323.438
  21762084.001    21762084.2574   21762084.6714  114360523.182 7  89112111.50945
     -1435.603       -1118.653
  22405049.013    22405048.6124   22405050.0344  117739339.856 7  91744947.57244
      1025.229         798.855
  23908134.992    23908135.3464   23908136.4154  125638093.509 5  97899829.79641
     -3326.404       -2592.009
  22077821.777    22077821.4444   22077823.9674  116019735.747 7  90405004.03245
      2126.896        1657.316
  22655534.475    22655534.4234   22655536.1144  119055640.724 7  92770642.99544
      1453.734        1132.764
  23930673.614    23930673.5474   23930676.5684  125756541.294 6  97992126.87142
      2871.048        2237.206
  21959275.424    21959276.0444   21959276.9444  115396775.782 7  89919577.34445
     -1016.515        -792.094
 08  5  2 13 24  0.0000000  0 11G 2G 6G 7G10G13G16G23G24G25G27G29
  22813974.628    22813974.5524   22813974.7344  119888243.726 6  93419426.90743
     -3090.923       -2408.528
  24478887.990    24478887.1824   24478889.5074  128637418.164 6 100236970.69342
      3413.217        2659.658
  23401086.218    23401086.4264   23401087.0884  122973526.042 6  95823552.58043
      3023.457        2355.930
  21380322.481    21380321.6454   21380323.7164  112354356.488 8  87548862.07445
      1674.512        1304.804
  21770348.195    21770348.3704   21770349.0234  114403951.281 7  89145951.58845
     -1460.072       -1137.711
  22399264.468    22399264.0074   22399265.0754  117708940.346 7  91721259.63444
      1000.686         779.766
  23927164.829    23927165.0764   23927165.0374  125738094.030 5  97977752.21541
     -3340.723       -2603.155
  22065736.146    22065735.9674   22065738.4354  115956226.183 7  90355516.08545
      2106.371        1641.335
  22647297.415    22647297.2504   22647298.9004  119012354.655 7  92736913.60644
      1431.353        1115.354
  23914324.520    23914324.7404   23914326.6844  125670624.871 5  97925178.99742
      2856.143        2225.575
  21965145.042    21965144.9384   21965146.0954  115427618.172 7  89943610.37245
     -1040.128        -810.479
 08  5  2 13 24 30.0000000  0 11G 2G 6G 7G10G13G16G23G24G25G27G29
  22831664.982    22831664.4564   22831664.0864  119981202.945 6  93491862.68443
     -3106.584       -2420.683
  24459436.948    24459437.0994   24459438.6834  128535203.697 6 100157323.08442
      3400.976        2650.134
  23383874.002    23383874.5454   23383874.8584  122883073.914 6  95753070.40743
      3006.469        2342.718
  21370829.023    21370828.0734   21370830.1494  112304467.314 8  87509987.41645
      1651.172        1286.626
  21778750.913    21778750.9584   21778751.5514  114448107.490 7  89180359.02045
     -1484.011       -1156.380
  22393619.201    22393618.5434   22393619.4644  117679274.205 7  91698143.15544
       976.742         761.077
  23946271.259    23946271.0544   23946270.7244  125838502.372 5  98055992.48141
     -3353.705       -2613.201
  22053766.996    22053767.1604   22053769.7174  115893329.257 7  90306505.47545
      2086.419        1625.768
  22639187.207    22639187.0064   22639188.5414  118969734.725 7  92703703.28344
      1409.552        1098.354
  23898056.925    23898057.3264   23898060.5454  125585144.555 5  97858570.96742
      2842.479        2214.927
  21971147.333    21971147.6364   21971148.5074  115459161.797 7  89968189.77145
     -1063.083        -828.375
 08  5  2 13 25  0.0000000  0 12G 2G 6G 7G10G13G16G21G23G24G25G27G29
  22849444.327    22849443.9234   22849443.5324  120074636.154 6  93564667.78743
     -3122.419       -2432.980
  24440054.243    24440054.8824   24440057.4034  128433352.221 6 100077958.34542
      3388.860        2640.674
  23366760.568    23366760.3294   23366760.9314  122793140.295 6  95682992.27543
      2989.075        2329.185
  21361470.004    21361469.1994   21361471.4024  112255286.381 8  87471664.62545
      1627.411        1268.158
  21787290.517    21787290.5834   21787290.8994  114492982.824 7  89215326.79645
     -1507.907       -1174.950
  22388112.067    22388111.7784   22388112.1534  117650334.480 7  91675592.72444
       952.404         742.172
  25094414.577    25094413.3374   25094414.5064  131872027.317 6 102757448.60541
      3788.569        2952.139
  23965454.487    23965454.3744   23965451.7614  125939307.754 5  98134542.07941
     -3367.142       -2623.723
  22041913.966    22041913.7774   22041916.0654  115831039.026 7  90257967.61845
      2066.054        1609.945
  22631202.556    22631202.3754   22631203.5704  118927774.647 7  92671007.13144
      1387.524        1081.207
  23881873.303    23881873.2804   23881875.8344  125500094.558 5  97792298.23842
      2827.798        2203.513
  21977281.768    21977281.9004   21977283.0444  115491397.910 7  89993308.79145
     -1086.269        -846.416
 08  5  2 13 25 30.0000000  0 12G 2G 6G 7G10G13G16G21G23G24G25G27G29
  22867315.936    22867316.0934   22867315.5134  120168552.937 6  93637849.71643
     -3138.906       -2445.933
  24420745.420    24420744.3784   24420747.0054  128331878.731 6  99998888.17142
      3375.719        2630.431
  23349747.487    23349748.3084   23349747.7784  122703740.345 6  95613329.99743
      2970.850        2314.939
  21352248.663    21352247.7134   21352249.6674  112206826.389 8  87433903.56745
      1602.926        1249.033
  21795968.662    21795968.9694   21795969.1954  114538587.833 7  89250863.17545
     -1532.642       -1194.285
  22382745.787    22382745.4984   22382746.3994  117622134.422 7  91653618.65844
       927.252         722.535
  25072809.139    25072809.4254   25072809.0984  131758490.056 5 102668978.14141
      3780.372        2945.696
  23984713.903    23984714.2754   23984713.4974  126040519.805 5  98213408.61041
     -3380.649       -2634.310
  22030178.795    22030178.4294   22030180.9484  115769369.628 7  90209913.56045
      2045.035        1593.515
  22623346.062    22623345.7104   22623347.3674  118886488.046 7  92638835.78144
      1364.705        1063.409
  23865774.668    23865773.0244   23865775.5474  125415489.337 6  97726372.13042
      2812.388        2191.493
  21983549.883    21983550.1934   21983551.2464  115524337.589 7  90018976.05345
     -1110.063        -865.001
 08  5  2 13 26  0.0000000  0 12G 2G 6G 7G10G13G16G21G23G24G25G27G29
  22885278.483    22885277.2344   22885277.5394  120262942.658 6  93711400.12443
     -3155.175       -2458.544
  24401506.436    24401506.1864   24401508.7174  128230777.325 6  99920107.88642
      3362.717        2620.329
  23332835.960    23332836.6064   23332837.2434  122614868.082 6  95544078.89743
      2952.639        2300.786
  21343162.909    21343162.0644   21343163.8844  112159081.215 7  87396699.52145
      1578.580        1230.075
  21804783.670    21804784.0554   21804784.5354  114584912.316 7  89286960.18045
     -1557.014       -1213.238
  22377518.987    22377518.4124   22377519.2874  117594666.835 7  91632215.36244
       902.363         703.158
  25051247.224    25051246.4384   25051248.8864  131645180.443 5 102580684.98441
      3772.065        2939.309
  24004049.927    24004048.3404   24004046.5564  126142127.698 5  98292583.58041
     -3394.722       -2645.222
  22018560.094    22018559.8254   22018562.3984  115708314.791 7  90162338.38045
      2023.902        1577.087
  22615615.861    22615616.0404   22615617.9944  118845867.916 7  92607183.77644
      1341.914        1045.669
  23849757.484    23849756.8214   23849759.9974  125331322.979 5  97660787.95942
      2797.271        2179.678
  21989950.296    21989950.4794   21989951.6264  115557971.873 7  90045184.63345
     -1133.621        -883.326
 08  5  2 13 26 30.0000000  0 12G 2G 6G 7G10G13G16G21G23G24G25G27G29
  22903329.495    22903328.6784   22903328.2374  120357804.303 6  93785318.29643
     -3169.944       -2470.099
  24382338.965    24382339.2504   24382341.0114  128130052.096 5  99841620.73542
      3351.024        2611.215
  23316024.937    23316025.6204   23316027.0614  122526528.483 6  95475242.92743
      2935.589        2287.447
  21334213.827    21334213.0854   21334215.1734  112112053.985 8  87360054.93445
      1555.408        1212.006
  21813736.154    21813736.0324   21813736.6904  114631955.942 7  89323617.55145
     -1580.264       -1231.391
  22372431.689    22372431.2674   22372432.4514  117567933.983 7  91611384.58044
       878.570         684.572
  25029728.923    25029729.4924   25029729.6304  131532102.596 5 102492572.43941
      3765.439        2934.059
  24023459.579    24023458.7344   24023457.4664  126244130.209 5  98372066.03141
     -3406.398       -2654.298
  22007059.437    22007059.2484   22007061.4814  115647877.332 7  90115244.22145
      2004.067        1561.597
  22608013.633    22608013.3514   22608015.1924  118805917.118 7  92576053.32544
      1320.283        1028.790
  23833825.589    23833824.4994   23833828.1344  125247599.179 6  97595548.66142
      2783.036        2168.618
  21996483.020    21996483.1234   21996484.1724  115592300.745 7  90071934.34945
     -1156.075        -900.850
 08  5  2 13 27  0.0000000  0 12G 2G 6G 7G10G13G16G21G23G24G25G27G29
  22921470.578    22921470.0044   22921470.0534  120453133.916 6  93859601.12743
     -3185.940       -2482.591
  24363243.466    24363243.4144   24363244.9864  128029704.341 5  99763427.69842
      3338.471        2601.414
  23299316.826    23299317.2704   23299317.5774  122438722.125 6  95406822.43143
      2917.636        2273.444
  21325401.515    21325400.9264   21325402.8104  112065744.898 8  87323969.92545
      1531.412        1193.310
  21822824.146    21822824.4644   21822825.0694  114679715.636 7  89360832.89545
     -1604.153       -1250.007
  22367484.543    22367483.8864   22367484.4194  117541935.403 7  91591125.94144
       854.129         665.549
  25008255.036    25008255.7554   25008256.1064  131419256.796 5 102404640.65041
      3757.438        2927.881
  24042944.605    24042945.2994   24042943.3884  126346523.489 5  98451852.95741
     -3419.922       -2664.865
  21995676.333    21995675.8504   21995678.4924  115588057.831 7  90068631.63645
      1983.430        1545.515
  22600538.315    22600538.6214   22600539.8694  118766635.523 7  92545444.31344
      1298.004        1011.417
  23817977.813    23817977.4314   23817979.7054  125164318.867 6  97530654.95142
      2768.337        2157.141
  22003147.369    22003147.5034   22003148.5514  115627321.163 8  90099222.82145
     -1179.084        -918.756
 08  5  2 13 27 30.0000000  0 12G 2G 6G 7G10G13G16G21G23G24G25G27G29
  22939700.564    22939699.9964   22939699.0594  120548932.518 6  93934249.35143
     -3201.485       -2494.664
  24344220.889    24344220.6034   24344222.7204  127929739.795 5  99685533.29542
      3325.445        2591.284
  23282710.116    23282710.3844   23282710.1724  122351455.507 6  95338822.49843
      2899.325        2259.217
  21316726.929    21316726.0444   21316728.0664  112020158.649 8  87288448.18445
      1506.956        1174.252
  21832049.094    21832049.4624   21832049.7814  114728192.761 7  89398607.28545
     -1628.404       -1268.874
  22362677.918    22362677.1434   22362678.1644  117516675.896 7  91571443.21244
       829.071         646.031
  24986826.985    24986826.5404   24986827.1734  131306648.938 5 102316894.28141
      3748.986        2921.289
  24062503.451    24062504.8514   24062505.1794  126449308.049 5  98531944.81041
     -3432.859       -2675.015
  21984411.457    21984411.0484   21984413.3894  115528861.645 7  90022504.73245
      1962.405        1529.143
  22593191.862    22593191.6974   22593192.8814  118728027.767 7  92515360.41644
      1275.117         993.596
  23802214.726    23802214.8504   23802217.2184  125081487.812 6  97466111.29142
      2753.114        2145.310
  22009943.559    22009943.8224   22009945.0344  115663036.404 8  90127052.90845
     -1202.629        -937.102
 08  5  2 13 28  0.0000000  0 12G 2G 6G 7G10G13G16G21G23G24G25G27G29
  22958018.838    22958018.7124   22958017.8334  120645198.524 6  94009261.84843
     -3217.594       -2507.191
  24325272.209    24325270.5314   24325273.3354  127830162.275 5  99607940.39842
      3312.235        2581.002
  23266207.139    23266207.3864   23266207.9304  122264732.323 6  95271246.05943
      2880.897        2244.881
  21308190.068    21308189.1714   21308191.1084  111975297.402 8  87253491.37545
      1482.669        1155.314
  21841410.747    21841410.8834   21841411.2964  114777386.894 7  89436940.37545
     -1652.474       -1287.642
  22358011.739    22358011.3574   22358012.4224  117492156.756 7  91552337.40344
       804.334         626.750
  24965443.565    24965444.6284   24965444.1644  131194282.447 6 102229336.03741
      3740.858        2914.885
  24082138.602    24082137.4674   24082136.1784  126552482.237 5  98612340.24341
     -3446.323       -2685.510
  21973266.110    21973265.6944   21973267.8424  115470291.296 7  89976865.50145
      1941.225        1512.652
  22585973.394    22585973.4074   22585974.7454  118690096.088 7  92485803.30844
      1252.400         975.898
  23786539.006    23786539.1694   23786540.8534  124999108.948 6  97401919.98942
      2737.682        2133.255
  22016871.938    22016872.3104   22016873.4294  115699445.870 7  90155423.95045
     -1225.845        -955.212
 08  5  2 13 28 30.0000000  0 12G 2G 6G 7G10G13G16G21G23G24G25G27G29
  22976422.850    22976422.3954   22976422.0404  120741912.794 6  94084623.57843
     -3231.625       -2518.115
  24306393.255    24306393.0784   24306395.3264  127730957.848 5  99530638.35442
      3300.163        2571.591
  23249804.938    23249805.5234   23249806.0124  122178538.725 6  95204082.29343
      2863.836        2231.549
  21299787.986    21299787.5984   21299789.5464  111931146.022 8  87219087.69745
      1459.542        1137.314
  21850905.121    21850905.1234   21850905.3464  114827279.744 7  89475817.89644
     -1675.133       -1305.284
  22353484.075    22353483.5684   22353484.6154  117468362.655 7  91533796.56044
       780.722         608.382
  24944104.953    24944103.7084   24944105.7374  131082142.950 6 102141954.59441
      3733.858        2909.496
  24101840.895    24101843.3214   24101839.8764  126656026.901 5  98693024.36441
     -3458.018       -2694.543
  21962236.579    21962236.5374   21962238.9444  115412332.272 7  89931702.63345
      1921.453        1497.251
  22578881.195    22578880.9604   22578882.4364  118652825.219 7  92456761.11644
      1230.919         959.158
  23770945.958    23770945.4294   23770948.2554  124917168.377 6  97338070.26742
      2723.716        2122.408
  22023929.251    22023929.5354   22023930.7054  115736531.661 7  90184321.98945
     -1247.889        -972.383
 08  5  2 13 29  0.0000000  0 12G 2G 6G 7G10G13G16G21G23G24G25G27G29
  22994911.989    22994911.3984   22994911.2794  120839073.622 6  94160333.34143
     -3246.725       -2529.922
  24287587.163    24287587.7264   24287589.1654  127632129.639 5  99453629.38342
      3287.211        2561.490
  23233503.932    23233504.6724   23233505.2004  122092878.367 6  95137334.00843
      2845.648        2217.367
  21291521.996    21291521.3904   21291523.2134  111887707.194 8  87185239.25745
      1435.336        1118.452
  21860532.019    21860532.1774   21860532.7174  114877870.136 7  89515238.94344
     -1698.682       -1323.643
  22349094.372    22349093.9204   22349094.6124  117445295.072 7  91515821.81644
       755.932         589.032
  24922809.208    24922810.2394   24922808.5664  130970233.656 5 102054752.55141
      3725.848        2903.277
  24121614.171    24121615.1174   24121614.4024  126759940.289 5  98773995.81141
     -3470.495       -2704.260
  21951324.452    21951324.1414   21951326.4164  115354986.750 7  89887017.69745
      1900.452        1480.877
  22571914.637    22571914.7884   22571915.9494  118616217.224 7  92428235.47144
      1208.404         941.640
  23755437.944    23755437.0614   23755439.8004  124835669.024 6  97274564.35242
      2708.316        2110.391
  22031115.368    22031115.2644   22031116.6604  115774293.196 7  90213746.59245
     -1270.686        -990.141
 08  5  2 13 29 30.0000000  0 12G 2G 6G 7G10G13G16G21G23G24G25G27G29
  23013484.723    23013483.9704   23013484.5124  120936672.999 6  94236384.76843
     -3260.417       -2540.579
  24268851.064    24268851.6334   24268853.7724  127533674.912 5  99376911.43242
      3275.755        2552.563
  23217304.023    23217304.5084   23217305.8054  122007748.406 6  95070999.03643
      2828.652        2204.142
  21283390.934    21283389.8624   21283392.0214  111844976.645 8  87151942.75845
      1412.503        1100.646
  21870290.256    21870290.6074   21870290.9964  114929150.742 7  89555197.85344
     -1720.906       -1340.949
  22344841.784    22344841.7254   22344842.7494  117422949.454 7  91498409.63344
       732.727         570.945
  24901557.100    24901556.2624   24901557.7884  130858550.610 5 101967726.82141
      3719.029        2897.915
  24141457.344    24141459.1374   24141457.0814  126864213.987 5  98855248.03141
     -3481.766       -2713.100
  21940527.922    21940527.6584   21940529.8774  115298251.577 7  89842808.55545
      1880.958        1465.686
  22565073.847    22565073.4564   22565075.0794  118580267.689 7  92400222.89244
      1187.366         925.231
  23740011.690    23740011.3134   23740013.8504  124754607.495 6  97211399.57642
      2694.670        2099.763
  22038428.164    22038428.3804   22038429.5194  115812724.198 7  90243692.87945
     -1292.265       -1006.954
 08  5  2 13 30  0.0000000  0 12G 2G 6G 7G10G13G16G21G23G24G25G27G29
  23032139.323    23032139.7044   23032139.3704  121034708.192 6  94312775.77743
     -3276.016       -2552.718
  24250187.862    24250187.8534   24250189.8534  127435595.845 5  99300486.20442
      3261.868        2541.736
  23201206.558    23201206.6534   23201207.0304  121923151.266 6  95005079.25543
      2809.943        2189.578
  21275394.496    21275393.5214   21275395.5914  111802955.233 8  87119198.81445
      1387.832        1081.420
  21880179.545    21880179.6194   21880180.1164  114981119.500 7  89595692.98944
     -1744.830       -1359.628
  22340727.176    22340726.8574   22340727.8804  117401326.303 7  91481560.41444
       707.694         551.464
  24880347.197    24880345.8314   24880348.3784  130747096.393 5 101880879.43242
      3710.064        2890.924
  24161368.404    24161368.3414   24161366.1894  126968845.002 5  98936778.67541
     -3495.059       -2723.400
  21929847.781    21929847.6364   21929850.0924  115242127.733 7  89799075.66245
      1859.560        1449.003
  22558358.025    22558358.0534   22558359.1924  118544977.582 7  92372724.13044
      1164.304         907.264
  23724669.827    23724669.6124   23724671.7734  124673985.963 6  97148577.69943
      2678.818        2087.352
  22045868.271    22045868.5464   22045869.7624  115851822.913 8  90274159.44345
     -1315.427       -1025.016
 08  5  2 13 30 30.0000000  0 12G 2G 6G 7G10G13G16G21G23G24G25G27G29
  23050876.431    23050877.3074   23050878.0394  121133175.629 6  94389503.62943
     -3289.360       -2563.131
  24231595.336    24231596.2524   24231598.1714  127337894.100 5  99224355.01542
      3250.271        2532.644
  23185209.318    23185209.2214   23185210.1594  121839088.397 6  94939575.80043
      2793.191        2176.531
  21267532.831    21267532.1514   21267534.1934  111761643.524 8  87087007.86345
      1365.350        1063.912
  21890198.986    21890199.3204   21890200.1804  115033773.264 7  89636721.89044
     -1766.341       -1376.368
  22336750.092    22336749.4674   22336750.4904  117380425.539 7  91465274.12344
       684.855         533.653
  24859181.791    24859181.5654   24859183.1364  130635872.591 6 101794211.64242
      3703.240        2885.646
  24181347.874    24181346.0904   24181346.5474  127073829.865 5  99018585.01641
     -3505.092       -2731.310
  21919284.597    21919284.1014   21919286.4624  115186616.280 7  89755819.97945
      1840.286        1434.001
  22551768.406    22551768.1964   22551769.6254  118510346.998 7  92345739.27344
      1143.414         891.001
  23709412.151    23709412.0724   23709414.2574  124593805.541 6  97086099.53143
      2665.646        2077.124
  22053435.065    22053435.5214   22053436.4214  115891586.829 7  90305144.29145
     -1336.558       -1041.468
 08  5  2 13 31  0.0000000  0 12G 2G 6G 7G10G13G16G21G23G24G25G27G29
  23069694.952    23069693.1464   23069693.0524  121232052.441 6  94466550.42843
     -3303.135       -2573.879
  24213072.823    24213072.5454   24213073.6544  127240551.923 5  99148503.97242
      3238.300        2523.323
  23169311.360    23169311.1874   23169311.5254  121755542.351 6  94874475.01643
      2775.871        2163.011
  21259802.885    21259802.3044   21259804.3964  111721022.494 8  87055355.10745
      1342.041        1045.741
  21900344.911    21900345.2534   21900346.0134  115087090.211 7  89678267.57644
     -1788.753       -1393.832
  22332906.245    22332905.7784   22332907.1684  117360227.412 7  91449535.31844
       660.984         515.052
  24838057.480    24838055.8344   24838057.1604  130524860.952 6 101707709.11242
      3696.357        2880.237
  24201388.778    24201388.1074   24201387.7354  127179146.007 5  99100649.52041
     -3516.505       -2740.092
  21908833.639    21908833.5214   21908836.0764  115131698.522 7  89713026.93045
      1820.249        1418.379
  22545300.250    22545300.1854   22545301.1024  118476356.932 7  92319253.51044
      1121.827         874.154
  23694233.892    23694234.2694   23694236.9784  124514048.398 6  97023951.18043
      2650.906        2065.642
  22061124.616    22061124.7974   22061125.8414  115931994.672 7  90336630.91945
     -1358.086       -1058.255
 08  5  2 13 31 30.0000000  0 12G 2G 6G 7G10G13G16G21G23G24G25G27G29
  23088587.525    23088586.6084   23088586.8064  121331337.872 6  94543915.64143
     -3315.682       -2583.604
  24194618.045    24194617.5374   24194620.2494  127143573.653 5  99072936.51542
      3227.016        2514.590
  23153511.620    23153511.9954   23153512.2334  121672517.780 6  94809780.58943
      2759.291        2150.111
  21252205.277    21252204.3244   21252206.3674  111681095.354 8  87024243.03945
      1319.851        1028.470
  21910617.209    21910617.3324   21910617.7754  115141070.115 7  89720329.85644
     -1809.904       -1410.307
  22329197.111    22329196.5984   22329197.5254  117340734.508 7  91434346.04544
       638.453         497.495
  24816973.116    24816972.5464   24816973.1764  130414065.614 5 101621375.08441
      3690.045        2875.406
  24221491.911    24221490.7594   24221490.4434  127284792.096 5  99182971.12241
     -3526.538       -2747.955
  21898496.852    21898496.6544   21898499.0234  115077377.783 7  89670699.14345
      1801.177        1403.523
  22538954.731    22538954.3474   22538955.7954  118443010.233 7  92293269.07744
      1101.299         858.173
  23679137.011    23679138.3604   23679141.5214  124434718.075 6  96962135.41242
      2637.756        2055.410
  22068936.075    22068936.6884   22068937.9264  115973046.716 7  90368619.49545
     -1378.510       -1074.162
 08  5  2 13 32  0.0000000  0 12G 2G 6G 7G10G13G16G21G23G24G25G27G29
  23107558.582    23107558.3564   23107558.5524  121431036.901 6  94621603.19943
     -3330.900       -2595.550
  24176234.648    24176233.6564   24176237.0324  127046969.397 5  98997660.47842
      3213.278        2503.866
  23137813.230    23137814.2174   23137815.2314  121590024.597 6  94745500.21443
      2740.257        2135.280
  21244741.107    21244740.2834   21244742.1004  111641870.846 8  86993678.45745
      1295.107        1009.173
  21921016.497    21921016.5594   21921017.3784  115195718.553 7  89762913.08544
     -1833.444       -1428.681
  22325623.054    22325622.8194   22325623.9034  117321954.682 7  91419712.41044
       613.496         478.058
  24795933.168    24795932.9854   24795934.1244  130303495.867 6 101535216.88242
      3681.230        2868.494
  24241659.398    24241658.4284   24241657.9114  127390773.385 5  99265553.94341
     -3539.154       -2757.724
  21888275.182    21888275.0534   21888277.0654  115023663.127 7  89628843.61645
      1779.687        1386.767
  22532732.919    22532732.8014   22532733.7874  118410315.423 7  92267792.61044
      1078.353         840.300
  23664125.737    23664124.9894   23664127.7344  124355824.491 6  96900659.94243
      2621.934        2043.096
  22076872.119    22076872.5214   22076873.6734  116014749.021 7  90401114.67145
     -1401.572       -1092.111
 08  5  2 13 32 30.0000000  0 12G 2G 6G 7G10G13G16G21G23G24G25G27G29
  23126606.502    23126606.4884   23126606.5954  121531132.212 6  94699599.51143
     -3342.608       -2604.608
  24157920.045    24157920.1244   24157923.0564  126950726.834 5  98922666.30542
      3202.668        2495.622
  23122214.095    23122214.8754   23122216.2294  121508050.787 6  94681624.56443
      2724.296        2122.853
  21237408.168    21237407.2004   21237408.9964  111603335.253 8  86963650.73345
      1273.608         992.440
  21931539.701    21931539.8224   21931540.3634  115251018.902 7  89806004.26044
     -1853.694       -1444.429
  22322182.648    22322182.6614   22322183.1394  117303874.303 7  91405623.81044
       591.405         460.844
  24774932.587    24774931.8124   24774933.9974  130193139.614 6 101449225.05342
      3675.624        2864.115
  24261886.941    24261887.0094   24261887.6594  127497072.118 5  99348384.06141
     -3547.926       -2764.635
  21878166.476    21878166.1364   21878168.5494  114970541.544 7  89587450.23045
      1761.374        1372.496
  22526632.542    22526632.6654   22526633.8724  118378258.982 7  92242813.57944
      1058.327         824.696
  23649192.771    23649192.5304   23649195.7494  124277355.043 6  96839514.95743
      2608.829        2032.868
  22084928.697    22084929.0084   22084930.2404  116057085.827 7  90434104.28545
     -1421.118       -1107.369
 08  5  2 13 33  0.0000000  0 12G 2G 6G 7G10G13G16G21G23G24G25G27G29
  23145726.657    23145725.6494   23145725.7874  121631605.621 6  94777890.46543
     -3355.343       -2614.617
  24139672.923    24139671.2674   24139674.2394  126854833.015 5  98847943.89542
      3190.134        2485.851
  23106711.292    23106712.2384   23106713.2094  121426583.451 6  94618143.57343
      2706.894        2109.253
  21230203.405    21230202.5884   21230204.4344  111565474.424 8  86934148.79145
      1250.546         974.455
  21942183.752    21942183.7104   21942184.3854  115306953.277 7  89849589.51744
     -1875.361       -1461.325
  22318872.561    22318871.8404   22318872.8994  117286478.351 7  91392068.52744
       568.279         442.810
  24753971.192    24753971.0274   24753971.1204  130082983.278 6 101363389.01042
      3668.435        2858.516
  24282171.848    24282172.6444   24282169.6444  127603669.984 5  99431447.35141
     -3558.219       -2772.673
  21868168.172    21868167.7704   21868169.8984  114917999.153 8  89546508.12845
      1741.540        1357.043
  22520651.346    22520651.0904   22520652.3894  118346826.272 7  92218320.59944
      1037.071         808.100
  23634338.979    23634338.5234   23634341.2994  124199296.377 6  96778690.07343
      2594.925        2022.038
  22093102.788    22093103.0054   22093104.0024  116100039.896 8  90467574.92445
     -1442.243       -1123.812
 08  5  2 13 33 30.0000000  0 12G 2G 6G 7G10G13G16G21G23G24G25G27G29
  23164918.937    23164918.8654   23164919.2814  121732468.558 6  94856484.88043
     -3368.436       -2624.773
  24121493.514    24121493.5434   24121495.9134  126759304.268 5  98773505.97042
      3178.955        2477.061
  23091308.811    23091309.4734   23091309.9704  121345638.909 6  94555069.92743
      2689.645        2095.830
  21223130.038    21223128.9844   21223131.0244  111528303.508 8  86905184.46945
      1227.684         956.637
  21952950.471    21952950.8294   21952951.4164  115363533.793 7  89893678.23644
     -1896.609       -1477.871
  22315694.957    22315694.6314   22315695.6134  117269781.061 7  91379057.66644
       545.180         424.806
  24733049.848    24733049.4104   24733048.6984  129973043.898 5 101277722.03042
      3661.122        2852.837
  24302515.224    24302515.2184   24302516.5874  127710578.356 5  99514752.58441
     -3568.699       -2780.835
  21858282.462    21858282.3944   21858284.7394  114866051.365 7  89506029.31445
      1721.852        1341.695
  22514791.753    22514791.0204   22514792.3624  118316032.166 7  92194325.22544
      1016.092         791.767
  23619566.861    23619566.6834   23619568.2024  124121664.607 6  96718197.84443
      2580.826        2011.035
  22101396.582    22101396.8694   22101397.9304  116143623.783 7  90501536.26845
     -1463.134       -1140.109
 08  5  2 13 34  0.0000000  0 12G 2G 6G 7G10G13G16G21G23G24G25G27G29
  23184184.175    23184183.7894   23184183.5034  121833705.560 6  94935370.83243
     -3381.461       -2634.919
  24103383.181    24103383.4604   24103384.2994  126664130.408 5  98699344.54442
      3166.021        2466.989
  23076003.329    23076002.9404   23076003.9404  121265206.981 6  94492395.74043
      2671.762        2081.887
  21216185.374    21216184.7594   21216186.6874  111491810.697 8  86876748.50945
      1204.518         938.578
  21963838.002    21963837.5814   21963838.4464  115420745.603 7  89938258.87244
     -1918.112       -1494.630
  22312648.512    22312648.1954   22312648.5404  117253770.686 7  91366582.06544
       521.701         406.518
  24712168.242    24712167.4734   24712168.0924  129863310.156 6 101192215.29142
      3653.733        2847.091
  24322916.514    24322915.7374   24322916.0784  127817781.510 5  99598287.42641
     -3578.735       -2788.508
  21848508.638    21848507.9874   21848510.6004  114814686.945 7  89466005.05645
      1701.785        1326.073
  22509050.151    22509050.4574   22509051.3714  118285864.791 7  92170818.18344
       994.566         774.988
  23604872.763    23604871.8314   23604874.5334  124044449.176 6  96658030.03643
      2566.369        1999.739
  22109807.672    22109807.6244   22109808.9264  116187823.528 7  90535977.65345
     -1484.117       -1156.475
 08  5  2 13 34 30.0000000  0 12G 2G 6G 7G10G13G16G21G23G24G25G27G29
  23203520.568    23203518.7364   23203518.8614  121935312.265 6  95014544.87843
     -3393.429       -2644.281
  24085339.360    24085338.7504   24085342.1784  126569312.095 5  98625460.20842
      3154.193        2457.790
  23060795.149    23060795.4444   23060795.7544  121185288.561 6  94430121.69743
      2655.028        2068.797
  21209370.091    21209369.2044   21209371.2704  111455995.458 8  86848840.53646
      1182.131         921.136
  21974844.110    21974844.1754   21974844.7064  115478584.833 7  89983328.40244
     -1938.852       -1510.807
  22309732.054    22309731.7094   22309732.6844  117238445.493 7  91354640.36444
       498.879         388.740
  24691326.386    24691324.8234   24691326.0204  129753782.402 6 101106868.98542
      3647.015        2841.874
  24343371.265    24343371.4004   24343371.1494  127925275.360 5  99682048.85541
     -3588.422       -2796.233
  21838845.032    21838844.8974   21838847.1944  114763905.690 7  89426435.19545
      1682.630        1311.134
  22503428.871    22503428.9214   22503430.1694  118256323.359 7  92147798.92044
       973.801         758.801
  23590258.493    23590258.6994   23590259.9974  123967650.191 6  96598186.71643
      2552.672        1989.102
  22118334.801    22118335.1064   22118336.1244  116232635.775 7  90570896.37445
     -1504.260       -1172.183
 08  5  2 13 35  0.0000000  0 12G 2G 6G 7G10G13G16G21G23G24G25G27G29
  23222923.971    23222923.1474   23222922.6974  122037278.405 6  95093999.03342
     -3405.355       -2653.555
  24067362.746    24067362.2384   24067364.3944  126474844.148 5  98551848.83242
      3142.413        2448.665
  23045683.928    23045684.1694   23045684.4024  121105878.729 6  94368243.92143
      2638.052        2055.614
  21202682.226    21202681.3784   21202683.5524  111420851.231 8  86821455.43846
      1159.802         903.735
  21985968.076    21985968.0604   21985969.1274  115537041.754 7  90028879.24744
     -1959.302       -1526.735
  22306944.220    22306944.5264   22306945.2004  117223798.491 7  91343227.11944
       476.528         371.323
  24670521.460    24670521.1434   24670521.8184  129644455.524 6 101021679.19642
      3640.473        2836.693
  24363881.219    24363879.4384   24363878.5954  128033049.528 5  99766028.70741
     -3597.684       -2803.410
  21829291.784    21829291.2014   21829293.8754  114713701.245 7  89387314.67945
      1663.275        1296.058
  22497925.210    22497925.0794   22497926.4324  118227401.243 7  92125262.21644
       953.187         742.749
  23575721.631    23575722.4674   23575724.0814  123891262.023 6  96538663.49843
      2539.019        1978.418
  22126977.380    22126977.3184   22126978.1934  116278051.254 8  90606285.20945
     -1524.387       -1187.859
 08  5  2 13 35 30.0000000  0 12G 2G 6G 7G10G13G16G21G23G24G25G27G29
  23242398.596    23242397.2574   23242397.3744  122139620.070 6  95173745.76843
     -3417.927       -2663.320
  24049456.934    24049456.6454   24049459.0414  126380747.741 5  98478526.98742
      3129.828        2438.819
  23030673.298    23030673.6984   23030674.2174  121026998.331 6  94306778.67043
      2620.278        2041.780
  21196126.083    21196125.1804   21196127.1854  111386397.906 8  86794608.69945
      1136.620         885.679
  21997212.859    21997212.9074   21997213.2424  115596132.683 7  90074924.10544
     -1980.667       -1543.369
  22304290.183    22304289.9274   22304290.6064  117209848.746 7  91332357.19944
       453.073         353.052
  24649759.963    24649758.1804   24649759.5574  129535350.641 5 100936662.38542
      3632.551        2830.557
  24384445.465    24384447.2124   24384445.3524  128141119.761 5  99850239.28441
     -3607.854       -2811.271
  21819851.577    21819851.1704   21819853.9364  114664094.046 7  89348659.58945
      1643.333        1280.523
  22492543.301    22492543.0114   22492544.1054  118199117.952 7  92103223.30544
       931.739         726.034
  23561268.056    23561267.7054   23561269.5194  123815305.553 6  96479476.66043
      2524.437        1967.118
  22135737.587    22135737.6044   22135738.5864  116324086.725 7  90642156.90745
     -1545.252       -1204.084
 08  5  2 13 36  0.0000000  0 12G 2G 6G 7G10G13G16G21G23G24G25G27G29
  23261940.593    23261940.8774   23261940.4244  122242319.784 6  95253771.47343
     -3429.335       -2672.169
  24031619.460    24031619.4174   24031621.8214  126287010.578 5  98405485.04442
      3118.568        2430.007
  23015761.459    23015761.9004   23015762.1504  120948634.976 6  94245716.33443
      2603.269        2028.502
  21189698.653    21189697.7144   21189700.0254  111352621.607 8  86768289.52246
      1114.338         868.307
  22008575.147    22008575.2094   22008575.6774  115655841.276 7  90121450.28044
     -2000.752       -1559.050
  22301765.874    22301765.2894   22301766.2104  117196582.052 7  91322019.52144
       430.630         335.541
  24629036.804    24629037.9064   24629036.0724  129426455.193 6 100851808.84242
      3626.333        2825.688
  24405064.261    24405065.9824   24405061.0124  128249468.420 5  99934666.76041
     -3616.280       -2817.895
  21810523.011    21810522.7604   21810525.4834  114615070.992 7  89310459.77945
      1624.114        1265.527
  22487280.132    22487279.8584   22487280.9084  118171459.591 7  92081671.34845
       911.347         710.126
  23546892.864    23546893.8614   23546896.1564  123739768.255 6  96420616.46043
      2510.679        1956.368
  22144612.652    22144612.6834   22144613.7864  116370726.307 7  90678499.47545
     -1564.886       -1219.416
 08  5  2 13 36 30.0000000  0 12G 2G 6G 7G10G13G16G21G23G24G25G27G29
  23281550.988    23281552.1944   23281551.9694  122345376.688 6  95334075.49443
     -3441.492       -2681.634
  24013850.176    24013850.8564   24013852.7834  126193637.098 5  98332726.50942
      3105.972        2420.229
  23000948.196    23000948.8584   23000949.8874  120870793.606 6  94185060.77944
      2585.721        2014.813
  21183400.634    21183399.6984   21183401.8884  111319525.116 8  86742500.03846
      1091.653         850.626
  22020054.504    22020054.4814   22020055.1944  115716167.120 7  90168457.42944
     -2021.351       -1575.092
  22299371.942    22299371.3034   22299372.0764  117184000.673 7  91312215.84744
       407.655         317.638
  24608355.652    24608355.0864   24608356.3814  129317772.806 6 100767121.32842
      3618.889        2819.863
  24425733.913    24425734.7214   24425735.4444  128358094.983 5 100019310.75941
     -3625.665       -2825.230
  21801305.935    21801305.6834   21801308.1704  114566635.348 7  89272717.80745
      1604.450        1250.217
  22482136.207    22482136.1414   22482137.1224  118144428.942 7  92060608.50744
       890.256         693.688
  23532599.775    23532598.8914   23532602.1184  123664653.817 6  96362085.76043
      2496.432        1945.294
  22153602.706    22153602.9664   22153603.9774  116417970.342 7  90715313.10645
     -1585.111       -1235.158
 08  5  2 13 37  0.0000000  0 12G 2G 6G 7G10G13G16G21G23G24G25G27G29
  23301228.479    23301227.7404   23301227.6174  122448772.405 6  95414643.59443
     -3452.371       -2690.181
  23996148.537    23996148.5984   23996151.8814  126100613.667 6  98260240.73542
      3094.631        2411.389
  22986232.808    22986232.8174   22986233.1064  120793460.510 6  94124801.22443
      2569.332        2002.078
  21177228.852    21177228.2164   21177230.3894  111287093.719 8  86717228.83746
      1069.708         833.541
  22031648.192    22031648.2594   22031648.7194  115777091.709 7  90215931.13644
     -2040.990       -1590.378
  22297105.221    22297104.4944   22297105.2854  117172089.231 7  91302934.22144
       385.507         300.416
  24587712.491    24587710.8204   24587711.9714  129209289.935 5 100682589.27242
      3612.521        2814.945
  24446454.925    24446454.9294   24446454.9714  128466980.674 5 100104156.73341
     -3634.155       -2831.739
  21792197.933    21792197.5374   21792199.9584  114518772.372 8  89235422.06045
      1585.508        1235.475
  22477108.691    22477108.7494   22477109.6384  118118010.752 7  92040022.91845
       870.077         678.004
  23518384.760    23518383.1974   23518385.6564  123589948.557 6  96303873.87143
      2483.091        1934.943
  22162704.273    22162704.6564   22162706.0304  116465800.900 7  90752583.67245
     -1604.313       -1250.089
 08  5  2 13 37 30.0000000  0 12G 2G 6G 7G10G13G16G21G23G24G25G27G29
  23320968.183    23320966.4834   23320966.7244  122552502.657 6  95495472.29842
     -3463.634       -2698.951
  23978514.175    23978514.6124   23978516.3114  126007941.519 5  98188028.67342
      3082.495        2401.944
  22971613.597    22971613.5284   22971614.4334  120716636.553 6  94064938.39144
      2551.510        1988.185
  21171183.959    21171183.1864   21171185.3444  111255326.623 8  86692475.26146
      1047.264         816.062
  22043354.804    22043354.9964   22043355.7254  115838611.673 7  90263868.77444
     -2060.983       -1605.942
  22294965.550    22294965.0414   22294966.0734  117160846.361 7  91294173.52144
       363.155         283.009
  24567106.463    24567106.1044   24567107.3134  129101007.789 5 100598213.60542
      3605.680        2809.646
  24467223.018    24467223.5764   24467222.1444  128576121.380 5 100189201.39341
     -3643.147       -2838.805
  21783198.242    21783198.2734   21783200.9254  114471481.739 7  89198572.19445
      1566.272        1220.458
  22472198.194    22472198.0264   22472199.3844  118092204.542 7  92019914.18644
       849.375         661.857
  23504245.497    23504245.3404   23504248.0704  123515653.001 6  96245981.25743
      2469.259        1924.128
  22171917.559    22171917.7154   22171918.8964  116514215.373 7  90790309.22745
     -1624.098       -1265.511
 08  5  2 13 38  0.0000000  0 12G 2G 6G 7G10G13G16G21G23G24G25G27G29
  23340769.994    23340770.1614   23340769.5184  122656569.573 6  95576563.35543
     -3474.662       -2707.503
  23960946.891    23960946.4384   23960949.3094  125915627.281 5  98116095.51942
      3070.766        2392.802
  22957092.530    22957092.4894   22957093.5374  120640328.665 6  94005477.71044
      2534.741        1975.100
  21165266.305    21165265.5884   21165267.4434  111224229.446 8  86668243.73046
      1025.126         798.789
  22055175.631    22055175.6514   22055176.5244  115900729.152 7  90312271.99844
     -2080.860       -1621.451
  22292953.977    22292953.9204   22292954.6284  117150276.930 7  91285937.58544
       340.744         265.496
  24546540.959    24546539.0354   24546541.3724  128992932.854 5 100513999.38142
      3598.791        2804.220
  24488040.002    24488040.4664   24488040.7654  128685518.781 5 100274446.08141
     -3651.151       -2845.031
  21774309.337    21774309.3334   21774311.8694  114424769.709 7  89162173.30945
      1547.048        1205.484
  22467404.428    22467404.7074   22467405.7334  118067015.486 7  92000286.34644
       829.061         646.012
  23490187.494    23490187.0204   23490188.7704  123441773.427 6  96188412.75543
      2455.298        1913.227
  22181241.911    22181242.3834   22181243.5274  116563216.319 7  90828491.76545
     -1643.428       -1280.602
 08  5  2 13 38 30.0000000  0 11G 2G 6G 7G10G13G16G21G24G25G27G29
  23360635.629    23360635.2924   23360635.3724  122760964.833 6  95657910.26242
     -3485.626       -2716.111
  23943448.071    23943447.7994   23943451.2194  125823668.174 5  98044439.08042
      3058.944        2383.607
  22942668.861    22942669.7014   22942670.2094  120564534.051 6  93946417.01944
      2517.543        1961.713
  21159475.430    21159474.6844   21159476.7744  111193797.715 8  86644530.71146
      1002.963         781.533
  22067108.456    22067108.3774   22067108.9054  115963436.590 7  90361134.93044
     -2100.320       -1636.597
  22291069.929    22291069.5154   22291070.3104  117140375.935 7  91278222.49844
       318.622         248.272
  24526013.756    24526012.1494   24526013.5604  128885062.029 5 100429944.23241
      3592.341        2799.228
  21765530.172    21765529.7684   21765531.9794  114378632.357 8  89126222.20345
      1528.034        1190.656
  22462728.050    22462727.8494   22462729.3754  118042438.808 7  91981135.68544
       808.729         630.201
  23476205.869    23476206.4184   23476208.3584  123368306.622 6  96131165.91643
      2441.773        1902.698
  22190676.759    22190677.1644   22190678.3294  116612796.809 7  90867125.89145
     -1662.659       -1295.579
 08  5  2 13 39  0.0000000  0 11G 2G 6G 7G10G13G16G21G24G25G27G29
  23380564.914    23380564.1114   23380563.0144  122865685.771 6  95739510.94642
     -3496.210       -2724.342
  23926016.997    23926016.7134   23926018.8324  125732066.766 6  97973061.32842
      3047.121        2374.380
  22928343.634    22928344.0314   22928345.0734  120489255.428 6  93887758.37644
      2500.470        1948.416
  21153811.288    21153810.5294   21153812.6404  111164032.498 8  86621337.04346
       980.914         764.347
  22079153.115    22079153.1294   22079153.6184  116026732.019 7  90410456.03244
     -2119.812       -1651.811
  22289313.390    22289312.9414   22289313.6174  117131143.659 7  91271028.49544
       296.483         231.011
  24505525.861    24505526.2444   24505525.8084  128777397.449 5 100346049.81941
      3585.278        2793.752
  21756859.583    21756859.5304   21756862.0164  114333071.236 7  89090720.07745
      1508.989        1175.818
  22458167.927    22458167.6554   22458169.1644  118018475.625 7  91962463.08444
       788.472         614.391
  23462305.398    23462305.2254   23462307.7164  123295254.990 6  96074242.57943
      2427.852        1891.841
  22200221.806    22200222.0944   22200223.2704  116662955.183 7  90906210.29545
     -1681.623       -1310.352
 08  5  2 13 39 30.0000000  0 11G 2G 6G 7G10G13G16G21G24G25G27G29
  23400550.688    23400551.1554   23400550.2414  122970721.465 6  95821356.91342
     -3506.986       -2732.738
  23908652.739    23908652.2564   23908654.1234  125640816.823 6  97901957.48242
      3035.464        2365.258
  22914116.045    22914116.5314   22914117.1014  120414486.468 7  93829496.86344
      2483.394        1935.093
  21148272.328    21148271.7954   21148273.9664  111134926.173 8  86598656.80046
       958.670         746.987
  22091307.399    22091307.0774   22091308.3904  116090604.445 7  90460226.75144
     -2139.138       -1666.866
  22287681.990    22287681.7514   22287682.9134  117122571.842 7  91264349.15044
       274.272         213.704
  24485076.105    24485075.4204   24485076.2684  128669932.822 5 100262311.19142
      3578.505        2788.449
  21748298.335    21748297.9604   21748300.3054  114288079.091 8  89055661.29945
      1489.778        1160.859
  22453723.044    22453723.0114   22453724.5434  117995118.030 7  91944262.35845
       768.099         598.494
  23448481.544    23448481.2454   23448483.4604  123222611.684 6  96017637.40243
      2414.082        1881.092
  22209874.943    22209874.9514   22209876.2494  116713681.425 7  90945737.20245
     -1700.883       -1325.386
 08  5  2 13 40  0.0000000  0 11G 2G 6G 7G10G13G16G21G24G25G27G29
  23420597.732    23420599.5124   23420598.5524  123076073.632 6  95903449.45942
     -3517.385       -2740.833
  23891356.177    23891355.9114   23891358.5834  125549925.376 5  97831133.03842
      3023.250        2355.736
  22899986.372    22899986.7474   22899987.3124  120340233.946 6  93771637.75144
      2465.980        1921.568
  21142860.144    21142859.1684   21142861.3104  111106483.691 8  86576493.83746
       936.473         729.711
  22103572.561    22103572.5164   22103572.9834  116155056.286 7  90510448.97844
     -2158.539       -1681.973
  22286177.436    22286177.1984   22286178.1614  117114665.320 7  91258188.22744
       251.852         196.230
  24464665.630    24464665.5394   24464665.8514  128562675.327 5 100178733.97241
      3571.214        2782.770
  21739846.052    21739845.7164   21739847.9334  114243661.602 8  89021050.28145
      1470.469        1145.821
  22449394.290    22449394.4324   22449395.7504  117972371.063 7  91926537.45345
       747.597         582.540
  23434736.859    23434736.8304   23434738.7414  123150383.184 6  95961355.46243
      2400.084        1870.219
  22219636.318    22219636.4964   22219637.8574  116764978.019 7  90985708.58145
     -1719.942       -1340.228
 08  5  2 13 40 30.0000000  0 11G 2G 6G 7G10G13G16G21G24G25G27G29
  23440704.946    23440705.7404   23440705.7974  123181730.321 6  95985779.27042
     -3526.816       -2748.164
  23874127.529    23874127.0934   23874128.5634  125459385.632 6  97760582.62642
      3012.271        2347.187
  22885953.712    22885953.5554   22885954.5154  120266491.264 6  93714175.93144
      2449.783        1908.916
  21137572.379    21137571.7064   21137573.7214  111078697.343 8  86554842.15346
       915.410         713.308
  22115945.007    22115945.4644   22115945.5994  116220076.063 7  90561113.72644
     -2176.771       -1696.169
  22284797.993    22284797.1824   22284798.0034  117107414.874 7  91252538.49344
       230.850         179.863
  24444292.805    24444292.2454   24444294.0674  128455617.735 5 100095312.50041
      3565.034        2777.952
  21731501.508    21731501.1744   21731503.5784  114199810.866 8  88986880.85245
      1452.303        1131.673
  22445180.522    22445180.3114   22445181.5814  117950226.037 7  91909281.59245
       728.269         567.493
  23421069.233    23421069.5504   23421071.5814  123078562.290 6  95905391.16143
      2387.310        1860.233
  22229503.790    22229504.1834   22229505.4614  116816834.270 7  91026116.07045
     -1737.753       -1354.092
 08  5  2 13 41  0.0000000  0 11G 2G 6G 7G10G13G16G21G24G25G27G29
  23460866.612    23460867.3674   23460867.2934  123287681.117 6  96068338.31742
     -3536.891       -2756.004
  23856964.284    23856963.6864   23856966.2004  125369192.199 6  97690302.07342
      2999.976        2337.647
  22872016.408    22872016.9394   22872017.5494  120193252.743 6  93657106.97744
      2432.247        1895.267
  21132408.421    21132407.6354   21132409.5844  111051559.700 8  86533695.93846
       893.317         696.107
  22128424.062    22128424.0124   22128424.2204  116285653.431 7  90612212.97344
     -2195.665       -1710.921
  22283541.894    22283541.3064   22283541.6754  117100812.952 7  91247394.09644
       208.776         162.669
  24423958.559    24423957.6624   24423957.2984  128348754.362 5 100012042.35041
      3558.446        2772.825
  21723263.564    21723263.2674   21723265.7444  114156520.507 7  88953148.12045
      1433.158        1116.746
  22441079.856    22441079.4344   22441080.8844  117928676.138 7  91892489.46045
       707.920         551.639
  23407479.571    23407479.1804   23407482.1534  123007143.160 6  95849739.89243
      2373.280        1849.320
  22239476.790    22239476.8894   22239478.0594  116869240.345 7  91066951.94045
     -1756.565       -1368.753
 08  5  2 13 41 30.0000000  0 11G 2G 6G 7G10G13G16G21G24G25G27G29
  23481086.512    23481086.6744   23481085.8354  123393935.820 6  96151134.20042
     -3546.680       -2763.642
  23839869.852    23839868.6594   23839870.7914  125279359.679 6  97620302.70942
      2988.527        2328.703
  22858177.977    22858178.5874   22858179.7124  120120533.211 6  93600442.42344
      2415.380        1882.132
  21127370.123    21127369.3114   21127371.4434  111025083.965 8  86513065.50146
       871.534         679.107
  22141011.118    22141011.0724   22141011.7584  116351798.408 7  90663754.51044
     -2214.277       -1725.431
  22282411.228    22282410.7764   22282411.3534  117094872.034 7  91242764.80244
       187.130         145.822
  24403660.916    24403660.3994   24403662.6224  128242099.983 5  99928935.10241
      3551.705        2767.560
  21715134.824    21715134.5774   21715137.0154  114113803.965 8  88919862.48945
      1414.365        1102.095
  22437094.405    22437094.3924   22437095.6504  117907734.410 7  91876171.24045
       687.976         536.084
  23393967.608    23393967.4594   23393969.1324  122936140.137 6  95794412.83843
      2359.607        1838.644
  22249555.770    22249556.1534   22249557.1894  116922207.137 7  91108224.78245
     -1774.841       -1383.005
 08  5  2 13 42  0.0000000  0 11G 2G 6G 7G10G13G16G21G24G25G27G29
  23501362.341    23501361.0204   23501361.8304  123500482.370 6  96234157.45742
     -3556.986       -2771.662
  23822842.482    23822841.8844   23822843.5874  125189881.422 5  97550579.43542
      2975.711        2318.708
  22844438.161    22844438.0424   22844438.4584  120048325.834 7  93544176.89744
      2397.443        1868.130
  21122456.255    21122455.4084   21122457.5164  110999261.393 8  86492944.04246
       849.036         661.585
  22153704.046    22153703.8454   22153704.1834  116418499.630 7  90715729.50144
     -2233.344       -1740.259
  22281404.797    22281404.0014   22281405.1364  117089583.181 7  91238643.63044
       164.742         128.389
  24383404.128    24383403.6524   24383405.4374  128135647.438 5  99845985.00741
      3544.208        2761.744
  21707113.644    21707113.4964   21707115.9764  114071653.354 8  88887017.82545
      1394.806        1086.860
  22433223.301    22433223.5534   22433224.8144  117887391.912 7  91860319.93245
       667.362         520.025
  23380535.216    23380534.4584   23380536.1914  122865546.097 6  95739404.48443
      2345.507        1827.659
  22259739.841    22259739.9184   22259741.1164  116975723.581 7  91149925.86245
     -1793.787       -1397.739
 08  5  2 13 42 30.0000000  0 11G 2G 6G 7G10G13G16G21G24G25G27G29
  23521689.937    23521691.5174   23521691.4754  123607315.415 6  96317403.94842
     -3566.238       -2778.900
  23805882.687    23805882.4314   23805883.6174  125100756.770 6  97481131.68042
      2964.638        2310.093
  22830794.459    22830794.7144   22830795.7644  119976629.734 6  93488309.83544
      2380.976        1855.289
  21117666.235    21117665.5624   21117667.3564  110974089.759 8  86473329.78446
       827.857         645.073
  22166500.954    22166501.4894   22166502.3484  116485751.502 7  90768133.55044
     -2251.252       -1754.219
  22280521.820    22280521.3664   22280522.0134  117084943.446 7  91235028.27244
       143.555         111.862
  24363185.326    24363184.0124   24363186.3364  128029395.974 5  99763191.62541
      3538.046        2756.913
  21699200.291    21699199.8634   21699202.3064  114030067.206 8  88854613.04845
      1376.360        1072.488
  22429466.236    22429465.8254   22429467.2444  117867646.396 7  91844933.81545
       647.912         504.864
  23367178.904    23367178.3624   23367181.5364  122795359.848 6  95684713.85843
      2332.431        1817.470
  22270027.432    22270027.6194   22270028.8784  117029784.993 7  91192051.60145
     -1811.413       -1411.496
 08  5  2 13 43  0.0000000  0 11G 2G 6G 7G10G13G16G21G24G25G27G29
  23542075.551    23542075.4334   23542074.3474  123714432.135 6  96400871.47842
     -3575.338       -2786.000
  23788990.801    23788989.6894   23788993.4814  125011988.529 6  97411961.62342
      2952.875        2300.908
  22817248.751    22817249.5024   22817249.7274  119905447.731 6  93432843.33844
      2363.653        1841.794
  21113000.260    21112999.6154   21113001.6574  110949570.471 8  86454223.86846
       806.272         628.251
  22179403.578    22179403.6034   22179404.2194  116553552.077 7  90820965.15844
     -2269.290       -1768.294
  22279762.382    22279762.2734   22279762.3034  117080953.223 7  91231919.04244
       121.996          95.053
  24343006.262    24343003.6834   24343005.7814  127923348.693 5  99680557.55741
      3531.362        2751.663
  21691394.344    21691394.0584   21691396.4894  113989046.732 7  88822649.06445
      1357.802        1058.013
  22425822.618    22425822.3094   22425823.3504  117848498.555 7  91830013.45645
       628.282         489.549
  23353900.619    23353900.4094   23353902.4934  122725583.559 6  95630342.72943
      2319.076        1807.053
  22280418.109    22280418.4854   22280419.5684  117084389.798 7  91234600.86245
     -1829.372       -1425.506
 08  5  2 13 43 30.0000000  0 11G 2G 6G 7G10G13G16G21G24G25G27G29
  23562511.724    23562510.3404   23562509.6364  123821820.786 6  96484550.90142
     -3584.455       -2793.100
  23772164.189    23772164.4264   23772166.0034  124923569.634 5  97343063.78842
      2941.084        2291.739
  22803800.264    22803800.3974   22803801.0984  119834772.675 6  93377771.84444
      2347.240        1829.027
  21108457.034    21108456.1604   21108458.1624  110925694.801 8  86435619.44546
       784.869         611.592
  22192407.745    22192407.5884   22192408.5034  116621889.574 7  90874215.13344
     -2287.016       -1782.080
  22279124.769    22279124.3124   22279124.8794  117077602.843 7  91229308.35344
       100.771          78.517
  24322863.143    24322861.9654   24322862.9274  127817497.797 5  99598076.40741
      3524.989        2746.687
  21683694.382    21683694.0374   21683696.6834  113948583.772 8  88791119.44445
      1339.252        1043.571
  22422290.803    22422290.6994   22422291.9074  117829939.783 7  91815552.06045
       608.583         474.216
  23340700.026    23340699.1484   23340701.2414  122656209.948 6  95576285.35143
      2305.615        1796.607
  22290910.338    22290910.5134   22290911.8764  117139526.716 7  91277564.75245
     -1846.943       -1439.178
 08  5  2 13 44  0.0000000  0 11G 2G 6G 7G10G13G16G21G24G25G27G29
  23582997.584    23582997.8894   23582997.1074  123929480.547 6  96568441.56442
     -3593.246       -2799.922
  23755406.328    23755406.3994   23755408.0654  124835504.361 6  97274441.50842
      2929.445        2282.697
  22790448.985    22790448.7374   22790449.2334  119764608.994 6  93323098.83444
      2329.968        1815.554
  21104036.448    21104035.7384   21104037.7144  110902465.579 8  86417518.77146
       763.450         594.901
  22205514.091    22205514.3314   22205514.6684  116690764.075 7  90927883.55844
     -2304.835       -1795.996
  22278609.309    22278608.9004   22278609.7534  117074894.753 7  91227198.16244
        79.416          61.906
  24302757.865    24302757.5284   24302758.4454  127711847.758 5  99515751.76741
      3518.229        2741.485
  21676101.437    21676101.1524   21676103.5154  113908681.598 8  88760026.83145
      1320.530        1029.001
  22418872.003    22418871.7634   22418872.9544  117811972.466 7  91801551.54445
       588.831         458.840
  23327575.653    23327575.2524   23327577.0324  122587242.685 6  95522544.57943
      2292.313        1786.240
  22301503.959    22301503.9084   22301505.2604  117195195.785 7  91320943.19645
     -1864.699       -1453.022
 08  5  2 13 44 30.0000000  0 11G 2G 6G 7G10G13G16G21G24G25G27G29
  23603537.609    23603537.2784   23603536.0624  124037415.271 6  96652546.45142
     -3601.946       -2806.701
  23738717.073    23738716.7704   23738719.1914  124747802.260 6  97206102.24042
      2917.764        2273.635
  22777196.291    22777196.2454   22777196.5234  119694965.674 6  93268831.35144
      2313.282        1802.571
  21099740.554    21099739.6834   21099741.7284  110879889.930 8  86399927.37446
       742.081         578.236
  22218723.534    22218723.5594   22218724.0664  116760179.838 7  90981973.73844
     -2322.477       -1809.692
  22278217.613    22278217.1104   22278217.7744  117072835.546 7  91225593.57444
        58.276          45.428
  24282693.904    24282693.2204   24282693.3404  127606407.677 5  99433590.70441
      3511.629        2736.361
  21668616.445    21668616.2004   21668618.6304  113869348.379 8  88729377.50845
      1302.019        1014.568
  22415566.515    22415566.4364   22415567.8404  117794603.942 7  91788017.66345
       569.299         443.609
  23314529.483    23314529.6224   23314532.2134  122518690.548 6  95469127.32043
      2278.230        1775.245
  22312199.300    22312199.7544   22312200.8794  117251402.572 7  91364740.81945
     -1882.125       -1466.592
 08  5  2 13 45  0.0000000  0 11G 2G 6G 7G10G13G16G21G24G25G27G29
  23624126.285    23624127.3874   23624126.9314  124145618.779 6  96736860.79442
     -3611.273       -2813.927
  23722096.554    23722096.5604   23722099.1514  124660461.124 6  97138044.27242
      2905.285        2263.864
  22764041.575    22764041.9544   22764043.0094  119625840.919 7  93214967.92544
      2295.444        1788.668
  21095568.002    21095567.3404   21095569.5384  110857964.096 8  86382842.32646
       720.093         561.116
  22232034.773    22232034.7834   22232035.6434  116830129.840 7  91036480.25144
     -2340.549       -1823.775
  22277948.528    22277947.8504   22277948.6934  117071421.148 7  91224491.41544
        36.410          28.370
  24262667.988    24262667.0654   24262667.5634  127501175.594 5  99351591.66941
      3504.085        2730.493
  21661239.503    21661239.1134   21661241.4914  113830580.880 8  88699169.07245
      1282.936         999.701
  22412374.844    22412374.5244   22412375.9054  117777830.611 7  91774947.52045
       549.262         427.989
  23301564.475    23301563.9364   23301565.7924  122450551.397 6  95416031.82543
      2264.462        1764.519
  22322996.408    22322996.6164   22322997.8334  117308140.068 7  91408951.81245
     -1900.047       -1480.549
 08  5  2 13 45 30.0000000  0 11G 2G 6G 7G10G13G16G21G24G25G27G29
  23644770.172    23644768.3274   23644769.2404  124254091.878 6  96821385.20242
     -3619.812       -2820.628
  23705546.450    23705545.7414   23705548.4904  124573487.518 6  97070272.66142
      2892.951        2254.270
  22750987.452    22750987.7754   22750988.4904  119557240.915 7  93161513.40644
      2278.121        1775.155
  21091520.249    21091519.5304   21091521.6054  110836692.794 8  86366267.30046
       698.419         544.222
  22245447.704    22245447.7654   22245448.4134  116900615.548 7  91091404.16844
     -2358.036       -1837.422
  22277802.433    22277802.3124   22277802.9614  117070655.144 7  91223894.51544
        14.948          11.668
  24242684.306    24242683.0174   24242684.6914  127396157.540 5  99269759.31241
      3497.027        2724.918
  21653970.626    21653970.2764   21653972.9304  113792384.136 8  88669405.43845
      1263.901         984.864
  22409297.019    22409296.9044   22409298.3094  117761656.526 7  91762344.31645
       529.593         412.669
  23288677.161    23288676.9084   23288679.5364  122382830.849 6  95363262.55243
      2250.512        1753.634
  22333894.676    22333894.9344   22333896.1304  117365410.854 7  91453578.42945
     -1917.560       -1494.197
 08  5  2 13 46  0.0000000  0 11G 2G 6G 7G10G13G16G21G24G25G27G29
  23665460.408    23665458.3694   23665459.5734  124362819.162 6  96906107.68142
     -3628.932       -2827.745
  23689063.297    23689063.2244   23689065.3494  124486870.717 5  97002779.06742
      2880.717        2244.730
  22738031.107    22738031.3354   22738032.2644  119489154.629 6  93108459.16244
      2260.593        1761.497
  21087594.847    21087594.2314   21087596.0804  110816064.298 8  86350193.17046
       676.608         527.223
  22258959.471    22258959.9124   22258960.1744  116971621.858 7  91146733.76144
     -2375.835       -1851.295
  22277778.281    22277777.6214   22277778.4234  117070524.729 7  91223792.87144
        -6.490          -5.041
  24222739.013    24222737.8494   24222739.2094  127291343.006 5  99188085.51242
      3489.974        2719.419
  21646808.059    21646808.0394   21646810.6184  113754746.532 8  88640077.47845
      1244.922         970.070
  22406330.916    22406330.5014   22406331.9164  117746069.486 7  91750198.57445
       509.390         396.918
  23275867.756    23275868.2524   23275869.9284  122315518.080 6  95310811.05943
      2236.566        1742.798
  22344891.270    22344891.5774   22344893.0434  117423200.146 7  91498609.04645
     -1935.258       -1507.992
 08  5  2 13 46 30.0000000  0 11G 2G 6G 7G10G13G16G21G24G25G27G29
  23686197.172    23686197.6044   23686197.1644  124471798.195 6  96991026.36442
     -3636.744       -2833.817
  23672649.941    23672649.1424   23672651.3894  124400613.550 6  96935565.73342
      2868.936        2235.514
  22725172.622    22725173.3514   22725174.1634  119421584.911 7  93055807.43444
      2243.684        1748.335
  21083791.660    21083790.8924   21083793.0304  110796078.640 8  86334619.95146
       655.425         510.716
  22272570.354    22272570.7134   22272571.0564  117043146.569 7  91202467.27944
     -2392.687       -1864.418
  22277873.820    22277873.4914   22277874.0824  117071030.194 7  91224186.76944
       -27.606         -21.511
  24202831.914    24202831.5444   24202832.7094  127186734.535 5  99106572.34241
      3483.712        2714.531
  21639752.881    21639752.5054   21639754.8964  113717669.469 8  88611186.36645
      1226.423         955.652
  22403476.439    22403476.2574   22403477.5584  117731069.916 7  91738510.58745
       490.114         381.899
  23263136.242    23263136.5504   23263138.7354  122248615.022 6  95258678.82643
      2223.342        1732.481
  22355987.032    22355986.9974   22355988.3284  117481506.078 7  91544042.25045
     -1952.163       -1521.179
 08  5  2 13 47  0.0000000  0 11G 2G 6G 7G10G13G16G21G24G25G27G29
  23706983.182    23706983.2214   23706983.2724  124581029.227 6  97076141.48242
     -3646.157       -2841.183
  23656304.880    23656303.9504   23656305.8844  124314721.282 6  96868636.71942
      2856.198        2225.589
  22712414.047    22712414.5374   22712415.2224  119354536.847 6  93003562.16044
      2225.302        1734.008
  21080111.634    21080110.7534   21080112.8584  110776739.491 8  86319550.50946
       632.997         493.247
  22286280.068    22286280.1724   22286280.7904  117115190.316 7  91258605.25444
     -2410.833       -1878.566
  22278092.073    22278091.3214   22278092.2494  117072174.494 7  91225078.43544
       -49.628         -38.659
  24182966.254    24182965.6394   24182965.7494  127082337.796 6  99025224.27542
      3475.552        2708.246
  21632804.717    21632804.5664   21632806.8194  113681156.756 8  88582734.83045
      1206.832         940.390
  22400734.575    22400734.4264   22400735.8894  117716661.618 7  91727283.34145
       469.562         365.877
  23250484.483    23250483.9254   23250486.0524  122182126.917 6  95206869.93343
      2208.743        1721.136
  22367180.498    22367181.1524   22367181.9884  117540330.015 7  91589879.07645
     -1970.280       -1535.288
 08  5  2 13 47 30.0000000  0 11G 2G 6G 7G10G13G16G21G24G25G27G29
  23727817.972    23727817.9694   23727817.9994  124690515.587 6  97161455.52342
     -3654.076       -2847.383
  23640030.983    23640030.5084   23640032.6954  124229202.031 6  96801998.34642
      2844.188        2216.253
  22699755.947    22699756.2784   22699757.2954  119288018.258 6  92951729.46544
      2208.018        1720.531
  21076555.597    21076554.9314   21076557.0264  110758053.184 8  86304989.73146
       611.602         476.575
  22300088.809    22300089.3234   22300089.7514  117187756.516 7  91315150.31444
     -2427.820       -1891.803
  22278432.537    22278431.5454   22278432.5024  117073963.018 7  91226472.10844
       -70.511         -54.945
  24163142.427    24163141.3344   24163142.6044  126978160.649 6  98944047.35642
      3468.502        2702.755
  21625965.529    21625965.1834   21625967.5354  113645215.646 8  88554728.82945
      1188.270         925.929
  22398106.595    22398106.3544   22398107.6514  117702850.488 7  91716521.42345
       450.060         350.708
  23237912.154    23237912.6054   23237914.0814  122116061.177 6  95155390.18343
      2194.784        1710.231
  22378473.940    22378473.9754   22378475.3914  117599675.753 7  91636122.51845
     -1987.207       -1548.483
 08  5  2 13 48  0.0000000  0 11G 2G 6G 7G10G13G16G21G24G25G27G29
  23748699.806    23748699.3184   23748698.8994  124800250.601 6  97246963.32142
     -3661.976       -2853.523
  23623828.225    23623827.6734   23623829.7184  124144054.465 6  96735649.60942
      2831.944        2206.714
  22687198.631    22687198.9874   22687200.2324  119222028.192 7  92900308.62644
      2190.726        1707.068
  21073123.409    21073122.8424   21073124.8624  110740016.779 8  86290935.37546
       590.249         459.940
  22313996.389    22313996.2364   22313996.4214  117260838.940 7  91372097.64944
     -2444.984       -1905.154
  22278894.474    22278893.8484   22278894.5134  117076392.369 7  91228365.10344
       -91.737         -71.483
  24143359.369    24143358.1384   24143358.3914  126874201.434 6  98863040.16142
      3461.515        2697.300
  21619234.110    21619233.9454   21619236.4844  113609843.479 8  88527166.16845
      1169.574         911.372
  22395591.492    22395591.3494   22395592.3544  117689633.450 7  91706222.43945
       430.546         335.499
  23225420.893    23225419.9394   23225422.5914  122050415.995 6  95104238.10143
      2180.900        1699.381
  22389865.314    22389865.3334   22389866.4904  117659537.679 7  91682768.22245
     -2004.157       -1561.679
 08  5  2 13 48 30.0000000  0 11G 2G 6G 7G10G13G16G21G24G25G27G29
  23769625.626    23769625.8514   23769626.4714  124910219.162 6  97332653.10942
     -3669.818       -2859.658
  23607693.541    23607693.3874   23607696.0914  124059268.385 6  96669582.52342
      2819.797        2197.238
  22674739.364    22674739.6994   22674741.1364  119156555.761 7  92849291.15444
      2173.682        1693.785
  21069812.703    21069811.8654   21069813.9404  110722617.877 8  86277377.77746
       569.143         443.495
  22327998.523    22327998.2054   22327998.9094  117334422.104 7  91429435.18244
     -2461.299       -1917.892
  22279476.320    22279475.3634   22279476.1334  117079448.807 7  91230746.74144
      -112.445         -87.591
  24123615.675    24123615.0334   24123615.7264  126770449.996 6  98782194.94542
      3454.656        2691.937
  21612609.324    21612608.9244   21612611.2314  113575028.321 8  88500037.47945
      1151.075         896.946
  22393187.165    22393186.8804   22393188.1154  117676997.833 7  91696376.50445
       411.309         320.505
  23213006.699    23213006.7804   23213008.3944  121985180.424 6  95053405.22243
      2167.236        1688.774
  22401351.909    22401352.0764   22401353.4304  117719900.717 7  91729804.34645
     -2020.653       -1574.522
 08  5  2 13 49  0.0000000  0 11G 2G 6G 7G10G13G16G21G24G25G27G29
  23790598.250    23790596.7994   23790595.6194  125020422.156 6  97418525.52842
     -3678.075       -2865.999
  23591629.480    23591628.4104   23591631.4214  123974849.617 6  96603801.65142
      2807.045        2187.344
  22662380.379    22662380.6364   22662381.0564  119091606.693 6  92798681.47544
      2155.327        1679.453
  21066623.664    21066623.0014   21066625.0114  110705860.507 8  86264320.07046
       547.164         426.361
  22342096.079    22342096.3164   22342096.5174  117408507.417 7  91487163.98044
     -2478.565       -1931.316
  22280177.539    22280177.2284   22280178.3384  117083136.258 7  91233620.06444
      -134.206        -104.564
  24103913.625    24103912.7654   24103913.6244  126666912.128 6  98701516.17342
      3446.818        2685.833
  21606090.965    21606090.7004   21606093.0414  113540774.948 8  88473346.55545
      1131.695         881.849
  22390893.627    22390893.7684   22390894.8394  117664947.710 7  91686986.81645
       391.237         304.871
  23200671.935    23200671.1144   23200673.5424  121920359.900 6  95002895.78543
      2153.207        1677.827
  22412934.422    22412934.6084   22412935.8744  117780766.896 7  91777232.52045
     -2038.037       -1588.071
 08  5  2 13 49 30.0000000  0 11G 2G 6G 7G10G13G16G21G24G25G27G29
  23811612.323    23811615.2104   23811614.9574  125130871.268 6  97504589.72842
     -3686.221       -2872.398
  23575637.102    23575637.1374   23575639.9114  123890814.694 6  96538319.91642
      2794.010        2177.125
  22650124.361    22650123.7924   22650124.8874  119027197.317 7  92748492.33044
      2137.365        1665.464
  21063559.770    21063558.9384   21063561.0184  110689758.909 8  86251773.38746
       525.164         409.229
  22356292.086    22356291.9834   22356293.0434  117483106.459 7  91545293.07843
     -2495.837       -1944.778
  22281002.313    22281001.4924   22281002.6284  117087468.738 7  91236996.00644
      -155.808        -121.429
  24084254.591    24084253.1664   24084253.7404  126563604.292 6  98621016.59742
      3439.103        2679.776
  21599682.484    21599682.3064   21599684.6094  113507098.731 8  88447105.36145
      1112.231         866.674
  22388715.365    22388714.9334   22388716.1834  117653497.654 7  91678064.69645
       370.909         289.014
  23188418.589    23188418.0734   23188420.4334  121855970.527 6  94952722.28843
      2138.367        1666.271
  22424614.733    22424614.9604   22424616.2644  117842148.299 7  91825062.13445
     -2055.110       -1601.380
 08  5  2 13 50  0.0000000  0 11G 2G 6G 7G10G13G16G21G24G25G27G29
  23832679.161    23832676.7224   23832678.1604  125241554.805 6  97590836.61642
     -3693.431       -2877.966
  23559718.620    23559717.3454   23559719.8244  123807157.451 6  96473132.44842
      2782.099        2167.881
  22637968.718    22637968.6114   22637969.4354  118963321.425 7  92698718.89744
      2120.081        1652.018
  21060619.077    21060618.1774   21060620.3424  110674305.280 8  86239731.57546
       504.125         392.838
  22370583.669    22370583.5644   22370584.2744  117558208.256 7  91603813.94143
     -2511.957       -1957.363
  22281947.816    22281947.1214   22281947.8814  117092437.383 7  91240867.67644
      -176.418        -137.465
  24064637.685    24064638.0224   24064638.1004  126460519.739 6  98540691.04942
      3432.250        2674.446
  21593382.258    21593382.1834   21593384.5534  113473991.811 8  88421307.77045
      1093.878         852.375
  22386648.527    22386648.5294   22386649.5384  117642638.992 7  91669603.39945
       351.927         274.236
  23176246.364    23176246.2064   23176248.7244  121792005.466 6  94902879.41843
      2125.036        1655.878
  22436390.687    22436391.2564   22436392.6844  117904034.493 7  91873285.18445
     -2071.457       -1614.116
 08  5  2 13 50 30.0000000  0 11G 2G 6G 7G10G13G16G21G24G25G27G29
  23853781.938    23853782.1854   23853782.3614  125352462.921 6  97677258.60542
     -3700.557       -2883.571
  23543870.024    23543870.0374   23543872.2934  123723872.510 6  96408235.12542
      2769.855        2158.318
  22625914.027    22625913.7384   22625914.7274  118899973.024 7  92649356.47644
      2102.984        1638.699
  21057800.163    21057799.5074   21057801.6914  110659492.252 8  86228188.95446
       483.141         376.478
  22384968.087    22384968.5734   22384969.5314  117633802.274 7  91662718.35943
     -2528.048       -1969.888
  22283012.703    22283012.3034   22283013.2404  117098034.301 7  91245228.92144
      -197.028        -153.511
  24045063.403    24045063.4224   24045063.0464  126357653.618 6  98460535.67142
      3425.469        2669.166
  21587189.597    21587189.2974   21587191.4574  113441447.691 8  88395948.72845
      1075.547         838.089
  22384693.446    22384693.0794   22384694.5244  117632364.720 7  91661597.48545
       332.789         259.323
  23164154.114    23164153.6604   23164155.9454  121728458.754 6  94853362.51143
      2111.139        1645.063
  22448261.628    22448262.0224   22448263.6694  117966415.917 7  91921894.11345
     -2087.488       -1626.590
 08  5  2 13 51  0.0000000  0 11G 2G 6G 7G10G13G16G21G24G25G27G29
  23874927.024    23874929.4084   23874929.0104  125463594.743 5  97763854.82442
     -3708.243       -2889.512
  23528093.034    23528092.1514   23528095.0414  123640964.373 6  96343631.42243
      2757.288        2148.529
  22613960.168    22613960.4254   22613961.2824  118837156.477 7  92600408.52244
      2084.840        1624.528
  21055104.104    21055103.0704   21055105.1394  110645322.394 8  86217147.52946
       461.403         359.523
  22399447.324    22399447.2544   22399447.9194  117709888.177 7  91722006.06143
     -2544.547       -1982.753
  22284197.415    22284197.1164   22284197.7744  117104261.041 7  91250080.92744
      -218.354        -170.152
  24025530.889    24025530.7644   24025531.4674  126255010.494 6  98380554.05842
      3417.646        2663.066
  21581104.281    21581103.8344   21581106.3984  113409469.346 8  88371030.51245
      1056.357         823.132
  22382850.047    22382849.8064   22382851.0394  117622676.837 7  91654048.50045
       312.918         243.822
  23152142.215    23152141.8814   23152143.8474  121665334.375 6  94804174.71343
      2096.879        1633.930
  22460227.204    22460226.9224   22460228.5644  118029292.298 7  91970888.71545
     -2104.322       -1639.736
 08  5  2 13 51 30.0000000  0 11G 2G 6G 7G10G13G16G21G24G25G27G29
  23896118.673    23896117.9264   23896117.4114  125574937.622 5  97850615.52442
     -3715.708       -2895.306
  23512386.218    23512385.8034   23512387.2514  123558425.129 6  96279315.11743
      2744.572        2138.547
  22602106.329    22602106.4874   22602107.3054  118774864.103 7  92551869.00844
      2067.222        1610.808
  21052528.250    21052527.1674   21052529.3524  110631785.893 8  86206599.63346
       440.175         342.991
  22414016.909    22414017.4794   22414017.9934  117786453.547 7  91781667.38543
     -2560.640       -1995.289
  22285500.651    22285500.1614   22285500.9434  117111107.389 7  91255415.73444
      -238.979        -186.220
  24006039.302    24006038.9464   24006039.3824  126152582.164 6  98300739.74242
      3410.164        2657.260
  21575124.653    21575124.6234   21575127.0844  113378047.858 8  88346546.22245
      1037.611         808.523
  22381115.976    22381116.0954   22381117.1814  117613565.804 7  91646949.01345
       293.591         228.777
  23140208.061    23140207.8834   23140210.1834  121602624.265 6  94755309.74743
      2082.838        1622.996
  22472284.255    22472284.1294   22472285.4384  118092651.467 7  92020259.48945
     -2120.668       -1652.466
 08  5  2 13 52  0.0000000  0 11G 2G 6G 7G10G13G16G21G24G25G27G29
  23917345.972    23917346.3934   23917347.1304  125686497.788 6  97937545.50642
     -3721.683       -2899.917
  23496752.671    23496752.2584   23496753.5544  123476266.038 6  96215295.06143
      2732.444        2129.174
  22590354.077    22590354.6494   22590355.1584  118713106.895 7  92503746.49544
      2049.805        1597.279
  21050074.418    21050073.5234   21050075.5774  110618891.462 8  86196552.01646
       419.440         326.854
  22428679.735    22428679.2134   22428680.7354  117863504.673 7  91841707.20443
     -2576.220       -2007.465
  22286922.737    22286922.3454   22286923.2494  117118581.573 7  91261239.73844
      -259.177        -201.954
  23986591.259    23986590.0884   23986590.7874  126050380.159 6  98221101.86542
      3403.457        2652.057
  21569253.567    21569253.2444   21569255.4794  113347192.928 8  88322503.37945
      1019.371         794.341
  22379493.722    22379493.8564   22379494.6814  117605040.539 7  91640305.98944
       274.744         214.100
  23128355.934    23128355.3774   23128357.5534  121540338.434 6  94706775.36543
      2069.411        1612.540
  22484433.724    22484434.2174   22484435.1674  118156499.884 7  92070011.45845
     -2136.128       -1664.502
 08  5  2 13 52 30.0000000  0 12G 2G 6G 7G 8G10G13G16G21G24G25G27G29
  23938617.327    23938616.1414   23938617.6664  125798269.923 6  98024640.61642
     -3729.751       -2906.288
  23481190.069    23481189.2924   23481192.9204  123394486.933 6  96151571.10143
      2719.212        2118.852
  22578704.117    22578704.3134   22578704.9344  118651884.158 7  92456040.57444
      2031.433        1582.911
  24973622.619                                   131237339.829 5
      3890.762
  21047742.474    21047741.6014   21047743.5284  110606637.574 8  86187003.53346
       397.403         309.645
  22443433.409    22443433.2184   22443434.1444  117941036.328 6  91902121.48943
     -2592.918       -2020.479
  22288463.937    22288463.6174   22288464.4614  117126680.785 7  91267550.80744
      -280.755        -218.781
  23967185.770    23967184.2414   23967185.9694  125948404.019 6  98141639.99442
      3394.820        2645.327
  21563489.271    21563489.1834   21563491.6184  113316903.140 8  88298901.02845
       999.827         779.076
  22377982.283    22377982.3564   22377983.7984  117597098.526 7  91634117.41345
       254.622         198.390
  23116584.257    23116584.2204   23116586.2664  121478476.518 6  94658571.29343
      2054.509        1600.897
  22496676.112    22496676.1834   22496677.8024  118220833.923 7  92120141.82945
     -2152.992       -1677.664
 08  5  2 13 53  0.0000000  0 12G 2G 6G 7G 8G10G13G16G21G24G25G27G29
  23959930.320    23959926.2484   23959925.8204  125910254.263 6  98111901.19442
     -3736.795       -2911.860
  23465700.471    23465700.6574   23465703.0324  123313092.664 6  96088146.97643
      2706.176        2108.694
  22567156.171    22567156.3334   22567156.9164  118591200.677 7  92408754.80344
      2013.208        1568.750
  24951428.156                                   131120681.043 5
      3885.864
  21045533.032    21045532.1494   21045534.1624  110595026.813 8  86177956.17346
       376.057         293.030
  22458278.789    22458278.9534   22458279.4294  118019048.822 7  91962910.41943
     -2608.901       -2032.911
  22290124.975    22290124.3714   22290125.3904  117135407.545 7  91274350.85344
      -301.590        -234.992
  23947823.628    23947823.7444   23947825.4214  125846658.740 6  98062358.01242
      3387.364        2639.494
  21557833.678    21557833.3284   21557835.6724  113287181.748 8  88275741.53745
       980.888         764.323
  22376582.590    22376582.4324   22376583.8744  117589742.636 7  91628385.54645
       235.063         183.168
  23104893.005    23104893.2524   23104895.5534  121417042.950 6  94610700.99744
      2040.258        1589.821
  22509010.856    22509011.4294   22509012.3704  118285653.850 7  92170650.79145
     -2169.050       -1690.161
 08  5  2 13 53 30.0000000  0 12G 2G 6G 7G 8G10G13G16G21G24G25G27G29
  23981279.871    23981277.1354   23981278.3754  126022453.162 6  98199328.80942
     -3744.135       -2917.507
  23450286.630    23450286.6564   23450288.7174  123232090.790 6  96025028.59343
      2692.488        2098.086
  22555712.261    22555712.8744   22555713.0054  118531063.182 7  92361894.43544
      1994.516        1554.192
  24929258.840    24929255.8134   24929258.9954  131004180.430 5 102081163.46741
      3879.913        3023.430
  21043446.858    21043446.1784   21043448.3294  110584064.693 8  86169414.24146
       353.890         275.784
  22473215.308    22473215.5414   22473216.0594  118097544.701 7  92024076.07443
     -2625.505       -2045.830
  22291905.733    22291905.1504   22291906.1234  117144766.462 7  91281643.49244
      -323.344        -251.946
  23928507.633    23928507.7154   23928507.8074  125745151.450 6  97983261.40042
      3378.958        2632.988
  21552287.417    21552286.8724   21552289.1324  113258034.731 8  88253029.63645
       961.122         748.937
  22375295.658    22375295.4234   22375296.5244  117582978.314 7  91623114.62145
       214.766         167.361
  23093286.237    23093285.5974   23093287.6664  121356044.557 6  94563169.81943
      2025.157        1578.054
  22521439.130    22521439.1004   22521440.3844  118350962.248 7  92221540.38845
     -2185.881       -1703.255
 08  5  2 13 54  0.0000000  0 12G 2G 6G 7G 8G10G13G16G21G24G25G27G29
  24002666.138    24002667.4314   24002666.7294  126134854.835 5  98286914.46942
     -3750.664       -2922.551
  23434945.537    23434945.6594   23434948.2664  123151474.512 6  95962210.74043
      2680.371        2088.603
  22544371.836    22544371.6874   22544372.0124  118471464.773 6  92315454.13944
      1977.143        1540.631
  24907114.689    24907116.1944   24907121.0624  130887831.544 5 101990501.99741
      3875.388        3019.718
  21041482.383    21041481.6794   21041483.7614  110573741.992 8  86161370.59846
       332.969         259.449
  22488242.464    22488242.8334   22488243.8054  118176512.005 7  92085609.01943
     -2640.387       -2057.433
  22293805.052    22293804.9274   22293805.1114  117154747.827 7  91289421.17344
      -343.549        -267.707
  23909236.391    23909235.2994   23909235.6894  125643875.625 6  97904345.17342
      3371.415        2627.096
  21546848.263    21546847.8744   21546850.2764  113229453.651 8  88230758.68445
       942.809         734.646
  22374118.612    22374119.1244   22374120.0794  117576796.340 7  91618297.49245
       195.921         152.665
  23081760.011    23081759.4394   23081761.2284  121295473.668 6  94515971.72243
      2011.544        1567.402
  22533957.712    22533958.1054   22533959.1834  118416748.118 7  92272802.04145
     -2201.313       -1715.306
 08  5  2 13 54 30.0000000  0 12G 2G 6G 7G 8G10G13G16G21G24G25G27G29
  24024095.856    24024096.6624   24024097.4744  126247471.523 5  98374667.65442
     -3757.401       -2927.785
  23419681.616    23419681.6924   23419683.8184  123071260.822 6  95899706.58243
      2667.325        2078.427
  22533135.685    22533136.1494   22533136.6164  118412422.463 7  92269447.17444
      1958.903        1526.425
  24885003.211    24885009.7664   24885013.7814  130771651.817 5 101899972.41641
      3870.115        3015.565
  21039643.006    21039642.1364   21039643.9814  110564074.294 8  86153837.29346
       311.495         242.708
  22503361.827    22503361.5164   22503362.4844  118255962.887 7  92147518.77943
     -2656.173       -2069.712
  22295825.407    22295825.2414   22295825.8634  117165366.153 7  91297695.17044
      -364.408        -283.963
  23890010.337    23890009.1334   23890009.9904  125542848.119 6  97825622.41342
      3363.646        2621.021
  21541520.396    21541519.9754   21541522.2004  113201454.470 8  88208941.09545
       923.767         719.800
  22373056.428    22373056.1584   22373057.3544  117571211.768 7  91613945.85845
       176.447         137.489
  23070317.781    23070317.6714   23070319.8354  121235347.157 6  94469119.89943
      1996.928        1556.029
  22546569.827    22546570.1444   22546570.9654  118483024.591 7  92324446.05144
     -2217.164       -1727.677
 08  5  2 13 55  0.0000000  0 12G 2G 6G 7G 8G10G13G16G21G24G25G27G29
  24045568.092    24045565.7784   24045564.9134  126360293.721 6  98462581.10442
     -3764.599       -2933.544
  23404493.121    23404493.5314   23404495.4054  122991445.075 6  95837512.50343
      2653.614        2067.741
  22522005.237    22522005.5414   22522005.7534  118353930.976 7  92223869.42744
      1940.124        1511.782
  24862932.649    24862932.5664   24862936.7754  130655637.145 5 101809571.32841
      3863.672        3010.750
  21037926.476    21037925.6874   21037927.7204  110555054.359 8  86146808.71746
       289.420         225.511
  22518570.385    22518571.3104   22518571.8684  118335887.828 7  92209797.94443
     -2672.453       -2082.459
  22297966.328    22297965.7284   22297966.2454  117176613.670 7  91306459.48544
      -385.903        -300.702
  23870832.111    23870831.5204   23870833.1944  125442064.612 6  97747089.74442
      3355.108        2614.382
  21536301.611    21536301.5034   21536303.6054  113174030.861 8  88187572.05045
       904.125         704.506
  22372106.271    22372105.7814   22372107.1194  117566217.400 7  91610054.11945
       156.294         121.777
  23058960.206    23058959.3024   23058961.3044  121175659.748 6  94422610.22444
      1981.920        1544.340
  22559273.414    22559273.4484   22559274.7504  118549782.006 7  92376464.80945
     -2233.586       -1740.458
 08  5  2 13 55 30.0000000  0 12G 2G 6G 7G 8G10G13G16G21G24G25G27G29
  24067073.661    24067074.2794   24067073.9914  126473324.376 6  98550656.92441
     -3770.917       -2938.370
  23389382.433    23389382.0674   23389383.4724  122912035.228 6  95775634.74443
      2640.276        2057.358
  22510981.208    22510981.1994   22510981.8914  118295998.298 7  92178727.12044
      1921.809        1497.538
  24840886.307    24840886.8144   24840890.3054  130539796.016 5 101719305.55841
      3858.587        3006.644
  21036334.472    21036333.6804   21036335.8034  110546688.371 8  86140289.73746
       267.935         208.786
  22533870.886    22533870.9124   22533872.1284  118416290.136 7  92272449.06543
     -2688.027       -2094.579
  22300227.224    22300226.8504   22300227.5584  117188496.064 7  91315718.51044
      -406.761        -316.950
  23851702.368    23851701.5974   23851702.1014  125341533.197 6  97668753.47242
      3346.879        2607.961
  21531194.122    21531193.7394   21531196.0504  113147189.563 8  88166656.73245
       884.958         689.586
  22371269.282    22371268.9894   22371270.0054  117561819.500 7  91606627.18345
       136.633         106.471
  23047686.407    23047686.3264   23047688.6154  121116418.890 6  94376448.49344
      1967.119        1532.826
  22572068.878    22572069.5554   22572070.4504  118617024.387 7  92428861.46044
     -2249.469       -1752.812
 08  5  2 13 56  0.0000000  0 12G 2G 6G 7G 8G10G13G16G21G24G25G27G29
  24088621.222    24088620.5954   24088621.0994  126586548.681 5  98638883.64541
     -3777.703       -2943.604
  23374346.021    23374346.8764   23374347.9054  122833021.515 6  95714065.66543
      2626.768        2046.829
  22500061.237    22500061.4264   22500061.4914  118238614.059 6  92134012.14544
      1903.145        1482.945
  24818871.873    24818874.8704   24818879.5774  130424119.148 5 101629167.79941
      3852.884        3002.267
  21034864.610    21034863.7914   21034865.8854  110538964.020 8  86134270.76246
       246.380         191.981
  22549259.288    22549259.3504   22549260.1074  118497154.894 6  92335460.52943
     -2703.617       -2106.738
  22302606.749    22302606.4154   22302607.2754  117201000.430 7  91325462.17444
      -427.642        -333.232
  23832618.043    23832617.4154   23832618.4384  125241244.029 6  97590606.03942
      3338.309        2601.303
  21526194.896    21526194.6154   21526196.7674  113120919.087 8  88146186.17845
       865.815         674.673
  22370543.178    22370543.3914   22370544.2524  117558005.644 7  91603655.34645
       116.937          91.122
  23036496.587    23036496.3844   23036498.5564  121057614.026 7  94330626.53744
      1952.406        1521.360
  22584954.060    22584954.4264   22584956.0324  118684737.109 7  92481624.56144
     -2265.295       -1765.165
 08  5  2 13 56 30.0000000  0 12G 2G 6G 7G 8G10G13G16G21G24G25G27G29
  24110202.916    24110202.7764   24110203.9324  126699961.228 5  98727256.95741
     -3783.879       -2948.355
  23359385.836    23359385.4894   23359387.6684  122754403.361 6  95652804.79743
      2613.528        2036.523
  22489245.547    22489246.0444   22489246.3764  118181777.640 7  92089724.02444
      1885.192        1468.988
  24796894.577    24796895.8304   24796896.2084  130308606.756 5 101539158.18341
      3846.947        2997.627
  21033516.298    21033515.6014   21033517.7114  110531878.937 8  86128749.92046
       225.044         175.359
  22564734.390    22564734.0654   22564735.1754  118578476.779 7  92398828.21743
     -2718.552       -2118.348
  22305104.035    22305103.3834   22305104.5364  117214123.444 7  91335687.93244
      -448.036        -349.101
  23813579.171    23813578.1854   23813578.7184  125141196.608 6  97512647.03542
      3330.793        2595.400
  21521304.250    21521303.8164   21521306.1994  113095217.845 8  88126159.23845
       846.900         659.916
  22369928.070    22369928.3094   22369929.3444  117554773.248 7  91601136.61945
        97.783          76.192
  23025389.151    23025389.1374   23025391.2324  120999244.136 6  94285143.51444
      1938.085        1510.214
  22597928.147    22597928.6604   22597929.6194  118752915.450 7  92534750.49144
     -2280.688       -1777.158
 08  5  2 13 57  0.0000000  0 12G 2G 6G 7G 8G10G13G16G21G24G25G27G29
  24131823.017    24131823.2754   24131823.0034  126813578.388 5  98815789.85441
     -3789.656       -2953.034
  23344504.458    23344504.4794   23344505.6434  122676201.818 6  95591868.53143
      2600.681        2026.496
  22478537.842    22478538.0784   22478538.9054  118125509.429 7  92045878.70844
      1866.915        1454.726
  24774945.620    24774947.9924   24774949.9784  130193279.993 5 101449293.23941
      3842.268        2993.951
  21032293.155    21032292.4684   21032294.4604  110525451.644 8  86123741.63746
       204.164         159.067
  22580299.944    22580299.0794   22580300.1514  118660271.861 7  92462564.62243
     -2733.557       -2130.050
  22307722.267    22307721.6754   22307722.7194  117227883.089 7  91346409.73144
      -468.422        -365.032
  23794590.070    23794589.6914   23794589.5294  125041411.740 6  97434892.62242
      3322.566        2589.008
  21516525.348    21516525.1614   21516527.3144  113070104.961 8  88106590.75246
       828.160         645.316
  22369427.497    22369427.1574   22369428.2174  117552140.918 7  91599085.46145
        78.610          61.252
  23014367.897    23014367.8774   23014369.9894  120941329.429 6  94240015.21844
      1923.810        1499.063
  22610994.327    22610994.2484   22610995.6674  118821575.824 7  92588252.04444
     -2295.892       -1789.030
 08  5  2 13 57 30.0000000  0 12G 2G 6G 7G 8G10G13G16G21G24G25G27G29
  24153479.033    24153478.0714   24153478.3584  126927374.747 5  98904462.27841
     -3796.624       -2958.372
  23329698.434    23329698.7594   23329699.5754  122598396.419 6  95531240.95843
      2586.426        2015.394
  22467935.062    22467934.9074   22467935.5884  118069788.895 7  92002460.14744
      1847.960        1439.984
  24753037.388    24753034.1794   24753034.9134  130078119.442 5 101359557.82241
      3835.664        2988.844
  21031190.934    21031190.1814   21031192.3424  110519659.544 8  86119228.30646
       182.126         141.911
  22595949.446    22595949.9664   22595950.3204  118742514.868 6  92526650.08943
     -2749.202       -2142.223
  22310457.567    22310457.0584   22310457.9854  117242256.459 7  91357609.75644
      -489.696        -381.584
  23775647.927    23775647.2164   23775647.9524  124941869.463 6  97357327.29042
      3313.615        2582.043
  21511854.434    21511854.1614   21511856.2644  113045558.657 8  88087463.73945
       808.392         629.908
  22369036.469    22369036.2764   22369037.4184  117550085.916 7  91597484.17345
        58.521          45.596
  23003430.588    23003429.8464   23003431.3524  120883849.114 7  94195225.37944
      1908.381        1487.035
  22624146.902    22624147.0154   22624148.0704  118890693.694 7  92642110.14744
     -2311.936       -1801.511
 08  5  2 13 58  0.0000000  0 12G 2G 6G 7G 8G10G13G16G21G24G25G27G29
  24175170.719    24175169.2034   24175168.3774  127041363.404 5  98993284.58941
     -3802.937       -2963.392
  23314971.609    23314971.6314   23314972.9134  122521005.262 6  95470936.13543
      2572.670        2004.678
  22457439.014    22457439.2894   22457439.9994  118014633.539 7  91959481.97144
      1828.906        1425.107
  24731155.487    24731154.3434   24731156.6574  129963143.332 5 101269966.09641
      3829.181        2983.786
  21030212.913    21030211.9944   21030213.9804  110514518.346 8  86115222.14346
       160.299         124.915
  22611687.737    22611687.6534   22611688.5874  118825218.940 6  92591094.81843
     -2764.559       -2154.206
  22313311.986    22313311.8254   22313312.7624  117257258.560 7  91369299.70044
      -510.697        -397.925
  23756755.509    23756754.1304   23756755.1184  124842587.722 6  97279964.92142
      3304.781        2575.162
  21507294.105    21507293.8634   21507296.3784  113021595.135 7  88068790.83546
       788.843         614.698
  22368758.208    22368758.1524   22368759.1094  117548624.276 7  91596345.24445
        38.619          30.097
  22992577.833    22992577.6784   22992579.3144  120826820.492 6  94150787.52944
      1893.320        1475.327
  22637389.267    22637389.1484   22637390.4724  118960282.286 7  92696335.00544
     -2327.529       -1813.648
 08  5  2 13 58 30.0000000  0 12G 2G 6G 7G 8G10G13G16G21G24G25G27G29
  24196895.281    24196896.8364   24196898.0864  127155543.891 5  99082256.35541
     -3809.380       -2968.340
  23300323.790    23300323.8394   23300325.8754  122444032.780 6  95410957.57443
      2558.260        1993.455
  22447051.989    22447051.7394   22447052.4774  117960047.612 7  91916947.45944
      1809.741        1410.183
  24709312.249    24709311.4574   24709313.2554  129848356.410 5 101180521.80541
      3822.852        2978.856
  21029358.860    21029357.9624   21029360.1094  110510030.968 8  86111725.46846
       138.407         107.848
  22627513.582    22627513.1494   22627513.8784  118908383.483 7  92655898.35743
     -2779.963       -2166.197
  22316286.743    22316286.7584   22316287.2274  117272890.911 7  91381480.73944
      -531.886        -414.443
  23737913.411    23737912.8884   23737912.6554  124743570.829 6  97202808.89642
      3295.917        2568.259
  21502845.408    21502845.3014   21502847.8084  112998217.714 8  88050574.70546
       769.238         599.410
  22368593.404    22368593.1074   22368594.4634  117547757.867 7  91595670.14045
        18.722          14.593
  22981812.931    22981812.1134   22981814.2414  120770247.670 7  94106704.89344
      1877.985        1463.363
  22650720.994    22650721.1614   22650722.2834  119030341.755 7  92750926.74344
     -2343.397       -1826.023
 08  5  2 13 59  0.0000000  0 12G 2G 6G 7G 8G10G13G16G21G24G25G27G29
  24218658.097    24218661.8424   24218660.2324  127269917.424 5  99171378.57241
     -3816.234       -2973.708
  23285757.673    23285757.3054   23285759.2694  122367484.884 6  95351309.85643
      2544.023        1982.336
  22436774.232    22436774.0134   22436774.8344  117906036.520 7  91874860.86644
      1790.556        1395.234
  24687505.630    24687505.9154   24687508.9074  129733765.459 5 101091230.18641
      3816.197        2973.638
  21028630.077    21028629.2704   21028631.2214  110506200.780 8  86108740.89846
       116.427          90.715
  22643427.018    22643427.0224   22643427.6954  118992009.831 7  92721061.73743
     -2795.460       -2178.286
  22319382.246    22319381.8164   22319382.4034  117289156.338 7  91394155.07044
      -552.929        -430.870
  23719121.874    23719121.5904   23719121.5954  124644825.011 6  97125864.11042
      3286.611        2560.973
  21498509.443    21498509.0894   21498511.3214  112975430.838 8  88032818.68846
       749.474         584.003
  22368542.597    22368542.2194   22368543.3024  117547490.317 7  91595461.66245
        -1.263          -0.991
  22971135.262    22971134.5584   22971136.2854  120714135.456 7  94062981.07944
      1862.417        1451.228
  22664142.729    22664143.1754   22664143.7194  119100873.707 7  92805886.70044
     -2359.274       -1838.405
 08  5  2 13 59 30.0000000  0 12G 2G 6G 7G 8G10G13G16G21G24G25G27G29
  24240468.129    24240460.8934   24240464.6884  127384473.689 5  99260643.02941
     -3821.892       -2978.102
  23271270.574    23271270.8064   23271272.8404  122291356.320 6  95291988.90142
      2530.198        1971.584
  22426603.946    22426604.0744   22426604.7944  117852594.541 7  91833217.71644
      1771.506        1380.364
  24665731.950    24665734.4634   24665737.0394  129619365.813 5 101002087.59641
      3810.024        2968.846
  21028024.819    21028024.0324   21028026.0554  110503020.083 8  86106262.39346
        94.865          73.923
  22659427.185    22659426.5754   22659427.6794  119076087.662 7  92786576.90843
     -2810.348       -2189.878
  22322596.566    22322596.3884   22322596.9054  117306047.080 7  91407316.68744
      -573.764        -447.093
  23700382.658    23700381.8244   23700382.1164  124546345.532 6  97049126.85342
      3277.734        2554.061
  21494284.228    21494284.0154   21494286.3314  112953227.548 8  88015517.41245
       730.021         568.845
  22368604.177    22368603.8794   22368604.8884  117547814.099 7  91595713.96745
       -20.922         -16.311
  22960543.152    22960543.3264   22960545.1474  120658478.086 7  94019611.69444
      1847.296        1439.433
  22677652.739    22677652.8314   22677653.7064  119171868.356 7  92861207.19444
     -2374.601       -1850.354
 08  5  2 14  0  0.0000000  0 12G 2G 6G 7G 8G10G13G16G21G24G25G27G29
  24262291.693    24262295.8284   24262295.5894  127499204.984 5  99350043.96141
     -3827.357       -2982.312
  23256863.167    23256862.8554   23256864.6934  122215643.327 6  95232991.75842
      2516.728        1961.061
  22416542.209    22416542.1494   22416542.9454  117799717.943 6  91792015.19044
      1753.093        1366.039
  24644001.378    24644001.0734   24644003.2414  129505154.692 5 100913091.94541
      3803.647        2963.924
  21027541.980    21027541.2404   21027543.3114  110500482.951 8  86104285.41046
        73.672          57.401
  22675509.978    22675510.7274   22675510.8454  119160608.468 6  92852437.27343
     -2824.736       -2201.097
  22325928.123    22325927.9204   22325929.0444  117323556.152 7  91420960.09344
      -594.015        -462.866
  23681692.568    23681692.2804   23681692.4924  124448128.713 6  96972594.33442
      3269.542        2547.696
  21490169.151    21490168.9794   21490171.3414  112931602.598 8  87998666.81245
       711.172         554.149
  22368776.679    22368776.6214   22368777.8684  117548722.977 7  91596422.18545
       -40.105         -31.247
  22950037.667    22950037.7634   22950039.5374  120603271.535 6  93976593.62744
      1832.626        1428.028
  22691248.763    22691249.1134   22691250.2424  119243317.451 7  92916881.75744
     -2389.194       -1861.726
 08  5  2 14  0 30.0000000  0 12G 2G 6G 7G 8G10G13G16G21G24G25G27G29
  24284158.306    24284157.7024   24284157.8894  127614096.546 5  99439569.83141
     -3832.758       -2986.621
  23242533.114    23242533.1674   23242534.3994  122140337.184 6  95174311.65943
      2502.609        1950.056
  22406585.178    22406585.9484   22406586.5644  117747397.043 7  91751245.68944
      1734.198        1351.314
  24622301.283    24622302.1384   24622305.3014  129391123.564 5 100824236.56741
      3797.808        2959.257
  21027179.500    21027178.7464   21027180.7814  110498578.137 8  86102801.13846
        52.332          40.787
  22691675.132    22691675.6964   22691676.4834  119245558.098 6  92918631.76343
     -2839.291       -2212.415
  22329375.227    22329374.9324   22329375.9774  117341671.908 7  91435076.26944
      -614.513        -478.832
  23663050.348    23663050.0824   23663050.3094  124350165.012 6  96896259.04042
      3260.674        2540.779
  21486162.137    21486161.7794   21486164.3144  112910545.164 8  87982258.41046
       691.911         539.145
  22369059.283    22369059.1354   22369060.2034  117550205.916 7  91597577.72745
       -59.494         -46.359
  22939616.660    22939616.4004   22939618.3144  120548506.245 6  93933919.39944
      1817.509        1416.230
  22704928.690    22704929.4374   22704930.5554  119315207.652 7  92972900.05944
     -2404.141       -1873.347
 08  5  2 14  1  0.0000000  0 12G 2G 6G 7G 8G10G13G16G21G24G25G27G29
  24306052.115    24306052.5374   24306055.4264  127729164.346 5  99529232.95441
     -3839.102       -2991.457
  23228283.969    23228283.8814   23228285.7804  122065458.196 6  95115964.37543
      2488.497        1939.073
  22396738.607    22396738.7514   22396739.6204  117695651.964 7  91710924.87944
      1714.600        1336.073
  24600641.463    24600641.8814   24600643.3124  129277293.384 5 100735537.81941
      3790.378        2953.550
  21026940.729    21026940.0604   21026941.8924  110497323.749 8  86101823.66446
        30.370          23.661
  22707925.344    22707925.7944   22707926.3774  119330952.573 6  92985172.88143
     -2854.481       -2224.284
  22332941.738    22332941.0314   22332942.1974  117360411.782 7  91449678.76544
      -635.718        -495.361
  23644460.948    23644459.5404   23644460.6734  124252475.031 6  96820136.98642
      3251.088        2533.299
  21482266.715    21482266.3104   21482268.8154  112890074.594 8  87966307.32946
       671.945         523.589
  22369454.071    22369453.9864   22369454.9944  117552280.952 7  91599194.65845
       -79.599         -62.019
  22929282.676    22929282.2574   22929284.2874  120494201.915 7  93891604.35044
      1801.861        1404.053
  22718696.862    22718696.7444   22718697.9684  119387555.133 7  93029274.66944
     -2419.914       -1885.644
 08  5  2 14  1 30.0000000  0 12G 2G 6G 7G 8G10G13G16G21G24G25G27G29
  24327984.866    24327984.7034   24327982.5924  127844407.294 5  99619032.65841
     -3843.992       -2995.381
  23214116.719    23214115.8934   23214118.6034  121991009.681 6  95057952.54343
      2475.009        1928.577
  22387002.161    22387002.4824   22387003.0324  117644485.422 7  91671054.86544
      1696.480        1321.937
  24579019.417    24579019.4404   24579021.2654  129163668.098 5 100646998.68541
      3784.378        2948.875
  21026826.164    21026825.3714   21026827.2754  110496721.106 8  86101354.04546
         9.745           7.584
  22724259.898    22724260.1974   22724261.1064  119416789.910 6  93052059.08643
     -2867.941       -2234.769
  22336627.066    22336626.1624   22336626.8244  117379776.012 7  91464767.78444
      -655.357        -510.672
  23625923.206    23625923.6654   23625923.3454  124155062.822 6  96744231.35142
      3242.730        2526.820
  21478483.217    21478483.0464   21478485.3554  112870192.377 8  87950814.68546
       653.458         509.177
  22369961.780    22369961.6004   22369963.0654  117554948.728 7  91601273.44945
       -98.171         -76.516
  22919037.130    22919036.4954   22919038.7184  120440361.185 7  93849650.58444
      1787.503        1392.848
  22732550.588    22732550.6914   22732551.6884  119460358.825 7  93086004.84544
     -2433.890       -1896.528
 08  5  2 14  2  0.0000000  0 12G 2G 6G 7G 8G10G13G16G21G24G25G27G29
  24349947.056    24349944.4704   24349947.7544  127959814.822 5  99708960.56341
     -3850.477       -3000.321
  23200030.418    23200030.4084   23200032.7534  121916986.517 6  95000272.14543
      2459.493        1916.499
  22377374.244    22377374.4454   22377375.4054  117593892.136 7  91631631.56144
      1675.987        1305.979
  24557435.907    24557434.2724   24557436.9864  129050243.093 5 100558615.55841
      3776.736        2942.940
  21026833.974    21026833.3234   21026835.3234  110496762.744 8  86101386.47046
       -13.132         -10.233
  22740676.611    22740677.2644   22740677.3244  119503060.253 6  93119282.68743
     -2883.898       -2247.201
  22340428.705    22340428.2964   22340428.9104  117399756.374 7  91480336.89844
      -677.177        -527.672
  23607438.165    23607438.2204   23607439.5464  124057922.886 6  96668537.86742
      3232.252        2518.660
  21474810.328    21474810.2204   21474812.3734  112850891.912 8  87935775.38546
       632.709         493.030
  22370580.910    22370580.7104   22370581.6034  117558201.957 7  91603808.41645
      -119.157         -92.850
  22908878.521    22908878.4654   22908880.0254  120386978.151 6  93808053.46444
      1770.939        1379.955
  22746489.368    22746489.7344   22746491.2284  119533608.384 7  93143082.38944
     -2449.995       -1909.079
 08  5  2 14  2 30.0000000  0 12G 2G 6G 7G 8G10G13G16G21G24G25G27G29
  24371940.445    24371935.3474   24371939.9674  128075387.909 5  99799017.36241
     -3855.693       -3004.454
  23186026.735    23186026.2254   23186028.5274  121843394.248 6  94942927.54943
      2445.457        1905.563
  22367856.692    22367856.9754   22367857.7204  117543877.109 7  91592658.81544
      1656.952        1291.137
  24535891.454    24535890.8494   24535892.2584  128937024.718 5 100470393.52241
      3769.824        2937.478
  21026965.044    21026964.3044   21026966.4424  110497451.393 8  86101923.09646
       -34.272         -26.711
  22757175.885    22757176.1004   22757177.4634  119589764.670 6  93186844.55343
     -2897.866       -2258.040
  22344348.673    22344348.0824   22344348.7464  117420355.622 7  91496388.26544
      -697.632        -543.607
  23589006.866    23589006.5464   23589006.7864  123961061.539 6  96593061.41942
      3223.398        2511.770
  21471249.054    21471248.9504   21471251.2434  112832176.731 8  87921192.11746
       613.529         478.085
  22371312.261    22371311.6464   22371312.8984  117562043.784 7  91606802.03145
      -138.385        -107.840
  22898808.077    22898807.8854   22898809.5614  120334057.864 7  93766816.86044
      1755.703        1368.098
  22760513.982    22760514.3124   22760515.0374  119607305.553 7  93200508.68544
     -2464.672       -1920.517
 08  5  2 14  3  0.0000000  0 12G 2G 6G 7G 8G10G13G16G21G24G25G27G29
  24393963.730    24393963.8234   24393964.5694  128191129.425 5  99889205.51341
     -3860.949       -3008.557
  23172105.569    23172105.5974   23172106.4074  121770240.226 6  94885924.41743
      2431.122        1894.395
  22358450.142    22358451.0384   22358451.4624  117494446.857 7  91554141.73244
      1637.806        1276.201
  24514385.610    24514386.6124   24514388.1794  128824020.703 5 100382338.42941
      3763.313        2932.461
  21027219.986    21027219.4394   21027221.5544  110498791.862 8  86102967.60346
       -55.633         -43.369
  22773758.687    22773758.3724   22773758.0414  119676904.962 6  93254746.06343
     -2912.032       -2269.127
  22348386.887    22348386.3504   22348387.5724  117441578.143 7  91512925.31744
      -717.846        -559.356
  23570628.792    23570627.7084   23570629.7654  123864485.913 6  96517807.65242
      3214.211        2504.572
  21467800.392    21467800.0004   21467802.3284  112814052.774 8  87907069.55346
       594.117         462.940
  22372155.728    22372155.9424   22372156.8784  117566479.108 7  91610258.15245
      -157.697        -122.879
  22888826.817    22888826.5054   22888828.5204  120281607.241 7  93725946.24544
      1740.331        1356.091
  22774623.554    22774624.0484   22774624.9914  119681453.401 7  93258286.21344
     -2479.174       -1931.836
 08  5  2 14  3 30.0000000  0 12G 2G 6G 7G 8G10G13G16G21G24G25G27G29
  24416021.550    24416020.3324   24416020.3264  128307040.186 5  99979525.44241
     -3865.701       -3012.126
  23158269.641    23158269.4274   23158271.7044  121697530.482 6  94829267.50943
      2416.950        1883.351
  22349156.868    22349156.9974   22349157.5854  117445607.424 7  91516085.04544
      1618.705        1261.325
  24492925.347    24492924.1474   24492926.3264  128711237.986 5 100294455.85441
      3756.096        2926.794
  21027599.916    21027599.3764   21027601.3224  110500788.267 8  86104523.21946
       -76.741         -59.796
  22790424.160    22790424.1164   22790425.1014  119764482.381 6  93322988.20043
     -2925.904       -2279.939
  22352544.447    22352544.5984   22352545.0954  117463426.627 7  91529950.12844
      -738.140        -575.169
  23552306.109    23552306.3034   23552307.2434  123768201.988 6  96442781.25342
      3205.061        2497.451
  21464464.675    21464464.3644   21464466.6344  112796524.381 8  87893411.04646
       575.040         448.079
  22373113.623    22373113.4114   22373114.4574  117571511.417 7  91614179.42945
      -177.042        -137.953
  22878936.410    22878936.1164   22878937.6944  120229631.349 7  93685445.54344
      1725.292        1344.356
  22788819.217    22788819.8184   22788820.8774  119756052.944 7  93316415.67144
     -2493.555       -1943.026
 08  5  2 14  4  0.0000000  0 11G 6G 7G 8G10G13G16G21G24G25G27G29
  23144517.163    23144516.8784   23144517.6544  121625260.194 6  94772953.03443
      2401.477        1871.280
  22339974.603    22339974.6794   22339975.0384  117397353.198 7  91478484.37444
      1598.634        1245.676
  24471502.885    24471502.6414   24471506.4934  128598672.343 5 100206742.37041
      3748.194        2920.710
  21028103.527    21028102.8114   21028104.8254  110503433.558 8  86106584.44346
       -99.093         -77.210
  22807170.401    22807169.9974   22807171.2444  119852487.339 6  93391563.47743
     -2940.679       -2291.434
  22356820.085    22356819.2524   22356820.1194  117485893.444 7  91547456.75244
      -759.301        -591.665
  23534038.842    23534038.9144   23534039.3524  123672205.450 6  96367978.80042
      3195.004        2489.602
  21461241.258    21461241.0274   21461243.3634  112779585.253 8  87880211.69646
       554.714         432.246
  22374183.368    22374183.1234   22374184.3184  117577133.594 7  91618560.35145
      -197.342        -153.782
  22869134.862    22869134.5914   22869136.8174  120178125.052 7  93645310.77244
      1708.868        1331.592
  22803099.338    22803099.3994   22803100.3854  119831095.126 6  93374890.11444
     -2508.872       -1954.965
 08  5  2 14  4 30.0000000  0 11G 6G 7G 8G10G13G16G21G24G25G27G29
  23130845.379    23130846.2544   23130847.3414  121553417.322 6  94716971.59743
      2387.358        1860.293
  22330900.801    22330901.2284   22330901.4144  117349672.110 7  91441330.28144
      1579.570        1230.825
  24450123.681    24450123.0654   24450123.3244  128486312.748 5 100119189.44142
      3741.628        2915.540
  21028727.795    21028726.9314   21028729.1884  110506713.257 8  86109140.02346
      -120.084         -93.571
  22823995.246    22823995.9304   22823996.6894  119940903.263 6  93460458.98343
     -2954.222       -2302.004
  22361209.424    22361209.4324   22361210.4134  117508963.666 7  91565433.53844
      -779.375        -607.290
  23515824.545    23515823.7804   23515824.3324  123576484.885 6  96293391.43442
      3185.827        2482.467
  21458127.499    21458127.0464   21458129.3804  112763221.481 8  87867460.67746
       535.610         417.352
  22375362.750    22375362.4614   22375363.9224  117583331.211 7  91623389.67345
      -216.475        -168.677
  22859420.458    22859420.1134   22859421.9024  120127075.653 6  93605532.05844
      1693.701        1319.752
  22817460.429    22817460.9084   22817461.9694  119906563.868 6  93433696.89244
     -2522.801       -1965.822
 08  5  2 14  5  0.0000000  0 11G 6G 7G 8G10G13G16G21G24G25G27G29
  23117257.953    23117257.2164   23117259.0334  121482012.357 6  94661331.37843
      2372.091        1848.359
  22321938.171    22321938.6304   22321939.2514  117302573.808 7  91404630.31744
      1559.596        1215.253
  24428781.821    24428783.2394   24428784.5964  128374170.275 5 100031805.75642
      3733.759        2909.436
  21029474.240    21029473.3094   21029475.3464  110510635.322 8  86112196.19546
      -142.117        -110.738
  22840900.063    22840899.2494   22840900.0404  120029735.517 6  93529678.90643
     -2968.528       -2313.163
  22365715.831    22365715.6774   22365716.8654  117532644.328 7  91583886.00044
      -800.084        -623.464
  23497663.513    23497663.1724   23497663.2154  123481050.540 6  96219027.06442
      3175.543        2474.431
  21455124.714    21455124.4964   21455126.5814  112747442.139 8  87855165.06746
       515.689         401.828
  22376652.891    22376653.0004   22376654.4634  117590112.226 7  91628673.58845
      -236.383        -184.201
  22849795.854    22849794.5474   22849796.5034  120076492.708 6  93566116.80444
      1677.643        1307.254
  22831903.895    22831904.3844   22831905.7194  119982464.915 6  93492840.56644
     -2537.854       -1977.553
 08  5  2 14  5 30.0000000  0 11G 6G 7G 8G10G13G16G21G24G25G27G29
  23103754.947    23103754.4584   23103755.6414  121411056.145 6  94606040.81343
      2357.749        1837.145
  22313088.750    22313089.1304   22313089.1504  117256068.459 7  91368392.36444
      1540.441        1200.346
  24407485.809    24407485.6844   24407488.3104  128262256.276 5  99944600.08842
      3726.814        2903.971
  21030344.046    21030343.5074   21030345.6454  110515208.223 8  86115759.51846
      -163.182        -127.153
  22857883.926    22857884.4674   22857885.1984  120118989.851 6  93599227.71243
     -2982.032       -2323.675
  22370340.045    22370339.8434   22370340.9404  117556943.292 7  91602820.29044
      -820.081        -639.049
  23479559.505    23479559.3864   23479558.7714  123385912.100 6  96144893.22142
      3166.272        2467.205
  21452235.015    21452234.8194   21452237.0314  112732256.457 8  87843332.05146
       496.372         386.779
  22378056.120    22378056.0714   22378057.1634  117597484.702 7  91634418.38345
      -255.431        -199.051
  22840260.598    22840259.7934   22840261.8144  120026386.371 7  93527072.92644
      1662.364        1295.387
  22846431.034    22846430.9754   22846432.8874  120058804.614 6  93552326.08844
     -2551.975       -1988.546
 08  5  2 14  6  0.0000000  0 11G 6G 7G 8G10G13G16G21G24G25G27G29
  23090337.309    23090338.3584   23090339.8254  121340549.700 6  94551100.75543
      2343.070        1825.761
  22304351.748    22304352.2574   22304352.3064  117210156.557 7  91332616.84944
      1520.895        1185.104
  24386232.840    24386232.1534   24386235.5694  128150572.592 5  99857573.87841
      3719.399        2898.219
  21031337.785    21031337.1704   21031339.1674  110520430.526 8  86119828.87646
      -184.582        -143.832
  22874948.452    22874948.6504   22874949.3014  120208662.478 6  93669102.47543
     -2995.668       -2334.266
  22375081.822    22375081.0064   22375081.3044  117581858.347 6  91622234.60444
      -840.450        -654.874
  23461511.814    23461510.9794   23461511.3784  123291072.315 6  96070992.06843
      3156.900        2459.944
  21449458.350    21449457.6954   21449460.1194  112717663.474 8  87831960.90846
       476.885         371.594
  22379571.472    22379570.9824   22379572.0744  117605447.300 7  91640623.01345
      -274.970        -214.264
  22830815.736    22830815.7604   22830817.8284  119976756.791 7  93488400.54644
      1646.727        1283.160
  22861040.566    22861040.9844   22861042.4394  120135579.201 7  93612150.43244
     -2566.060       -1999.533
 08  5  2 14  6 30.0000000  0 11G 6G 7G 8G10G13G16G21G24G25G27G29
  23077005.137    23077005.3174   23077007.5624  121270486.656 6  94496506.19743
      2327.477        1813.623
  22295726.671    22295727.3524   22295727.6844  117164831.607 7  91297298.73045
      1500.604        1169.303
  24365023.997    24365023.1214   24365025.2214  128039113.799 5  99770722.89342
      3711.080        2891.761
  21032453.598    21032452.8754   21032455.1014  110526293.276 8  86124397.25546
      -206.589        -160.979
  22892090.168    22892089.6724   22892091.0324  120298742.486 6  93739294.68443
     -3009.886       -2345.399
  22379937.941    22379938.0054   22379938.6864  117607380.423 7  91642121.93544
      -861.433        -671.233
  23443520.295    23443520.0854   23443520.0824  123196525.303 6  95997319.04943
      3146.267        2451.665
  21446792.341    21446791.9804   21446794.3074  112703655.049 8  87821045.26846
       456.779         355.942
  22381197.042    22381196.9504   22381198.0554  117613991.394 7  91647280.75445
      -294.911        -229.807
  22821461.357    22821461.1294   22821462.9614  119927597.268 6  93450094.42944
      1630.220        1270.295
  22875730.919    22875731.3944   22875733.3444  120212778.232 6  93672305.43744
     -2580.775       -2010.999
 08  5  2 14  7  0.0000000  0 11G 6G 7G 8G10G13G16G21G24G25G27G29
  23063759.532    23063759.6484   23063761.1974  121200878.280 6  94442265.91343
      2313.126        1802.441
  22287216.067    22287216.0344   22287216.1504  117120104.331 7  91262446.34945
      1481.380        1154.321
  24343858.572    24343857.4554   24343861.4314  127927891.460 5  99684056.17541
      3704.077        2886.278
  21033692.577    21033691.9434   21033694.0664  110532805.132 8  86129471.44046
      -227.447        -177.219
  22909310.797    22909310.6174   22909311.7444  120389236.235 6  93809809.28743
     -3022.898       -2355.469
  22384911.949    22384911.3074   22384912.3214  117633517.315 7  91662488.35144
      -881.102        -686.572
  23425586.024    23425585.8804   23425586.2424  123102282.425 6  95923883.04043
      3136.747        2444.195
  21444239.758    21444239.4314   21444241.7594  112690240.964 8  87810592.74046
       437.647         341.017
  22382935.207    22382935.1554   22382936.3894  117623125.590 7  91654398.31045
      -313.953        -244.633
  22812197.498    22812197.3504   22812199.3334  119878918.404 7  93412162.85544
      1614.969        1258.431
  22890503.455    22890503.8574   22890505.3064  120290408.482 6  93732796.56044
     -2594.388       -2021.586
 08  5  2 14  7 30.0000000  0 11G 6G 7G 8G10G13G16G21G24G25G27G29
  23050598.863    23050598.8554   23050600.3614  121131718.641 6  94388375.29043
      2297.425        1790.198
  22278816.614    22278816.6184   22278817.3684  117075967.657 7  91228054.16745
      1460.908        1138.360
  24322737.857    24322737.2344   24322739.9454  127816900.501 5  99597569.77642
      3695.393        2879.521
  21035053.829    21035053.2164   21035055.0874  110539958.170 8  86135045.25146
      -249.535        -194.448
  22926607.453    22926608.0244   22926607.4954  120480132.779 6  93880637.74342
     -3036.882       -2366.373
  22390000.734    22390000.1144   22390001.1914  117660259.897 7  91683326.72144
      -901.899        -702.781
  23407708.773    23407708.4364   23407708.9474  123008336.688 6  95850678.57843
      3125.921        2435.787
  21441798.699    21441798.3404   21441800.7954  112677413.330 8  87800597.14946
       417.429         325.259
  22384784.013    22384783.9604   22384785.3294  117632841.377 7  91661969.05145
      -333.878        -260.169
  22803024.512    22803024.6434   22803026.1714  119830713.303 7  93374600.45844
      1598.525        1245.578
  22905356.455    22905356.2304   22905358.3844  120368459.715 6  93793615.85544
     -2609.194       -2033.173
 08  5  2 14  8  0.0000000  0 11G 6G 7G 8G10G13G16G21G24G25G27G29
  23037524.707    23037524.6904   23037526.9584  121063013.635 6  94334838.94643
      2282.336        1778.460
  22270531.043    22270531.7314   22270531.6954  117032427.296 7  91194126.64245
      1441.179        1122.992
  24301660.353    24301662.4464   24301664.7204  127706147.901 5  99511269.07642
      3687.976        2873.709
  21036537.670    21036537.0304   21036538.9814  110547755.811 8  86141121.33046
      -270.874        -211.065
  22943980.952    22943981.2894   22943982.5164  120571433.261 6  93951780.94542
     -3050.453       -2376.985
  22395205.736    22395205.2794   22395205.8164  117687611.376 7  91704639.56744
      -922.172        -718.581
  23389888.971    23389888.8414   23389890.0754  122914695.793 6  95777711.67243
      3115.903        2427.960
  21439470.058    21439469.7364   21439472.1834  112665176.578 8  87791061.97546
       397.802         309.975
  22386744.320    22386744.1384   22386745.2564  117643142.150 7  91669995.62445
      -353.364        -275.361
  22793942.919    22793942.5794   22793944.2304  119782987.446 7  93337411.48444
      1582.682        1233.254
  22920289.305    22920289.4734   22920290.9514  120446932.887 6  93854763.77044
     -2623.098       -2043.978
 08  5  2 14  8 30.0000000  0 11G 6G 7G 8G10G13G16G21G24G25G27G29
  23024540.589    23024540.1144   23024542.9704  120994780.555 6  94281670.32643
      2267.223        1766.681
  22262362.608    22262362.7314   22262363.0324  116989499.808 7  91160676.64344
      1421.394        1107.586
  24280635.865    24280635.7054   24280638.8324  127595651.408 5  99425167.89742
      3679.634        2867.213
  21038146.753    21038145.9954   21038148.0874  110556211.842 8  86147710.44646
      -292.170        -227.671
  22961434.934    22961434.3884   22961435.8574  120663149.799 6  94023248.36642
     -3063.537       -2387.153
  22400528.714    22400528.6144   22400528.8814  117715585.258 7  91726437.39044
      -942.085        -734.077
  23372131.792    23372131.1534   23372132.3434  122821376.545 6  95704995.42143
      3106.080        2420.321
  21437257.082    21437256.7384   21437259.1194  112653546.266 8  87781999.41846
       378.310         294.801
  22388818.488    22388818.3094   22388819.6994  117654042.390 7  91678489.33245
      -372.713        -290.419
  22784955.408    22784954.5844   22784956.5094  119735757.020 7  93300608.55944
      1566.808        1220.872
  22935305.142    22935305.6024   22935306.2744  120525840.834 7  93916250.52644
     -2636.679       -2054.557
 08  5  2 14  9  0.0000000  0 11G 6G 7G 8G10G13G16G21G24G25G27G29
  23011641.228    23011641.4734   23011642.7444  120926995.965 6  94228851.17043
      2251.007        1754.059
  22254305.826    22254305.8204   22254306.8944  116947161.509 7  91127685.75445
      1400.336        1091.173
  24259653.020    24259652.7454   24259654.5374  127485388.770 5  99339248.93842
      3670.156        2859.833
  21039876.436    21039875.7124   21039877.9224  110565301.145 8  86154793.02246
      -314.569        -245.120
  22978961.828    22978961.9764   22978962.7494  120755254.769 6  94095018.44442
     -3077.494       -2398.028
  22405965.498    22405965.4754   22405966.1554  117744155.653 7  91748700.03144
      -963.308        -750.640
  23354430.166    23354429.6474   23354430.4854  122728355.951 6  95632511.84843
      3094.511        2411.328
  21435154.385    21435154.0684   21435156.3844  112642497.472 8  87773390.04446
       357.586         278.639
  22391002.156    22391001.9614   22391003.1094  117665516.665 7  91687430.33845
      -393.043        -306.256
  22776057.573    22776057.1214   22776058.7164  119688998.648 7  93264173.48244
      1549.680        1207.532
  22950398.266    22950398.6234   22950399.4064  120605156.314 6  93978054.78744
     -2651.661       -2066.241
 08  5  2 14  9 30.0000000  0 11G 6G 7G 8G10G13G16G21G24G25G27G29
  22998830.635    22998830.8114   22998833.1684  120859674.348 6  94176392.78743
      2236.768        1742.903
  22246363.687    22246363.8204   22246364.6394  116905425.940 7  91095164.53345
      1381.469        1076.456
  24238717.284    24238717.4764   24238720.7384  127375374.744 5  99253523.74142
      3663.236        2854.487
  21041729.030    21041728.0994   21041730.0734  110575035.343 8  86162378.12846
      -334.837        -260.907
  22996564.007    22996564.3684   22996565.7144  120847757.666 6  94167098.62442
     -3089.731       -2407.595
  22411518.140    22411517.8224   22411518.1204  117773333.018 7  91771435.63944
      -982.310        -765.442
  23336788.919    23336787.7614   23336788.7584  122635648.067 6  95560271.93143
      3085.247        2404.109
  21433164.811    21433164.5114   21433166.7464  112632042.085 8  87765242.97546
       339.026         264.190
  22393297.287    22393296.6944   22393297.9194  117677576.428 7  91696827.56145
      -411.305        -320.494
  22767251.845    22767251.6554   22767253.6944  119642725.738 7  93228116.69944
      1534.728        1195.886
  22965571.794    22965571.0144   22965572.3794  120684888.504 7  94040183.67544
     -2664.443       -2076.177
 08  5  2 14 10  0.0000000  0 11G 6G 7G 8G10G13G16G21G24G25G27G29
  22986106.535    22986106.2694   22986108.6204  120792809.467 6  94124290.29543
      2221.143        1730.750
  22238534.904    22238535.3584   22238535.9764  116864286.593 7  91063107.92245
      1361.350        1060.809
  24217828.922    24217829.0214   24217831.2964  127265604.240 5  99167988.28042
      3654.799        2847.923
  21043702.244    21043701.6404   21043703.4794  110585405.771 8  86170458.99346
      -356.506        -277.792
  23014239.578    23014240.7244   23014242.0794  120940646.980 6  94239479.87542
     -3102.967       -2417.875
  22417184.012    22417183.5354   22417184.3314  117803108.437 7  91794637.26644
     -1002.738        -781.363
  23319205.614    23319204.8424   23319205.7464  122543247.994 6  95488271.90443
      3074.636        2395.828
  21431287.084    21431286.5034   21431288.7824  112622172.871 8  87757552.74146
       319.098         248.650
  22395701.635    22395701.3054   22395702.5634  117690213.207 7  91706674.40745
      -431.075        -335.889
  22758536.917    22758537.1324   22758538.9424  119596931.459 7  93192432.84844
      1518.319        1183.123
  22980821.369    22980821.0684   22980822.2194  120765027.532 6  94102629.63544
     -2678.232       -2086.927
 08  5  2 14 10 30.0000000  0 11G 6G 7G 8G10G13G16G21G24G25G27G29
  22973470.195    22973469.5754   22973472.1154  120726403.339 6  94072545.29043
      2205.880        1718.872
  22230820.299    22230820.5664   22230821.1134  116823744.868 7  91031516.98645
      1341.228        1045.115
  24196988.030    24196987.4714   24196989.6504  127156080.499 5  99082645.10342
      3646.276        2841.251
  21045796.666    21045795.8554   21045797.8614  110596412.066 8  86179035.32246
      -377.580        -294.221
  23031989.952    23031989.7574   23031991.3974  121033920.093 6  94312160.19442
     -3115.696       -2427.863
  22422963.872    22422963.2194   22422963.6694  117833480.813 7  91818304.05844
     -1022.382        -796.659
  23301680.933    23301680.3864   23301681.2584  122451157.859 6  95416513.38043
      3064.308        2387.757
  21429520.144    21429519.8954   21429522.3074  112612889.537 8  87750318.98146
       299.508         233.393
  22398216.003    22398215.7624   22398216.8564  117703426.195 7  91716970.23045
      -450.198        -350.811
  22749914.463    22749913.9954   22749915.9544  119551617.016 7  93157122.89744
      1502.284        1170.614
  22996147.539    22996147.6494   22996148.9654  120845570.760 6  94165390.62944
     -2691.713       -2097.437
 08  5  2 14 11  0.0000000  0 11G 6G 7G 8G10G13G16G21G24G25G27G29
  22960922.397    22960922.4994   22960924.7084  120660465.730 6  94021165.36143
      2190.329        1706.754
  22223220.754    22223220.9684   22223221.6514  116783809.405 7  91000398.46445
      1321.316        1029.593
  24176195.808    24176193.6104   24176196.2914  127046813.513 5  98997502.01842
      3638.106        2834.854
  21048013.663    21048012.8054   21048014.9724  110608061.743 8  86188112.99146
      -398.810        -310.774
  23049813.358    23049813.2434   23049814.6384  121127582.156 6  94385143.61342
     -3128.448       -2437.760
  22428858.336    22428857.7024   22428858.4774  117864456.335 7  91842440.83844
     -1042.440        -812.322
  23284217.734    23284218.0954   23284218.0714  122359387.273 6  95345003.84743
      3053.862        2379.624
  21427866.851    21427866.3414   21427868.7224  112604200.001 8  87743547.84546
       280.053         218.216
  22400841.068    22400841.0334   22400842.3494  117717222.531 7  91727720.62645
      -469.418        -365.789
  22741384.625    22741384.1024   22741385.9084  119506791.231 7  93122193.71744
      1486.181        1158.058
  23011552.565    23011552.3654   23011553.8454  120926523.095 6  94228470.39344
     -2704.943       -2107.746
 08  5  2 14 11 30.0000000  0 11G 6G 7G 8G10G13G16G21G24G25G27G29
  22948466.671    22948465.9804   22948467.9694  120595009.372 6  93970160.41543
      2173.671        1693.772
  22215738.865    22215739.0484   22215740.0434  116744492.524 7  90969761.94345
      1300.158        1013.104
  24155454.065    24155452.0484   24155455.5364  126937816.793 5  98912569.52242
      3628.377        2827.312
  21050354.733    21050353.8924   21050355.7874  110620364.187 8  86197699.31646
      -421.056        -328.098
  23067712.080    23067711.6344   23067713.3064  121221641.198 6  94458436.37642
     -3141.809       -2448.144
  22434869.459    22434869.0634   22434869.3044  117896044.660 7  91867055.11744
     -1063.254        -828.518
  23266818.039    23266817.2214   23266817.7774  122267949.466 6  95273753.62243
      3042.379        2370.681
  21426328.384    21426327.8994   21426330.3074  112596115.638 8  87737248.31346
       259.351         202.094
  22403579.499    22403579.6024   22403580.5634  117731612.470 7  91738933.57245
      -489.572        -381.478
  22732949.688    22732949.4364   22732951.3154  119462466.308 7  93087654.82144
      1469.173        1144.820
  23027036.321    23027036.4524   23027038.4534  121007892.925 6  94291875.39144
     -2719.338       -2118.963
 08  5  2 14 12  0.0000000  0 11G 6G 7G 8G10G13G16G21G24G25G27G29
  22936100.096    22936100.2444   22936102.1644  120530022.603 6  93919521.39443
      2158.801        1682.161
  22208372.530    22208372.8504   22208373.6204  116705782.057 7  90939597.95645
      1280.600         997.870
  24134761.699    24134761.4974   24134762.7954  126829079.727 5  98827839.35742
      3620.181        2820.860
  21052817.233    21052816.5364   21052818.3624  110633305.429 8  86207783.41246
      -441.734        -344.218
  23085682.692    23085683.3924   23085684.2204  121316080.390 6  94532025.31642
     -3153.944       -2457.604
  22440993.845    22440993.6614   22440994.5914  117928230.778 7  91892135.22244
     -1082.576        -843.584
  23249479.344    23249478.7944   23249478.9954  122176833.036 6  95202753.80043
      3032.115        2362.669
  21424902.519    21424902.0634   21424904.6494  112588622.970 8  87731409.89345
       240.215         187.178
  22406428.174    22406427.9634   22406429.1944  117746581.917 7  91750598.06845
      -508.251        -396.034
  22724607.604    22724607.7784   22724609.4004  119418630.180 7  93053496.81844
      1453.215        1132.344
  23042597.078    23042597.4144   23042599.0674  121089664.124 6  94355593.03144
     -2732.275       -2129.031
 08  5  2 14 12 30.0000000  0 11G 6G 7G 8G10G13G16G21G24G25G27G29
  22923822.477    22923822.3634   22923824.0854  120465503.919 6  93869247.11243
      2143.178        1669.999
  22201120.956    22201121.3154   22201121.9154  116667675.915 7  90909904.86645
      1260.462         982.172
  24114118.418    24114118.4524   24114120.4804  126720601.950 5  98743311.26342
      3612.071        2814.628
  21055400.819    21055399.9164   21055401.9754  110646881.279 8  86218362.01946
      -462.730        -360.575
  23103724.924    23103724.5594   23103727.0694  121410893.623 6  94605905.77742
     -3166.268       -2467.218
  22447231.927    22447231.4344   22447232.1674  117961010.281 7  91917677.69844
     -1102.113        -858.783
  23232200.947    23232200.9254   23232201.0514  122086037.112 6  95132003.73143
      3021.643        2354.527
  21423588.619    21423588.3864   21423590.8974  112581718.482 8  87726029.72346
       220.805         172.066
  22409386.252    22409386.0774   22409387.0614  117762126.446 7  91762710.67945
      -527.164        -410.784
  22716358.830    22716358.4254   22716360.0624  119375280.499 7  93019717.86944
      1437.396        1120.035
  23058233.445    23058233.3714   23058234.8754  121171831.303 6  94419619.40644
     -2744.863       -2138.865
 08  5  2 14 13  0.0000000  0 11G 6G 7G 8G10G13G16G21G24G25G27G29
  22911634.399    22911634.9974   22911636.6454  120401456.191 6  93819339.81243
      2127.098        1657.492
  22193985.566    22193985.3414   22193986.3374  116630176.051 7  90880684.21145
      1239.788         966.067
  24093526.496    24093526.3014   24093527.6864  126612386.942 5  98658987.89142
      3602.661        2807.281
  21058104.855    21058104.0654   21058106.1584  110661092.416 8  86229435.65346
      -484.437        -377.481
  23121839.241    23121839.1764   23121840.4514  121506078.839 6  94680076.04642
     -3179.057       -2477.185
  22453582.616    22453581.5764   22453582.8664  117994382.465 7  91943681.99944
     -1122.511        -874.675
  23214984.385    23214984.2084   23214984.7764  121995564.984 6  95061505.98543
      3010.120        2345.530
  21422386.891    21422386.4904   21422388.9264  112575403.183 8  87721108.67546
       200.539         156.250
  22412453.792    22412453.6604   22412454.7464  117778246.213 7  91775271.54544
      -546.972        -426.230
  22708202.346    22708201.9694   22708203.9204  119332419.057 7  92986319.37144
      1420.487        1106.876
  23073944.171    23073944.2034   23073945.9144  121254392.503 6  94483952.69744
     -2758.697       -2149.605
 08  5  2 14 13 30.0000000  0 11G 6G 7G 8G10G13G16G21G24G25G27G29
  22899536.170    22899536.1414   22899537.6664  120337880.028 6  93769799.97343
      2111.434        1645.271
  22186964.818    22186964.8314   22186965.3674  116593282.673 7  90851936.12345
      1219.786         950.487
  24072983.727    24072983.4574   24072985.3724  126504436.379 5  98574870.59142
      3593.889        2800.412
  21060929.586    21060928.7744   21060931.0644  110675936.139 8  86241002.21546
      -505.234        -393.683
  23140021.837    23140022.4294   23140023.8684  121601632.275 5  94754533.24742
     -3191.094       -2486.594
  22460044.841    22460044.8364   22460045.7954  118028344.890 7  91970146.22044
     -1141.859        -889.769
  23197830.312    23197829.5474   23197830.1524  121905416.935 6  94991260.74443
      2999.653        2337.386
  21421296.886    21421296.7654   21421299.0034  112569676.251 8  87716646.11046
       181.136         141.151
  22415630.352    22415630.1694   22415631.2774  117794939.508 7  91788279.31144
      -565.819        -440.895
  22700139.532    22700138.8424   22700140.3514  119290045.855 7  92953301.32844
      1404.193        1094.163
  23089728.949    23089729.0414   23089731.2854  121337344.118 6  94548590.29844
     -2771.563       -2159.672
 08  5  2 14 14  0.0000000  0 11G 6G 7G 8G10G13G16G21G24G25G27G29
  22887527.046    22887526.5224   22887528.2474  120274768.580 6  93720622.24643
      2095.554        1632.910
  22180058.313    22180058.3314   22180058.8394  116556988.185 7  90823654.70845
      1199.607         934.733
  24052489.808    24052489.5274   24052492.4564  126396744.110 5  98490954.50842
      3585.290        2793.750
  21063872.813    21063872.0664   21063874.1614  110691403.603 8  86253054.80546
      -526.315        -410.138
  23158272.660    23158272.8184   23158274.3894  121697542.115 6  94829268.14342
     -3203.381       -2496.132
  22466618.373    22466618.1134   22466618.5174  118062887.395 7  91997062.45244
     -1161.372        -904.968
  23180736.331    23180735.7094   23180736.5344  121815586.911 7  94921263.32143
      2988.648        2328.803
  21420317.389    21420317.1854   21420319.7114  112564528.971 8  87712635.23146
       161.474         125.807
  22418914.177    22418913.9564   22418915.3264  117812196.529 7  91801726.35645
      -584.985        -455.850
  22692167.114    22692167.0664   22692168.4764  119248153.535 7  92920657.98844
      1388.162        1081.663
  23105586.182    23105586.4114   23105588.3024  121420674.840 6  94613523.34344
     -2784.396       -2169.669
 08  5  2 14 14 30.0000000  0 11G 6G 7G 8G10G13G16G21G24G25G27G29
  22875608.032    22875607.4464   22875609.8874  120212133.842 6  93671815.96643
      2080.588        1621.230
  22173267.192    22173267.8674   22173268.1084  116521303.534 7  90795848.47245
      1179.929         919.403
  24032049.699    24032048.9384   24032051.7344  126289323.153 5  98407249.89542
      3576.920        2787.193
  21066936.482    21066935.9074   21066937.8704  110707503.802 8  86265600.43346
      -546.537        -425.890
  23176593.289    23176591.8814   23176594.9184  121793815.581 5  94904286.39142
     -3214.489       -2504.821
  22473303.862    22473303.0174   22473303.6904  118098018.509 6  92024437.36544
     -1180.163        -919.597
  23163705.081    23163703.7714   23163704.5014  121726086.763 6  94851522.93043
      2978.583        2320.962
  21419450.326    21419449.9694   21419452.4274  112559971.065 8  87709083.53346
       142.900         111.352
  22422307.322    22422307.1504   22422308.0044  117830026.815 7  91815620.07544
      -603.202        -470.039
  22684289.240    22684288.4874   22684290.4204  119206753.444 7  92888398.19944
      1372.489        1069.472
  23121517.018    23121517.1754   23121519.3124  121504392.198 6  94678757.67444
     -2796.552       -2179.154
 08  5  2 14 15  0.0000000  0 11G 6G 7G 8G10G13G16G21G24G25G27G29
  22863779.139    22863778.8044   22863781.2984  120149974.682 6  93623380.27543
      2063.550        1607.965
  22166592.679    22166592.9324   22166593.6394  116486227.151 7  90768516.22445
      1158.552         902.769
  24011659.383    24011658.3814   24011661.4874  126182173.379 5  98323756.61342
      3566.647        2779.243
  21070120.150    21070119.4784   21070121.5354  110724233.262 8  86278636.39746
      -568.564        -443.040
  23194981.827    23194982.1744   23194983.1054  121890446.874 6  94979583.45942
     -3227.587       -2515.043
  22480100.066    22480099.5794   22480100.4804  118133734.065 7  92052267.66644
     -1200.734        -935.629
  23146735.956    23146735.5304   23146736.6644  121636916.415 7  94782039.52143
      2966.381        2311.463
  21418694.663    21418694.1994   21418696.7024  112555999.812 8  87705989.06146
       122.002          95.062
  22425808.421    22425808.3154   22425809.6354  117848426.598 7  91829957.55545
      -623.254        -485.650
  22676504.296    22676503.8234   22676505.4054  119165843.862 7  92856520.62844
      1354.880        1055.752
  23137520.581    23137520.4954   23137522.4724  121588490.722 6  94744289.02544
     -2810.040       -2189.632
 08  5  2 14 15 30.0000000  0 11G 6G 7G 8G10G13G16G21G24G25G27G29
  22852045.953    22852045.6994   22852047.7944  120088316.665 6  93575335.06843
      2047.310        1595.307
  22160038.517    22160038.9044   22160039.1714  116451784.171 7  90741677.54045
      1138.090         886.843
  23991327.115    23991326.3154   23991329.1584  126075321.593 5  98240495.48642
      3557.247        2771.880
  21073427.790    21073427.0164   21073428.9644  110741614.910 8  86292180.54846
      -589.759        -459.547
  23213441.539    23213441.3884   23213442.9994  121987457.049 5  95055175.78142
     -3239.351       -2524.169
  22487012.080    22487011.5754   22487012.2054  118170056.246 7  92080570.66144
     -1220.356        -950.908
  23129835.930    23129834.8694   23129835.3504  121548101.949 7  94712833.39343
      2955.027        2302.627
  21418054.779    21418054.7324   21418057.2554  112552638.946 8  87703370.13446
       102.164          79.622
  22429422.511    22429422.5964   22429423.8724  117867418.803 7  91844756.65645
      -642.584        -500.687
  22668817.594    22668816.6774   22668818.7994  119125449.539 7  92825044.56544
      1338.448        1042.956
  23153601.219    23153601.1044   23153602.1064  121672991.699 6  94810134.00644
     -2823.018       -2199.744
 08  5  2 14 16  0.0000000  0 11G 6G 7G 8G10G13G16G21G24G25G27G29
  22840403.773    22840403.7514   22840405.5954  120027137.024 6  93527662.64543
      2030.907        1582.523
  22153600.092    22153600.3274   22153600.9894  116417950.680 7  90715313.78545
      1117.214         870.556
  23971044.932    23971044.4684   23971046.3154  125968745.541 5  98157449.22242
      3547.454        2764.205
  21076854.692    21076853.7344   21076855.8954  110759622.712 8  86306212.60946
      -611.092        -476.182
  23231968.761    23231968.8524   23231970.1124  122084818.358 5  95131041.69942
     -3251.406       -2533.550
  22494034.221    22494033.9484   22494034.3504  118206958.587 7  92109325.72944
     -1240.039        -966.292
  23112998.451    23112997.9304   23112997.9424  121459620.410 6  94643886.75143
      2943.294        2293.458
  21417527.124    21417526.6414   21417529.2434  112549863.951 8  87701207.78646
        82.437          64.236
  22433144.798    22433144.5314   22433145.6554  117886977.768 7  91859997.38345
      -661.684        -515.591
  22661224.037    22661223.8254   22661225.4694  119085546.479 7  92793951.28744
      1321.583        1029.829
  23169751.721    23169752.5434   23169753.2554  121757867.518 6  94876271.04844
     -2835.749       -2209.677
 08  5  2 14 16 30.0000000  0 11G 6G 7G 8G10G13G16G21G24G25G27G29
  22828855.907    22828855.7704   22828857.3864  119966450.055 6  93480374.13143
      2014.286        1569.557
  22147280.447    22147280.7354   22147281.5084  116384740.393 7  90689435.66045
      1096.245         854.195
  23950819.906    23950818.8704   23950821.4724  125862460.493 5  98074629.72142
      3537.564        2756.530
  21080402.890    21080402.1054   21080404.1224  110778269.011 8  86320742.20446
      -632.447        -492.829
  23250565.808    23250565.6374   23250566.3164  122182540.396 6  95207188.71242
     -3263.540       -2543.036
  22501169.348    22501168.8854   22501169.3424  118244452.595 7  92138541.82544
     -1259.922        -981.776
  23096227.087    23096226.0474   23096226.3094  121371486.845 6  94575211.25343
      2931.627        2284.374
  21417112.721    21417112.4974   21417115.0474  112547687.093 8  87699511.54546
        62.270          48.507
  22436976.728    22436976.4464   22436977.7884  117907115.317 7  91875688.98045
      -681.214        -530.822
  22653726.571    22653726.4444   22653728.4704  119046148.440 7  92763251.53144
      1304.479        1016.471
  23185976.914    23185977.1264   23185978.2404  121843128.443 6  94942708.16344
     -2848.778       -2219.858
 08  5  2 14 17  0.0000000  0 11G 6G 7G 8G10G13G16G21G24G25G27G29
  22817399.048    22817399.1404   22817400.7134  119906247.152 7  93433462.78843
      1998.052        1556.914
  22141077.467    22141077.6574   22141078.1994  116352143.788 7  90664035.71145
      1075.829         838.306
  23930648.796    23930648.5314   23930650.7184  125756458.777 5  97992031.02242
      3528.321        2749.301
  21084070.112    21084069.4824   21084071.5164  110797541.719 8  86335759.90746
      -653.384        -509.131
  23269226.966    23269226.9664   23269227.9674  122280609.621 5  95283606.27642
     -3275.308       -2552.170
  22508414.208    22508413.8324   22508414.2544  118282526.084 7  92168209.47344
     -1279.154        -996.773
  23079520.256    23079519.5764   23079520.2954  121283692.950 6  94506800.46743
      2920.287        2275.561
  21416810.146    21416809.9554   21416812.4784  112546097.896 8  87698273.28946
        42.657          33.252
  22440917.098    22440916.6144   22440917.9134  117927819.852 7  91891822.38144
      -700.211        -545.604
  22646323.550    22646323.3454   22646325.5084  119007245.840 7  92732937.82944
      1288.178        1003.804
  23202272.000    23202272.1454   23202273.1974  121928760.937 6  95009434.75944
     -2861.095       -2229.458
 08  5  2 14 17 30.0000000  0 11G 6G 7G 8G10G13G16G21G24G25G27G29
  22806036.302    22806036.3864   22806038.5624  119846535.790 6  93386934.45343
      1982.356        1544.710
  22134992.583    22134992.8984   22134993.2504  116320167.839 7  90639119.39845
      1055.607         822.549
  23910532.765    23910531.4444   23910533.9374  125650748.974 5  97909659.80142
      3519.125        2742.148
  21087857.981    21087857.2654   21087859.2134  110817446.169 7  86351269.86546
      -673.997        -525.191
  23287955.828    23287956.3414   23287956.9064  122379029.104 6  95360296.79442
     -3286.215       -2560.693
  22515770.381    22515769.9204   22515770.2074  118321183.344 7  92198331.99944
     -1298.215       -1011.613
  23062879.493    23062879.2584   23062879.3264  121196246.566 6  94438660.44143
      2909.180        2266.887
  21416620.752    21416620.4884   21416622.9494  112545101.848 8  87697497.20446
        23.388          18.218
  22444965.329    22444965.3134   22444966.5104  117949096.395 7  91908401.50245
      -718.630        -559.962
  22639016.508    22639016.1814   22639017.8264  118968845.912 6  92703015.82844
      1271.507         990.769
  23218638.723    23218638.6394   23218640.1124  122014768.614 6  95076453.75044
     -2873.015       -2238.714
 08  5  2 14 18  0.0000000  0 11G 6G 7G 8G10G13G16G21G24G25G27G29
  22794767.493    22794767.5094   22794769.3694  119787316.837 6  93340789.83543
      1965.539        1531.589
  22129025.917    22129026.4004   22129027.0294  116288812.816 7  90614686.92345
      1034.591         806.184
  23890472.491    23890473.3434   23890473.9984  125545333.134 5  97827517.63142
      3508.751        2734.096
  21091765.475    21091764.7574   21091766.9074  110837980.668 8  86367270.77846
      -695.175        -541.683
  23306750.153    23306750.7204   23306752.1654  122477795.195 6  95437257.31342
     -3298.242       -2570.017
  22523237.585    22523237.0934   22523237.6024  118360421.797 7  92228907.42744
     -1317.830       -1026.866
  23046305.033    23046305.6154   23046305.3934  121109149.511 7  94370792.62043
      2897.050        2257.458
  21416543.785    21416543.3474   21416545.8714  112544697.866 8  87697182.44846
         3.430           2.676
  22449122.748    22449122.8204   22449123.9324  117970943.130 7  91925424.92544
      -737.948        -575.019
  22631804.962    22631804.5344   22631806.4174  118930948.614 7  92673485.47644
      1254.679         977.694
  23235076.726    23235076.0964   23235077.9354  122101148.063 6  95143762.42644
     -2885.881       -2248.751
 08  5  2 14 18 30.0000000  0 11G 6G 7G 8G10G13G16G21G24G25G27G29
  22783592.510    22783592.2904   22783594.5964  119728592.587 6  93295030.68243
      1948.938        1518.656
  22123177.591    22123177.7704   22123178.4964  116258079.946 7  90590739.24145
      1013.747         789.922
  23870469.439    23870468.3264   23870471.8094  125440214.524 5  97745607.05342
      3498.587        2726.209
  21095792.934    21095791.9974   21095793.9654  110859143.937 8  86383761.62946
      -716.218        -558.094
  23325610.438    23325610.4654   23325611.7464  122576905.019 6  95514485.73742
     -3309.416       -2578.747
  22530814.606    22530814.0264   22530814.8104  118400240.308 7  92259934.84744
     -1337.329       -1042.072
  23029798.991    23029797.9584   23029798.4114  121022404.032 7  94303198.74243
      2885.319        2248.305
  21416579.789    21416579.3274   21416581.8194  112544886.386 8  87697329.34546
       -16.370         -12.756
  22453388.939    22453388.3324   22453389.6064  117993359.416 7  91942892.13545
      -756.944        -589.836
  22624689.584    22624688.9984   22624690.4434  118893555.353 7  92644347.88044
      1237.752         964.480
  23251583.686    23251583.7964   23251585.1404  122187896.916 6  95211358.90644
     -2898.117       -2258.287
 08  5  2 14 19  0.0000000  0 12G 6G 7G 8G10G13G16G21G24G25G26G27G29
  22772511.111    22772511.3884   22772513.3104  119670359.441 6  93249654.22144
      1932.611        1505.923
  22117446.884    22117447.2214   22117447.6934  116227964.402 7  90567272.59145
       993.299         774.008
  23850521.155    23850520.4134   23850524.3014  125335390.626 5  97663926.14042
      3488.594        2718.365
  21099938.765    21099937.8704   21099939.9654  110880930.719 8  86400738.34846
      -736.893        -574.207
  23344533.195    23344534.7554   23344535.4924  122676350.844 6  95591975.93642
     -3320.781       -2587.573
  22538500.571    22538500.3264   22538500.8374  118440632.303 7  92291409.13244
     -1356.196       -1056.801
  23013357.960    23013357.3644   23013356.9114  120936006.728 7  94235876.16243
      2873.860        2239.352
  21416727.144    21416726.9754   21416729.6874  112545661.993 8  87697933.63946
       -35.992         -28.054
  22457761.091    22457761.2244   22457762.7144  118016339.323 7  91960798.52845
      -775.698        -604.433
  24183357.593    24183362.1704   24183359.6504  127084441.039 5  99026842.40941
      4354.430        3393.126
  22617668.668    22617668.3144   22617670.5424  118856662.126 7  92615599.92244
      1221.072         951.482
  23268160.566    23268161.0934   23268162.0794  122275007.128 6  95279236.96544
     -2909.999       -2267.540
 08  5  2 14 19 30.0000000  0 13G 3G 6G 7G 8G10G13G16G21G24G25G26G27
                                G29
  24347507.952    24347507.1404   24347509.9444  127947024.787 5  99698989.22442
      3576.582        2786.977
  22761523.702    22761523.9084   22761525.9264  119612620.305 7  93204662.70744
      1916.584        1493.445
  22111834.191    22111834.3794   22111834.7814  116198468.916 7  90544289.09045
       973.070         758.252
  23830630.165    23830631.7224   23830632.9594  125230865.228 5  97582477.81342
      3479.265        2711.086
  21104203.278    21104202.4904   21104204.2884  110903340.903 8  86418200.84146
      -757.165        -589.995
  23363522.242    23363522.4974   23363522.0264  122776130.768 5  95669726.49342
     -3331.179       -2595.738
  22546296.254    22546295.9304   22546296.1134  118481597.117 7  92323329.76844
     -1374.741       -1071.230
  22996983.805    22996983.9054   22996983.9634  120849961.588 7  94168827.98943
      2862.572        2230.572
  21416986.900    21416986.4984   21416988.9014  112547026.004 8  87698996.55646
       -55.107         -42.933
  22462241.645    22462241.5374   22462242.4924  118039882.816 7  91979144.09045
      -793.942        -618.664
  24158519.192    24158515.8454   24158513.9284  126953864.307 5  98925094.33641
      4350.129        3389.724
  22610743.212    22610743.3404   22610744.9214  118820271.128 7  92587243.30244
      1204.745         938.754
  23284806.081    23284805.9054   23284807.6274  122362477.582 6  95347395.75144
     -2921.429       -2276.411
 08  5  2 14 20  0.0000000  0 13G 3G 6G 7G 8G10G13G16G21G24G25G26G27
                                G29
  24327116.359    24327116.9524   24327118.1944  127839867.196 6  99615489.83442
      3566.507        2779.101
  22750631.336    22750631.2054   22750633.0434  119555379.932 6  93160059.82944
      1898.884        1479.630
  22106340.025    22106340.1514   22106340.8594  116169597.416 7  90521791.83545
       951.220         741.194
  23810798.150    23810798.3424   23810799.6404  125126643.735 6  97501266.28942
      3468.236        2702.557
  21108586.856    21108585.9524   21108587.8474  110926376.172 8  86436150.40246
      -779.143        -607.135
  23382573.060    23382572.9974   23382574.6254  122876244.747 6  95747737.34042
     -3343.548       -2605.338
  22554200.875    22554200.6824   22554200.6244  118523135.825 6  92355697.59544
     -1394.993       -1087.023
  22980678.277    22980677.3874   22980677.9314  120764273.417 7  94102057.97543
      2849.552        2220.410
  21417358.975    21417358.6634   21417361.0024  112548980.731 8  87700519.74646
       -75.859         -59.135
  22466829.093    22466829.3124   22466830.2364  118063991.674 7  91997930.19044
      -813.815        -634.148
  24133702.857    24133699.9494   24133698.4324  126823463.627 4  98823483.40141
      4342.813        3383.976
  22603915.017    22603914.6154   22603916.1334  118784385.863 7  92559280.76944
      1186.890         924.823
  23301519.942    23301519.9254   23301521.1304  122450308.258 6  95415835.22844
     -2934.394       -2286.544
 08  5  2 14 20 30.0000000  0 13G 3G 6G 7G 8G10G13G16G21G24G25G26G27
                                G29
  24306778.727    24306776.9164   24306781.0614  127732986.041 6  99532205.79642
      3557.856        2772.365
  22739834.900    22739834.6854   22739836.6894  119498643.537 6  93115849.68044
      1882.659        1466.993
  22100965.362    22100965.6214   22100966.1534  116141354.020 7  90499784.01045
       930.857         725.371
  23791024.235    23791024.3424   23791026.0104  125022733.080 5  97420296.99442
      3458.307        2694.751
  21113089.711    21113088.9024   21113090.9014  110950038.934 8  86454588.92946
      -799.457        -622.947
  23401687.477    23401687.7054   23401688.9674  122976693.458 6  95826009.04842
     -3353.731       -2613.290
  22562214.839    22562214.8074   22562215.2584  118565250.431 7  92388514.15044
     -1413.500       -1101.405
  22964440.883    22964440.3054   22964440.4574  120678948.156 6  94035570.76543
      2838.079        2211.496
  21417843.721    21417843.4604   21417845.9594  112551529.268 8  87702505.60646
       -95.084         -74.074
  22471525.298    22471525.1324   22471526.4334  118088668.674 7  92017159.00245
      -832.039        -648.326
  24108924.327    24108921.4864   24108927.0164  126693245.389 5  98722014.66041
      4337.493        3379.830
  22597183.383    22597183.0184   22597184.6624  118749011.050 7  92531715.98644
      1170.351         911.974
  23318302.004    23318302.0164   23318303.3034  122538500.745 6  95484556.65244
     -2945.769       -2295.396
 08  5  2 14 21  0.0000000  0 13G 3G 6G 7G 8G10G13G16G21G24G25G26G27
                                G29
  24286491.511    24286491.8814   24286494.3714  127626383.434 6  99449138.85042
      3548.239        2764.819
  22729134.179    22729133.9024   22729135.9064  119442411.543 6  93072032.56944
      1865.446        1453.596
  22095710.277    22095710.5674   22095711.2544  116113738.843 7  90478265.69745
       909.631         708.787
  23771310.637    23771311.0224   23771312.4494  124919134.626 6  97339570.94142
      3447.659        2686.502
  21117711.550    21117710.6824   21117712.6184  110974327.055 8  86473514.73646
      -820.494        -639.360
  23420865.200    23420866.0164   23420866.2304  123077473.018 6  95904538.53942
     -3365.133       -2622.189
  22570338.187    22570337.8614   22570338.2144  118607938.248 7  92421777.38444
     -1432.911       -1116.573
  22948273.000    22948273.0174   22948273.6534  120593986.981 6  93969367.27243
      2825.474        2201.657
  21418441.426    21418441.3204   21418443.8194  112554670.676 8  87704953.49346
      -114.987         -89.608
  22476328.798    22476328.6624   22476330.1904  118113911.574 7  92036828.78444
      -851.037        -663.158
  24084175.274    24084174.6014   24084172.4904  126563211.840 4  98620689.89341
      4330.751        3374.619
  22590548.812    22590548.4894   22590550.0684  118714146.302 6  92504548.65644
      1153.281         898.657
  23335152.285    23335152.1434   23335153.9774  122627050.691 6  95553556.59243
     -2958.000       -2304.961
 08  5  2 14 21 30.0000000  0 13G 3G 6G 7G 8G10G13G16G21G24G25G26G27
                                G29
  24266260.859    24266259.4294   24266262.8424  127520063.887 5  99366292.45642
      3538.750        2757.456
  22718530.237    22718530.4044   22718531.8354  119386687.575 6  93028611.30744
      1848.218        1440.168
  22090575.379    22090575.5384   22090576.3734  116086754.038 7  90457238.58545
       888.523         692.348
  23751656.222    23751656.5024   23751658.8284  124815852.782 6  97259091.62442
      3436.865        2678.102
  21122452.650    21122451.6944   21122453.6984  110999241.348 8  86492928.47546
      -841.338        -655.575
  23440105.797    23440105.7714   23440106.7144  123178582.266 6  95983324.93542
     -3376.185       -2630.704
  22578570.306    22578569.8614   22578570.7414  118651199.385 7  92455487.35344
     -1452.106       -1131.483
  22932175.504    22932175.6214   22932175.6084  120509393.354 7  93903450.16843
      2812.997        2191.962
  21419152.398    21419152.1194   21419154.4494  112558406.073 8  87707864.11346
      -134.804        -105.030
  22481240.201    22481240.1584   22481241.5504  118139721.066 7  92056940.06244
      -870.175        -678.053
  24059470.612    24059466.7524   24059470.3324  126433367.720 5  98519512.65141
      4324.392        3369.680
  22584012.010    22584011.4744   22584013.1684  118679794.484 7  92477781.00544
      1135.901         885.109
  23352069.998    23352071.2474   23352072.2754  122715957.395 6  95622834.55043
     -2969.826       -2314.134
 08  5  2 14 22  0.0000000  0 13G 3G 6G 7G 8G10G13G16G21G24G25G26G27
                                G29
  24246081.599    24246081.2944   24246084.8984  127414026.813 6  99283666.16342
      3530.140        2750.764
  22708023.038    22708022.7444   22708024.6834  119331470.093 6  92985584.69744
      1832.662        1428.076
  22085559.620    22085560.1604   22085560.8954  116060397.500 7  90436701.02245
       868.408         676.688
  23732063.144    23732062.4044   23732065.2774  124712887.222 6  97178858.76342
      3427.172        2670.501
  21127311.620    21127311.1944   21127313.1164  111024777.692 8  86512826.94746
      -861.225        -671.079
  23459407.882    23459407.8184   23459408.7374  123280015.250 6  96062363.63142
     -3386.048       -2638.425
  22586911.258    22586910.4794   22586911.6574  118695028.995 7  92489640.31044
     -1470.103       -1145.537
  22916147.656    22916147.5274   22916147.9084  120425166.654 7  93837818.95143
      2801.845        2183.261
  21419975.896    21419975.4844   21419978.0884  112562732.427 8  87711235.20246
      -153.705        -119.760
  22486258.907    22486258.5174   22486259.8114  118166092.957 7  92077489.57244
      -888.202        -692.096
  24034795.301    24034794.0864   24034789.5804  126303712.637 5  98418482.87241
      4319.007        3365.491
  22577572.263    22577571.9104   22577573.4824  118645953.487 7  92451411.40744
      1119.848         872.609
  23369056.218    23369056.3114   23369057.0004  122805215.179 6  95692386.06043
     -2980.755       -2322.678
 08  5  2 14 22 30.0000000  0 13G 3G 6G 7G 8G10G13G16G21G24G25G26G27
                                G29
  24225959.715    24225959.0194   24225962.2924  127308280.784 6  99201266.67642
      3519.734        2742.633
  22697612.681    22697612.9894   22697615.0614  119276766.558 6  92942958.55744
      1814.639        1414.045
  22080665.262    22080665.7004   22080666.2034  116034676.056 7  90416658.35345
       846.438         659.565
  23712530.858    23712530.3274   23712532.8234  124610246.987 6  97098879.41142
      3415.694        2661.567
  21132290.598    21132289.7284   21132291.6594  111050940.721 8  86533213.73846
      -882.805        -687.890
  23478771.670    23478772.0434   23478773.0054  123381774.812 6  96141656.76042
     -3397.546       -2647.427
  22595360.528    22595360.0264   22595360.4464  118739430.878 7  92524239.17144
     -1489.844       -1160.904
  22900191.284    22900191.1374   22900191.6184  120341315.239 6  93772480.21743
      2788.523        2172.895
  21420912.743    21420912.3694   21420914.8004  112567655.420 8  87715071.26846
      -174.411        -135.895
  22491385.025    22491384.7714   22491386.1654  118193032.097 7  92098481.10244
      -907.681        -707.284
  24010161.893    24010160.2854   24010160.5584  126174255.523 5  98317607.35541
      4311.396        3359.604
  22571230.916    22571230.4374   22571232.2304  118612629.901 7  92425444.97944
      1101.915         858.656
  23386108.323    23386109.0054   23386109.8324  122894827.246 6  95762213.64843
     -2993.235       -2332.393
 08  5  2 14 23  0.0000000  0 13G 3G 6G 7G 8G10G13G16G21G24G25G26G27
                                G29
  24205887.728    24205888.0244   24205890.9234  127202809.706 5  99119081.42742
      3510.454        2735.395
  22687297.721    22687298.0104   22687298.9994  119222559.999 6  92900719.69044
      1798.108        1401.122
  22075888.012    22075888.3514   22075888.7854  116009571.781 7  90397096.58945
       825.905         643.552
  23693058.123    23693057.1514   23693058.5654  124507915.957 6  97019140.95642
      3405.146        2653.357
  21137384.624    21137383.7734   21137385.9454  111077709.995 8  86554072.91846
      -903.042        -703.677
  23498194.167    23498195.4154   23498196.0704  123483839.080 6  96221187.33742
     -3408.062       -2655.606
  22603914.598    22603914.2344   22603915.0194  118784385.022 7  92559268.38544
     -1508.377       -1175.374
  22884303.584    22884302.5814   22884302.8944  120257822.159 7  93707420.70543
      2776.400        2163.413
  21421959.283    21421959.0354   21421961.4414  112573155.918 8  87719357.37446
      -193.710        -150.947
  22496615.475    22496615.4544   22496616.6574  118220518.464 7  92119899.03944
      -925.821        -721.429
  23985562.689    23985559.5264   23985558.1654  126044980.645 5  98216873.71941
      4305.527        3355.025
  22564984.938    22564984.6574   22564986.1314  118579805.964 7  92399867.89344
      1084.975         845.449
  23403224.050    23403225.1204   23403225.7894  122984771.974 6  95832300.43443
     -3004.355       -2341.067
 08  5  2 14 23 30.0000000  0 13G 3G 6G 7G 8G10G13G16G21G24G25G26G27
                                G29
  24185873.592    24185871.6594   24185874.0534  127097621.181 6  99037116.35842
      3501.118        2728.124
  22677078.273    22677078.3064   22677079.9154  119168856.491 7  92858872.82644
      1781.100        1387.859
  22071229.171    22071229.7704   22071230.3704  115985089.931 7  90378019.83545
       804.803         627.119
  23673645.099    23673644.4234   23673648.1394  124405901.325 6  96939649.06742
      3394.456        2645.021
  21142595.015    21142593.8314   21142595.7984  111105089.485 8  86575407.60346
      -923.469        -719.582
  23517676.045    23517674.1984   23517677.1344  123586209.766 6  96300956.66642
     -3418.006       -2663.344
  22612574.921    22612574.5854   22612575.2394  118829893.903 7  92594729.83744
     -1526.796       -1189.711
  22868484.517    22868483.9374   22868484.2934  120174693.553 7  93642645.20843
      2764.375        2154.072
  21423116.588    21423116.4924   21423118.9464  112579237.983 8  87724096.64046
      -212.961        -165.937
  22501950.630    22501950.4574   22501951.7094  118248555.525 7  92141746.08544
      -944.453        -735.931
  23960997.450    23960992.1044   23960990.4464  125915895.641 4  98116288.04441
      4299.054        3349.962
  22558834.707    22558834.4284   22558836.1844  118547486.959 7  92374684.25944
      1068.415         832.528
  23420404.093    23420404.1844   23420405.7984  123075051.500 6  95902648.07443
     -3015.541       -2349.768
 08  5  2 14 24  0.0000000  0 13G 3G 6G 7G 8G10G13G16G21G24G25G26G27
                                G29
  24165912.015    24165911.4424   24165914.5834  126992733.352 5  98955385.60242
      3491.356        2720.549
  22666958.379    22666957.5794   22666959.5534  119115672.486 7  92817430.74844
      1763.846        1374.418
  22066691.871    22066692.1724   22066692.7674  115961245.998 7  90359440.15745
       784.045         610.944
  23654295.796    23654296.1654   23654298.6174  124304220.408 6  96860417.23142
      3383.851        2636.782
  21147923.483    21147922.5644   21147924.4394  111133092.541 8  86597228.16246
      -943.747        -735.390
  23537216.035    23537216.6274   23537217.2704  123688898.974 6  96380974.21442
     -3428.130       -2671.292
  22621342.909    22621342.5504   22621343.2974  118875970.747 7  92630633.85744
     -1545.336       -1204.188
  22852738.311    22852737.6934   22852738.2604  120091947.228 7  93578167.53144
      2752.122        2144.511
  21424387.573    21424387.0894   21424389.7154  112585916.011 8  87729300.30346
      -232.467        -181.150
  22507393.091    22507393.1874   22507394.6654  118277156.828 7  92164032.79244
      -962.832        -750.270
  23936474.755    23936468.1184   23936474.0154  125787018.293 4  98015864.22241
      4292.456        3344.730
  22552783.578    22552783.2364   22552785.3954  118515688.489 7  92349906.24044
      1051.104         819.039
  23437649.926    23437650.0454   23437651.2684  123165677.993 6  95973266.10543
     -3026.837       -2358.553
 08  5  2 14 24 30.0000000  0 13G 3G 6G 7G 8G10G13G16G21G24G25G26G27
                                G29
  24146010.166    24146010.6054   24146014.1604  126888148.115 5  98873890.62342
      3481.101        2712.561
  22656936.383    22656936.3894   22656938.4454  119063009.325 7  92776394.53544
      1746.753        1361.081
  22062276.223    22062276.3224   22062276.9134  115938040.103 7  90341357.65445
       762.581         594.225
  23635011.309    23635010.2524   23635013.1554  124202875.944 6  96781447.55642
      3372.342        2627.815
  21153370.954    21153369.8544   21153371.7834  111161718.097 8  86619533.73146
      -964.679        -751.674
  23556817.535    23556817.3534   23556819.3064  123791903.526 6  96461237.47942
     -3438.943       -2679.712
  22630218.986    22630218.2024   22630219.2214  118922613.374 7  92666978.75744
     -1564.249       -1218.900
  22837064.918    22837064.8474   22837065.1534  120009585.218 7  93513989.32844
      2738.771        2134.119
  21425771.479    21425771.3274   21425773.6264  112593189.585 8  87734968.09146
      -252.418        -196.676
  22512943.214    22512943.3654   22512944.1334  118306321.274 7  92186758.33744
      -981.628        -764.891
  23911985.609    23911983.0664   23911989.7054  125658351.445 5  97915604.30941
      4285.191        3339.131
  22546831.592    22546831.1524   22546833.0184  118484411.330 7  92325534.43444
      1033.533         805.356
  23454960.677    23454961.3784   23454962.9404  123256648.608 6  96044152.28543
     -3038.325       -2367.506
 08  5  2 14 25  0.0000000  0 13G 3G 6G 7G 8G10G13G16G21G24G25G26G27
                                G29
  24126165.540    24126164.3694   24126166.0104  126783856.716 5  98792624.63442
      3470.707        2704.457
  22647011.820    22647012.0134   22647013.9354  119010856.991 7  92735756.37044
      1729.388        1347.600
  22057979.252    22057979.7894   22057980.2334  115915461.737 8  90323764.14245
       741.486         577.781
  23615787.840    23615787.1394   23615789.3244  124101859.387 6  96702733.41642
      3361.002        2618.951
  21158934.064    21158933.2624   21158935.0584  111190953.415 8  86642314.57146
      -985.160        -767.661
  23576475.292    23576475.0404   23576477.0924  123895208.835 6  96541735.11242
     -3448.919       -2687.536
  22639199.645    22639199.5454   22639200.4364  118969808.509 6  92703754.18044
     -1582.877       -1233.443
  22821463.250    22821462.9264   22821463.8194  119927597.680 7  93450102.94144
      2726.455        2124.512
  21427266.614    21427266.3914   21427268.8794  112601046.647 8  87741090.50846
      -272.120        -212.042
  22518597.802    22518597.6334   22518598.9104  118336035.904 7  92209912.58544
     -1000.119        -779.315
  23887541.027    23887540.1194   23887538.3234  125529886.654 5  97815501.90441
      4278.305        3333.745
  22540976.767    22540976.6064   22540978.0694  118453644.747 7  92301560.48044
      1016.657         792.200
  23472335.019    23472334.8184   23472336.1714  123347948.874 6  96115295.36443
     -3049.345       -2376.130
 08  5  2 14 25 30.0000000  0 13G 3G 6G 7G 8G10G13G16G21G24G25G26G27
                                G29
  24106374.090    24106374.3814   24106376.0754  126679859.881 5  98711588.14141
      3461.638        2697.370
  22637184.867    22637184.8064   22637186.5654  118959215.539 7  92695516.27944
      1712.505        1334.426
  22053802.312    22053802.4974   22053803.0324  115893509.644 7  90306658.61645
       720.901         561.745
  23596628.360    23596627.0764   23596629.6064  124001171.438 6  96624275.32642
      3350.322        2610.619
  21164612.681    21164612.0054   21164613.8554  111220795.332 8  86665568.04246
     -1005.021        -783.134
  23596190.299    23596190.3114   23596191.2064  123998810.230 6  96622463.45142
     -3458.553       -2694.936
  22648285.127    22648284.5364   22648285.7954  119017552.333 6  92740957.15344
     -1600.970       -1247.490
  22805933.837    22805933.2674   22805933.2394  119845985.381 6  93386508.96744
      2713.930        2114.751
  21428872.392    21428872.1434   21428874.5804  112609484.955 8  87747665.85446
      -291.236        -226.944
  22524356.450    22524356.1634   22524357.7934  118366297.664 7  92233493.15344
     -1017.996        -793.230
  23863131.694    23863132.9704   23863130.9644  125401625.030 5  97715557.86141
      4271.661        3328.556
  22535219.126    22535218.7794   22535220.5524  118423387.452 7  92277983.36144
       999.707         778.990
  23489770.968    23489770.9764   23489772.3304  123439574.363 6  96186691.83843
     -3059.827       -2384.273
 08  5  2 14 26  0.0000000  0 13G 3G 6G 7G 8G10G13G16G21G24G25G26G27
                                G29
  24086642.906    24086643.0424   24086645.0574  126576170.695 5  98630791.38841
      3450.393        2688.595
  22627457.594    22627457.1634   22627459.1084  118908095.987 7  92655682.86744
      1694.693        1320.563
  22049746.388    22049746.2664   22049746.8154  115872194.419 7  90290049.35245
       699.323         544.927
  23577533.239    23577531.9344   23577534.4474  123900824.503 6  96546082.95642
      3338.730        2601.598
  21170408.514    21170407.8664   21170409.6524  111251252.238 8  86689300.70746
     -1025.987        -799.467
  23615963.245    23615963.7484   23615963.6834  124102714.749 6  96703427.96442
     -3468.891       -2702.984
  22657476.533    22657476.0124   22657476.6034  119065852.924 7  92778593.98544
     -1619.841       -1262.211
  22790476.774    22790476.2384   22790476.4484  119764759.698 7  93323216.27344
      2700.485        2104.293
  21430590.604    21430590.3384   21430592.6594  112618514.060 8  87754701.55646
      -311.258        -242.531
  22530220.600    22530220.7384   22530222.1244  118397115.189 7  92257506.79444
     -1037.187        -808.202
  23838765.381    23838767.8424   23838765.9064  125273579.408 5  97615782.05541
      4264.168        3322.782
  22529560.481    22529560.0514   22529562.0214  118393650.188 7  92254811.47044
       981.974         765.179
  23507269.994    23507269.9984   23507271.1074  123531532.486 6  96258347.50743
     -3071.300       -2393.206
 08  5  2 14 26 30.0000000  0 13G 3G 6G 7G 8G10G13G16G21G24G25G26G27
                                G29
  24066969.396    24066970.0714   24066972.0524  126472788.420 5  98550233.81541
      3440.839        2681.152
  22617828.664    22617828.4554   22617830.7044  118857496.606 7  92616254.79044
      1677.872        1307.421
  22045810.384    22045810.8704   22045811.3604  115851513.201 7  90273934.11945
       678.898         529.030
  23558501.276    23558501.4634   23558504.3404  123800818.177 6  96468155.97642
      3327.910        2593.156
  21176320.449    21176319.4784   21176321.4364  111282319.149 8  86713508.70446
     -1045.730        -814.856
  23635790.987    23635791.2844   23635793.1934  124206915.806 6  96784623.55442
     -3478.147       -2710.274
  22666772.712    22666771.9674   22666773.1244  119114704.959 7  92816660.52044
     -1637.434       -1275.945
  22775093.593    22775093.0884   22775093.1754  119683919.692 7  93260224.06044
      2688.273        2094.737
  21432420.149    21432420.1504   21432422.4404  112628129.729 8  87762194.31146
      -330.150        -257.247
  22536190.292    22536190.0024   22536191.1194  118428483.853 7  92281949.89844
     -1054.695        -821.849
  23814440.486    23814438.2434   23814440.6814  125145749.599 5  97516174.44641
      4257.313        3317.414
  22523999.906    22523999.5874   22524001.1194  118364430.335 7  92232042.74744
       965.525         752.363
  23524830.650    23524831.1484   23524831.8974  123623816.879 6  96330257.41143
     -3081.463       -2401.122
 08  5  2 14 27  0.0000000  0 13G 3G 6G 7G 8G10G13G16G21G24G25G26G27
                                G29
  24047354.936    24047354.9604   24047358.1254  126369712.176 5  98469914.67242
      3430.696        2673.245
  22608298.172    22608298.5204   22608299.9584  118807415.657 7  92577230.66644
      1660.749        1294.103
  22041994.876    22041995.4044   22041995.9574  115831463.284 7  90258310.81445
       657.854         512.617
  23539535.826    23539535.1804   23539537.6454  123701151.901 6  96390493.99042
      3316.574        2584.346
  21182347.536    21182346.6994   21182348.5794  111313992.372 8  86738189.15546
     -1065.900        -830.568
  23655675.753    23655676.0064   23655676.8604  124311407.544 6  96866045.63842
     -3488.075       -2718.019
  22676172.766    22676172.3064   22676172.7334  119164103.184 7  92855152.63944
     -1655.764       -1290.207
  22759783.591    22759783.1554   22759782.8884  119603464.472 7  93197531.70444
      2675.173        2084.556
  21434361.342    21434360.8334   21434363.1794  112638328.538 8  87770141.45246
      -349.691        -272.482
  22542263.419    22542263.0874   22542264.4264  118460399.310 7  92306819.07144
     -1072.912        -836.011
  23790158.569    23790156.2534   23790159.9134  125018135.350 5  97416734.82441
      4250.340        3312.018
  22518537.482    22518537.3894   22518538.9524  118335725.560 7  92209675.39444
       948.359         739.012
  23542452.895    23542452.5204   23542454.6704  123716421.347 6  96402416.70043
     -3092.222       -2409.518
 08  5  2 14 27 30.0000000  0 13G 3G 6G 7G 8G10G13G16G21G24G25G26G27
                                G29
  24027799.841    24027800.5044   24027802.2954  126266945.497 5  98389836.76442
      3419.488        2664.501
  22598867.387    22598867.2444   22598869.0874  118757854.832 7  92538611.84944
      1642.644        1279.963
  22038299.985    22038300.1824   22038300.8304  115812045.649 7  90243180.19945
       636.203         495.723
  23520634.907    23520634.4574   23520637.4084  123601828.775 6  96313099.36442
      3304.333        2574.778
  21188489.883    21188488.8814   21188490.7504  111346269.823 8  86763340.40146
     -1086.528        -846.653
  23675615.202    23675615.7134   23675615.2504  124416186.993 6  96947691.93942
     -3498.043       -2725.748
  22685676.871    22685675.9964   22685676.6564  119214045.998 6  92894069.12044
     -1674.330       -1304.665
  22744546.732    22744546.1034   22744546.7654  119523395.921 7  93135140.61944
      2661.831        2074.147
  21436412.622    21436412.4834   21436414.7414  112649109.996 8  87778542.58746
      -369.575        -287.988
  22548440.495    22548440.1624   22548441.6604  118492860.110 7  92332113.21344
     -1091.670        -850.689
  23765913.342    23765913.9354   23765915.3674  124890739.679 5  97317465.53441
      4242.212        3305.625
  22513173.520    22513173.3924   22513175.0684  118307536.702 7  92187710.05244
       930.392         724.965
  23560135.584    23560135.6144   23560136.3924  123809343.954 6  96474823.90543
     -3103.537       -2418.340
 08  5  2 14 28  0.0000000  0 13G 3G 6G 7G 8G10G13G16G21G24G25G26G27
                                G29
  24008304.555    24008304.6804   24008306.8864  126164501.845 5  98310010.57042
      3409.237        2656.539
  22589538.080    22589537.4474   22589539.6554  118708826.583 7  92500408.05044
      1625.397        1266.561
  22034727.630    22034727.6414   22034728.2324  115793271.371 7  90228550.88945
       615.200         479.377
  23501803.000    23501802.5464   23501804.9674  123502862.357 6  96235982.72742
      3292.671        2565.732
  21194748.668    21194747.9884   21194749.9794  111379161.513 8  86788970.26446
     -1106.639        -862.308
  23695610.305    23695610.6304   23695612.3304  124521262.228 5  97029568.68542
     -3507.281       -2732.967
  22695285.922    22695285.4194   22695285.8824  119264542.476 6  92933417.01943
     -1692.463       -1318.779
  22729385.744    22729385.5604   22729386.2544  119443727.076 7  93073061.00444
      2648.833        2064.036
  21438577.040    21438577.1484   21438579.3654  112660484.754 8  87787406.04146
      -389.212        -303.270
  22554723.722    22554722.8494   22554724.3894  118525876.089 7  92357839.94244
     -1109.885        -864.824
  23741717.797    23741717.4794   23741714.9214  124763576.652 5  97218377.46941
      4234.673        3299.699
  22507909.811    22507909.3344   22507910.8794  118279875.250 7  92166155.67244
       913.188         711.578
  23577880.629    23577880.0024   23577880.3374  123902592.660 6  96547485.20943
     -3113.632       -2426.204
 08  5  2 14 28 30.0000000  0 13G 3G 6G 7G 8G10G13G16G21G24G25G26G27
                                G29
  23988869.043    23988868.3744   23988872.4634  126062365.756 5  98230424.07142
      3399.201        2648.712
  22580305.902    22580305.7414   22580307.6114  118660313.904 7  92462605.97244
      1608.099        1253.089
  22031273.838    22031274.1664   22031274.7864  115775122.838 7  90214409.17445
       593.958         462.847
  23483035.007    23483034.6544   23483036.9644  123404236.893 6  96159131.74442
      3281.365        2556.916
  21201121.172    21201120.4174   21201122.1454  111412647.573 8  86815063.27946
     -1126.474        -877.747
  23715657.346    23715657.5474   23715657.7334  124626612.013 5  97111659.36942
     -3516.597       -2740.134
  22704996.108    22704995.9004   22704996.2994  119315572.128 6  92973180.38644
     -1710.230       -1332.629
  22714298.295    22714297.9644   22714298.6474  119364442.122 7  93011280.53544
      2636.005        2054.028
  21440851.271    21440850.9264   21440853.1484  112672433.729 8  87796716.92846
      -408.170        -318.031
  22561107.943    22561107.7544   22561109.3694  118559427.431 7  92383983.82644
     -1127.750        -878.738
  23717559.844    23717559.3424   23717560.4384  124636631.190 5  97119458.97141
      4227.319        3294.074
  22502742.754    22502742.6544   22502744.4114  118252723.569 7  92144998.51044
       896.056         698.229
  23595682.804    23595682.8334   23595684.0514  123996146.600 6  96620384.34642
     -3123.858       -2434.151
 08  5  2 14 29  0.0000000  0 13G 3G 6G 7G 8G10G13G16G21G24G25G26G27
                                G29
  23969493.045    23969492.5494   23969495.3754  125960543.816 5  98151082.34042
      3388.892        2640.704
  22571173.460    22571172.9064   22571175.6074  118612322.374 7  92425209.99044
      1591.589        1240.220
  22027940.379    22027940.4904   22027941.1004  115757604.522 7  90200758.53745
       574.072         447.354
  23464333.095    23464332.4544   23464335.1324  123305959.316 6  96082551.83242
      3270.638        2548.540
  21207606.956    21207606.1544   21207607.9174  111446730.744 8  86841621.56746
     -1145.594        -892.673
  23735756.923    23735756.2754   23735759.1354  124732237.598 5  97193964.97341
     -3524.966       -2746.701
  22714808.368    22714808.1074   22714809.1214  119367137.061 6  93013360.85043
     -1727.257       -1345.922
  22699285.234    22699284.6974   22699285.3754  119285546.625 7  92949803.53144
      2623.831        2044.518
  21443234.914    21443234.6674   21443236.8904  112684960.558 8  87806478.11146
      -426.796        -332.574
  22567594.834    22567594.8534   22567595.9584  118593516.831 7  92410546.96644
     -1144.720        -891.992
  23693444.799    23693443.3154   23693444.8914  124509910.265 5  97020715.50341
      4220.637        3288.723
  22497674.105    22497673.7344   22497675.5154  118226086.226 7  92124242.13344
       879.806         685.572
  23613544.290    23613544.6564   23613545.5574  124090006.919 6  96693522.23642
     -3132.997       -2441.301
 08  5  2 14 29 30.0000000  0 13G 3G 6G 7G 8G10G13G16G21G24G25G26G27
                                G29
  23950180.465    23950179.6724   23950182.4144  125859052.230 5  98071998.04542
      3377.335        2631.677
  22562142.982    22562143.0084   22562144.2324  118564866.933 7  92388231.73644
      1573.008        1225.726
  22024729.153    22024729.4444   22024729.9024  115740730.499 7  90187609.95345
       551.715         429.918
  23445700.914    23445700.2034   23445703.2374  123208045.769 6  96006255.57742
      3257.407        2538.243
  21214208.606    21214207.8524   21214209.7724  111481422.750 8  86868654.24546
     -1166.444        -908.911
  23755910.501    23755911.7624   23755913.0614  124838149.580 5  97276493.74741
     -3535.172       -2754.605
  22724725.123    22724725.0914   22724725.9494  119419248.993 6  93053967.53743
     -1746.148       -1360.648
  22684348.915    22684348.4964   22684348.9854  119207056.910 7  92888642.72744
      2609.552        2033.421
  21445731.123    21445730.6204   21445733.0824  112698078.097 8  87816699.59645
      -447.046        -348.334
  22574186.464    22574186.3634   22574188.0444  118628156.842 7  92437539.17544
     -1163.870        -906.914
  23669374.735    23669376.2654   23669378.6084  124383430.326 5  96922159.72841
      4212.053        3282.099
  22492705.960    22492705.6054   22492707.5344  118199977.607 7  92103897.75244
       861.501         671.300
  23631466.019    23631466.0404   23631466.6744  124184184.495 6  96766907.31642
     -3144.473       -2450.279
 08  5  2 14 30  0.0000000  0 13G 3G 6G 7G 8G10G13G16G21G24G25G26G27
                                G29
  23930929.029    23930929.7454   23930930.1534  125757892.683 5  97993172.46541
      3366.761        2623.410
  22553214.215    22553214.1924   22553215.9784  118517947.883 7  92351671.45144
      1555.385        1211.960
  22021640.660    22021640.9494   22021641.6374  115724499.902 7  90174962.74145
       530.632         413.462
  23427137.681    23427137.3734   23427139.4314  123110497.893 6  95930244.23443
      3245.635        2529.055
  21220925.974    21220925.0294   21220926.9344  111516721.769 8  86896159.93945
     -1186.343        -924.435
  23776120.239    23776120.0604   23776119.7924  124944343.729 5  97359242.37041
     -3543.811       -2761.452
  22734745.460    22734744.8364   22734745.9604  119471904.535 6  93094997.80443
     -1763.884       -1374.429
  22669490.466    22669490.2244   22669490.6274  119128973.876 7  92827798.83644
      2596.492        2023.250
  21448339.069    21448338.9834   21448341.2004  112711784.280 8  87827379.73345
      -466.269        -363.340
  22580882.747    22580882.3684   22580883.8444  118663344.368 7  92464958.00044
     -1181.578        -920.704
  23645352.601    23645353.3334   23645356.3464  124257193.486 5  96823793.45641
      4204.049        3275.903
  22487838.046    22487837.5234   22487839.1624  118174397.263 7  92083965.00644
       844.280         657.877
  23649446.551    23649446.1534   23649447.1334  124278675.508 6  96840536.65342
     -3154.603       -2458.160
 08  5  2 14 30 30.0000000  0 13G 3G 6G 7G 8G10G13G16G21G24G25G26G27
                                G29
  23911741.476    23911741.3844   23911742.9024  125657052.267 5  97914595.59541
      3355.545        2614.705
  22544385.327    22544385.4404   22544386.9494  118471550.806 7  92315517.88844
      1537.560        1198.111
  22018671.788    22018671.9934   22018672.2344  115708897.447 7  90162804.98545
       509.368         396.905
  23408642.467    23408642.2394   23408644.7094  123013302.541 6  95854507.62143
      3233.584        2519.707
  21227755.195    21227754.4674   21227756.3224  111552610.238 8  86924124.98645
     -1206.374        -940.032
  23796377.862    23796377.1104   23796378.8714  125050801.527 5  97442196.47141
     -3553.497       -2768.898
  22744865.105    22744865.1694   22744866.3454  119525086.159 6  93136438.03343
     -1781.710       -1388.349
  22654706.636    22654706.1214   22654706.3934  119051283.552 7  92767260.95044
      2582.911        2012.654
  21451056.185    21451056.0104   21451058.4234  112726062.927 8  87838505.95446
      -485.768        -378.515
  22587680.079    22587679.4514   22587680.7704  118699062.672 7  92492790.40544
     -1199.751        -934.875
  23621374.261    23621374.9334   23621376.9084  124131186.928 5  96725606.59741
      4196.054        3269.577
  22483067.595    22483067.2564   22483069.0884  118149329.964 7  92064432.03844
       826.787         644.264
  23667483.210    23667483.0374   23667485.0854  124373461.591 6  96914395.91942
     -3164.490       -2465.845
 08  5  2 14 31  0.0000000  0 13G 3G 6G 7G 8G10G13G16G21G24G25G26G27
                                G29
  23892615.488    23892615.8344   23892617.6014  125556549.858 5  97836282.09841
      3344.245        2605.865
  22535658.796    22535659.0544   22535660.6554  118425693.607 7  92279785.02244
      1519.420        1183.967
  22015825.351    22015825.6284   22015825.9514  115693940.389 7  90151150.12845
       487.627         379.957
  23390217.613    23390217.6254   23390219.8194  122916479.053 6  95779060.79343
      3221.079        2509.925
  21234699.552    21234698.7164   21234700.7144  111589103.174 8  86952561.00545
     -1226.508        -955.726
  23816688.939    23816688.3964   23816689.9984  125157536.360 5  97525366.44541
     -3562.636       -2776.086
  22755088.577    22755088.0024   22755089.2794  119578808.276 6  93178299.41143
     -1799.843       -1402.489
  22640001.142    22640000.3954   22640000.6134  118974004.580 7  92707043.59044
      2568.953        2001.794
  21453885.661    21453885.2474   21453887.4504  112740930.246 8  87850090.87545
      -505.413        -393.835
  22594580.471    22594580.2604   22594581.6864  118735326.836 7  92521048.18644
     -1218.036        -949.116
  23597444.197    23597445.7984   23597447.4424  124005430.098 5  96627614.28241
      4187.700        3263.119
  22478398.670    22478398.4334   22478399.9104  118124792.752 7  92045312.12744
       808.901         630.313
  23685579.495    23685579.2674   23685580.9224  124468556.349 6  96988495.71442
     -3175.050       -2474.108
 08  5  2 14 31 30.0000000  0 13G 3G 6G 7G 8G10G13G16G21G24G25G26G27
                                G29
  23873556.584    23873555.6144   23873558.0654  125456395.521 5  97758239.75141
      3332.885        2597.112
  22527037.104    22527036.9664   22527038.8454  118380384.416 7  92244479.16944
      1501.327        1169.852
  22013103.102    22013103.6554   22013104.0584  115679635.154 7  90140003.20045
       466.364         363.396
  23371865.575    23371864.8274   23371866.6434  122820036.626 6  95703910.88443
      3208.655        2500.223
  21241759.819    21241759.0434   21241761.0734  111626205.871 8  86981472.18746
     -1246.751        -971.500
  23837052.787    23837053.3894   23837053.8304  125264552.246 5  97608755.39741
     -3571.882       -2783.343
  22765415.265    22765414.6964   22765415.2764  119633075.356 6  93220585.42043
     -1817.670       -1416.366
  22625375.561    22625374.6814   22625374.5164  118897145.827 7  92647153.68244
      2555.114        1991.006
  21456827.904    21456827.5494   21456829.9024  112756392.002 8  87862139.00046
      -525.176        -409.241
  22601586.292    22601585.9444   22601587.5824  118772141.896 7  92549735.23044
     -1236.017        -963.138
  23573565.972    23573562.6824   23573565.9574  123879932.901 5  96529824.31341
      4178.965        3256.360
  22473831.417    22473831.2184   22473832.8744  118100792.890 7  92026610.92244
       791.166         616.489
  23703733.692    23703736.2464   23703736.1784  124563963.728 6  97062839.09742
     -3185.330       -2482.098
 08  5  2 14 32  0.0000000  0 13G 3G 6G 7G 8G10G13G16G21G24G25G26G27
                                G29
  23854562.361    23854562.1634   23854564.3454  125356579.950 5  97680461.40841
      3321.202        2587.926
  22518517.616    22518517.1024   22518519.2564  118335612.777 7  92209592.17844
      1483.452        1155.936
  22010502.783    22010503.2074   22010503.6994  115665970.605 7  90129355.50245
       444.875         346.646
  23353583.689    23353583.0654   23353584.5634  122723966.377 6  95629050.95343
      3196.079        2490.431
  21248933.693    21248933.1724   21248935.0244  111663905.162 8  87010848.23945
     -1266.616        -986.974
  23857468.180    23857467.7464   23857470.6774  125371834.364 5  97692351.79441
     -3580.434       -2789.962
  22775842.953    22775842.5324   22775842.8474  119687873.750 6  93263285.46743
     -1835.545       -1430.297
  22610827.439    22610827.2094   22610827.3604  118820697.526 7  92587583.57444
      2541.402        1980.319
  21459880.746    21459880.5994   21459882.8234  112772435.749 8  87874640.63945
      -544.563        -424.335
  22608694.275    22608693.8694   22608695.2314  118809494.826 7  92578841.39344
     -1254.052        -977.181
  23549730.525    23549731.5664   23549732.2524  123754686.745 5  96432229.94241
      4170.756        3249.920
  22469364.487    22469364.4334   22469366.4024  118077319.255 7  92008319.77344
       773.749         602.934
  23721946.599    23721946.4634   23721947.9544  124659669.394 6  97137414.91442
     -3194.923       -2489.559
 08  5  2 14 32 30.0000000  0 13G 3G 6G 7G 8G10G13G16G21G24G25G26G27
                                G29
  23835635.119    23835633.8164   23835637.0124  125257112.608 5  97602954.38741
      3310.107        2579.301
  22510101.248    22510101.1054   22510102.9934  118291386.671 7  92175130.28844
      1465.276        1141.800
  22008025.867    22008026.1384   22008026.6724  115652953.674 7  90119212.43645
       423.014         329.606
  23335374.515    23335374.0934   23335375.8224  122628277.676 6  95554488.34443
      3183.387        2480.542
  21256222.475    21256221.3234   21256223.5764  111702205.945 8  87040693.01146
     -1286.646       -1002.578
  23877935.852    23877936.4924   23877937.0344  125479386.643 5  97776158.67941
     -3589.485       -2796.951
  22786372.911    22786372.6884   22786373.1094  119743207.999 6  93306403.05843
     -1853.472       -1444.251
  22596359.503    22596359.2404   22596359.9194  118744668.341 7  92528340.05444
      2527.395        1969.414
  21463045.799    21463045.5124   21463047.5964  112789067.532 8  87887600.47945
      -564.181        -439.628
  22615905.672    22615905.2884   22615906.8044  118847390.883 7  92608370.79244
     -1272.287        -991.387
  23525946.071    23525946.2524   23525949.4094  123629701.388 5  96334838.79941
      4161.983        3243.159
  22464999.314    22464999.2884   22465000.7254  118054379.205 7  91990444.40244
       755.769         588.889
  23740217.188    23740216.9064   23740217.8624  124755677.252 6  97212226.21042
     -3205.272       -2497.636
 08  5  2 14 33  0.0000000  0 13G 3G 6G 7G 8G10G13G16G21G24G25G26G27
                                G29
  23816771.776    23816771.0494   23816774.6024  125157990.027 5  97525716.03041
      3297.266        2569.302
  22501788.200    22501788.0744   22501789.7804  118247701.280 7  92141089.73044
      1446.188        1126.909
  22005670.832    22005671.1024   22005671.8654  115640578.511 7  90109569.45045
       400.990         312.452
  23317238.074    23317237.3574   23317239.9304  122532967.098 6  95480220.35843
      3169.783        2469.988
  21263623.583    21263622.8884   21263624.9244  111741100.463 8  87071000.41646
     -1307.389       -1018.737
  23898451.828    23898450.5374   23898452.2784  125587200.120 5  97860169.17641
     -3599.033       -2804.402
  22797002.940    22797002.6654   22797003.0194  119799069.580 6  93349931.56743
     -1871.779       -1458.503
  22581970.571    22581970.0554   22581970.5814  118669054.545 7  92469420.22744
      2512.526        1957.815
  21466321.227    21466320.7984   21466323.1564  112806280.248 8  87901012.99246
      -584.533        -455.474
  22623218.843    22623218.9244   22623220.1374  118885822.347 7  92638317.39844
     -1290.985       -1005.973
  23502211.182    23502211.4744   23502211.7164  123504973.446 5  96237648.19241
      4152.355        3235.598
  22460734.387    22460733.9514   22460735.8204  118031966.901 7  91972980.26144
       737.193         574.438
  23758542.570    23758541.8664   23758543.4304  124851978.420 6  97287266.08442
     -3216.133       -2506.068
 08  5  2 14 33 30.0000000  0 13G 3G 6G 7G 8G10G13G16G21G24G25G26G27
                                G29
  23797977.429    23797978.4874   23797980.6284  125059229.141 4  97448759.53041
      3285.579        2560.176
  22493581.228    22493580.8744   22493582.6244  118204572.202 7  92107482.64544
      1428.328        1112.980
  22003440.946    22003441.2154   22003441.7724  115628859.995 7  90100438.14245
       379.743         295.907
  23299175.343    23299175.3664   23299178.2764  122438051.486 6  95406260.15443
      3157.139        2460.118
  21271140.588    21271139.7774   21271141.7894  111780601.724 8  87101780.61645
     -1326.859       -1033.916
  23919019.344    23919020.1064   23919022.4924  125695285.755 5  97944391.67941
     -3607.600       -2811.102
  22807735.392    22807735.7374   22807735.5664  119855471.086 6  93393880.79043
     -1889.050       -1471.978
  22567663.864    22567663.4374   22567664.1404  118593872.202 7  92410836.59544
      2498.790        1947.112
  21469709.775    21469709.5284   21469711.9424  112824087.594 8  87914888.85846
      -603.641        -470.370
  22630636.479    22630636.0914   22630637.5574  118924801.972 7  92668691.13944
     -1308.454       -1019.591
  23478528.093    23478527.6134   23478530.9154  123380520.630 5  96140672.00241
      4143.677        3228.840
  22456572.523    22456572.5514   22456574.0544  118010097.323 7  91955939.02744
       719.869         560.909
  23776925.828    23776925.2804   23776926.1814  124948584.295 6  97362543.35742
     -3225.121       -2513.020
 08  5  2 14 34  0.0000000  0 13G 3G 6G 7G 8G10G13G16G21G24G25G26G27
                                G29
  23779254.148    23779253.1424   23779258.2294  124960834.526 4  97372088.48241
      3273.065        2550.372
  22485480.191    22485479.8634   22485481.8304  118162002.310 7  92074311.30844
      1409.169        1098.046
  22001335.931    22001336.3414   22001337.0094  115617799.552 7  90091819.61145
       357.083         278.245
  23281190.413    23281189.6424   23281191.4034  122343535.254 6  95332611.15943
      3143.354        2449.365
  21278772.720    21278771.9504   21278773.9504  111820709.274 8  87133033.22845
     -1347.628       -1050.105
  23939638.445    23939639.8954   23939640.4904  125803642.468 5  98028825.42541
     -3617.420       -2818.800
  22818571.356    22818570.9124   22818571.6844  119912411.882 7  93438250.23543
     -1907.625       -1486.448
  22553440.074    22553439.4504   22553439.9394  118519124.817 7  92352591.89044
      2483.605        1935.285
  21473211.723    21473211.5134   21473213.9104  112842490.235 8  87929228.57845
      -623.922        -486.174
  22638158.410    22638158.1474   22638159.7784  118964329.838 7  92699492.06144
     -1327.347       -1034.301
  23454898.668    23454900.0394   23454900.6294  123256347.365 5  96043913.69142
      4133.750        3221.095
  22452515.003    22452514.6094   22452515.9594  117988772.492 7  91939322.26845
       701.075         546.276
  23795367.103    23795367.3734   23795366.2954  125045493.985 6  97438057.39342
     -3236.126       -2521.701
 08  5  2 14 34 30.0000000  0 14G 3G 6G 7G 8G10G13G15G16G21G24G25G26
                                G27G29
  23760595.940    23760596.6194   23760598.8114  124862787.646 5  97295688.35741
      3261.611        2541.473
  22477481.921    22477482.2344   22477483.3964  118119971.990 7  92041560.41244
      1391.161        1083.977
  21999352.716    21999353.0964   21999353.5144  115607376.773 7  90083697.95745
       335.830         261.674
  23263276.681    23263275.9254   23263278.2394  122249400.223 6  95259259.21443
      3130.512        2439.360
  21286516.134    21286515.3694   21286517.3554  111861401.214 8  87164741.23445
     -1366.962       -1065.182
  23960305.357    23960306.9594   23960306.2904  125912246.840 5  98113452.13441
     -3625.335       -2825.013
  24709066.893                                   129847065.017 4
      3911.186
  22829505.189    22829504.3664   22829505.0754  119969868.508 6  93483021.62243
     -1924.683       -1499.757
  22539295.232    22539294.6414   22539295.4154  118444793.996 7  92294671.80844
      2469.867        1924.541
  21476822.785    21476822.4094   21476824.8554  112861466.842 8  87944015.56745
      -642.943        -501.015
  22645780.302    22645779.9814   22645781.3254  119004383.601 7  92730702.76944
     -1344.768       -1047.878
  23431321.199    23431318.8524   23431322.2074  123132436.058 6  95947359.45542
      4125.216        3214.447
  22448556.523    22448556.3114   22448557.9534  117967971.931 7  91923114.03544
       683.835         532.857
  23813860.858    23813861.5244   23813861.3714  125142683.748 6  97513789.66242
     -3245.003       -2528.569
 08  5  2 14 35  0.0000000  0 14G 3G 6G 7G 8G10G13G15G16G21G24G25G26
                                G27G29
  23742009.271    23742007.9404   23742010.5644  124765104.994 5  97219572.04341
      3249.712        2532.232
  22469589.652    22469589.5774   22469590.9204  118078496.199 7  92009241.63144
      1372.876        1069.755
  21997493.293    21997493.6244   21997494.1444  115597605.266 7  90076083.79045
       314.376         244.959
  23245438.323    23245437.9774   23245440.6334  122155662.575 6  95186216.92843
      3117.472        2429.203
  21294372.993    21294372.3044   21294374.1144  111902689.195 8  87196913.68245
     -1386.635       -1080.499
  23981021.914    23981021.5264   23981025.9734  126021108.936 5  98198279.71641
     -3633.083       -2831.003
  24686748.544    24686751.4014   24686752.5724  129729776.079 5 101088130.80841
      3906.613        3044.046
  22840538.772    22840538.2134   22840539.6124  120027852.827 6  93528204.19043
     -1941.970       -1513.228
  22525232.807    22525232.1494   22525232.4694  118370894.736 7  92237087.98744
      2455.579        1913.439
  21480545.581    21480545.2664   21480547.6754  112881029.952 8  87959259.55045
      -662.403        -516.150
  22653504.634    22653504.5494   22653505.7794  119044975.258 7  92762332.63544
     -1362.521       -1061.708
  23407792.608    23407793.3874   23407795.0584  123008803.153 5  95851022.15742
      4116.245        3207.475
  22444700.459    22444700.4144   22444701.8734  117947709.644 7  91907325.22944
       665.932         518.895
  23832411.277    23832411.4684   23832412.7734  125240164.401 6  97589748.59642
     -3254.268       -2535.829
 08  5  2 14 35 30.0000000  0 14G 3G 6G 7G 8G10G13G15G16G21G24G25G26
                                G27G29
  23723489.952    23723489.6414   23723492.5464  124667792.907 5  97143744.45941
      3236.359        2521.833
  22461803.400    22461803.2324   22461805.0164  118037579.468 6  91977358.47344
      1353.629        1054.776
  21995758.543    21995758.8994   21995759.3304  115588488.695 7  90068979.96745
       292.156         227.647
  23227676.708    23227677.1544   23227678.9704  122062328.107 6  95113488.76843
      3103.458        2418.240
  21302343.380    21302342.6934   21302344.8744  111944574.757 8  87229551.78445
     -1407.012       -1096.387
  24001786.753    24001787.6304   24001788.5664  126130229.425 5  98283308.58841
     -3642.864       -2838.607
  24664460.281    24664459.9424   24664462.6094  129612635.145 5 100996852.34941
      3901.105        3039.870
  22851673.548    22851673.3844   22851674.1994  120086366.122 6  93573798.94743
     -1960.035       -1527.302
  22511253.419    22511252.5864   22511253.3364  118297432.890 7  92179844.99744
      2440.476        1901.671
  21484380.433    21484380.0814   21484382.5714  112901182.344 8  87974962.72646
      -682.469        -531.804
  22661331.507    22661331.3064   22661332.7064  119086106.603 7  92794383.02344
     -1381.032       -1076.139
  23384320.636    23384319.3604   23384321.8244  122885455.406 5  95754907.09642
      4105.951        3199.451
  22440948.129    22440947.8374   22440949.8654  117927989.611 7  91891958.96544
       647.378         504.461
  23851016.696    23851016.6594   23851019.0034  125337936.746 6  97665934.83842
     -3264.663       -2543.904
 08  5  2 14 36  0.0000000  0 14G 3G 6G 7G 8G10G13G15G16G21G24G25G26
                                G27G29
  23705043.224    23705044.0794   23705043.8154  124570851.379 5  97068205.63641
      3225.434        2513.373
  22454123.606    22454123.4234   22454124.6974  117997220.837 7  91945910.19544
      1335.944        1041.002
  21994147.583    21994148.1004   21994148.8024  115580024.895 7  90062384.79245
       271.268         211.395
  23209993.101    23209992.7734   23209995.0524  121969397.670 6  95041075.45543
      3090.890        2408.502
  21310427.360    21310426.4604   21310428.4134  111987054.792 8  87262653.12246
     -1425.953       -1111.134
  24022599.703    24022599.1684   24022601.1604  126239603.354 5  98368534.89741
     -3650.023       -2844.160
  24642194.997    24642196.1744   24642198.0054  129495642.029 4 100905688.97941
      3896.867        3036.528
  22862908.158    22862907.6384   22862908.7274  120145403.879 6  93619802.38343
     -1976.511       -1540.122
  22497357.462    22497356.6764   22497357.4014  118224408.196 7  92122942.63844
      2426.893        1891.079
  21488326.746    21488326.5854   21488328.9784  112921921.014 8  87991122.74646
      -700.950        -546.185
  22669260.432    22669260.5074   22669261.7624  119127773.989 7  92826851.12144
     -1397.740       -1089.152
  23360903.107    23360902.4084   23360904.7954  122762393.650 5  95659014.87542
      4097.211        3192.635
  22437298.372    22437297.9374   22437300.0044  117908810.106 7  91877013.89844
       630.316         491.170
  23869676.715    23869677.1694   23869678.7854  125435995.554 6  97742344.25842
     -3273.586       -2550.808
 08  5  2 14 36 30.0000000  0 14G 3G 6G 7G 8G10G13G15G16G21G24G25G26
                                G27G29
  23686665.243    23686665.9804   23686668.4214  124474279.796 4  96992955.10841
      3212.273        2503.055
  22446548.423    22446548.8804   22446550.4534  117957417.452 7  91914894.57244
      1316.904        1026.157
  21992660.969    21992661.1584   21992661.6784  115572210.074 7  90056295.30945
       249.178         194.179
  23192386.058    23192385.2154   23192388.0414  121876870.033 6  94968975.98243
      3076.941        2397.635
  21318622.847    21318622.0404   21318624.0064  112030123.059 8  87296212.81046
     -1445.901       -1126.670
  24043460.028    24043460.0084   24043462.0174  126349223.824 5  98453953.36341
     -3658.331       -2850.639
  24619960.621    24619962.2704   24619963.4884  129378795.310 5 100814639.54041
      3892.055        3032.813
  22874241.239    22874241.2544   22874241.0534  120204959.962 6  93666209.72343
     -1994.284       -1553.998
  22483543.559    22483543.4194   22483544.1644  118151818.706 7  92066379.37644
      2411.852        1879.367
  21492384.070    21492383.6644   21492386.0024  112943241.125 8  88007735.81745
      -720.822        -561.667
  22677290.429    22677290.4424   22677291.9674  119169971.835 7  92859732.54044
     -1415.988       -1103.352
  23337537.510    23337537.9734   23337540.8114  122639616.782 5  95563344.61942
      4087.384        3184.981
  22433750.548    22433750.4214   22433752.7334  117890167.520 7  91862487.20444
       611.929         476.833
  23888390.588    23888390.4204   23888390.2934  125534334.504 6  97818971.98442
     -3283.079       -2558.227
 08  5  2 14 37  0.0000000  0 14G 3G 6G 7G 8G10G13G15G16G21G24G25G26
                                G27G29
  23668359.103    23668358.1514   23668359.1814  124378073.971 4  96917989.59841
      3200.458        2493.867
  22439079.185    22439079.5134   22439081.1784  117918164.355 7  91884307.73444
      1299.042        1012.246
  21991295.892    21991296.3614   21991297.0864  115565038.066 7  90050706.73145
       228.169         177.784
  23174854.618    23174854.5684   23174856.2044  121784741.356 6  94897187.41843
      3064.200        2387.706
  21326929.022    21326928.1084   21326929.8994  112073771.560 8  87330224.63345
     -1464.750       -1141.369
  24064365.826    24064364.7064   24064367.3154  126459081.956 5  98539557.07441
     -3665.938       -2856.608
  24597754.020    24597754.1074   24597757.3934  129262090.803 5 100723701.04441
      3887.351        3029.067
  22885671.333    22885670.8754   22885671.7924  120265025.637 6  93713014.13543
     -2010.958       -1567.007
  22469812.796    22469812.2404   22469812.9634  118079660.214 7  92010151.95944
      2397.939        1868.513
  21496550.182    21496549.9984   21496552.4054  112965135.317 8  88024796.21946
      -739.486        -576.225
  22685419.903    22685420.1674   22685421.1664  119212692.279 7  92893021.20844
     -1432.851       -1116.514
  23314229.084    23314228.8884   23314230.1954  122517121.810 5  95467894.03942
      4078.270        3177.868
  22430304.433    22430303.8374   22430305.6004  117872055.713 7  91848374.10444
       594.820         463.481
  23907155.672    23907155.2634   23907157.1294  125632944.494 6  97895810.88542
     -3291.428       -2564.719
 08  5  2 14 37 30.0000000  0 14G 3G 6G 7G 8G10G13G15G16G21G24G25G26
                                G27G29
  23650122.232    23650121.6304   23650125.2324  124282240.376 5  96843314.09741
      3187.908        2484.067
  22431715.006    22431714.9524   22431716.5754  117879466.124 7  91854153.26844
      1280.704         997.949
  21990054.187    21990054.4304   21990055.0304  115558512.532 7  90045621.88545
       206.791         161.129
  23157400.070    23157399.9594   23157402.4024  121693017.853 6  94825714.56943
      3050.515        2377.011
  21335345.714    21335344.9524   21335346.9834  112118002.474 8  87364690.27846
     -1484.072       -1156.413
  24085315.316    24085316.8574   24085317.9004  126569177.904 5  98625346.02741
     -3674.286       -2863.041
  24575575.237    24575574.0494   24575578.6254  129145534.869 5 100632878.34741
      3882.687        3025.420
  22897198.834    22897198.2794   22897199.0754  120325602.491 6  93760216.84943
     -2027.740       -1580.042
  22456164.126    22456164.1034   22456164.6344  118007938.099 7  91954264.60744
      2383.500        1857.274
  21500826.419    21500826.0514   21500828.6054  112987606.291 8  88042306.04245
      -758.684        -591.186
  22693649.407    22693649.0264   22693650.5464  119255937.202 7  92926718.55544
     -1450.277       -1130.094
  23290973.837    23290973.1614   23290975.5244  122394915.278 5  95372668.19842
      4068.652        3170.374
  22426959.295    22426959.2564   22426961.1964  117854479.044 7  91834677.99044
       576.971         449.580
  23925971.755    23925972.7844   23925973.9524  125731826.096 5  97972861.41542
     -3300.678       -2571.946
 08  5  2 14 38  0.0000000  0 14G 3G 6G 7G 8G10G13G15G16G21G24G25G26
                                G27G29
  23631957.058    23631956.4024   23631958.6254  124186780.202 5  96768929.57441
      3176.061        2474.850
  22424456.573    22424456.3404   22424458.6914  117841322.024 7  91824430.60044
      1261.991         983.379
  21988935.092    21988935.4334   21988935.8284  115552631.396 7  90041039.17445
       185.122         144.247
  23140023.369    23140022.6844   23140024.8354  121601700.221 6  94754557.96743
      3036.646        2366.232
  21343872.732    21343871.7944   21343873.7954  112162811.545 8  87399606.45145
     -1503.566       -1171.605
  24106311.631    24106312.7204   24106309.7594  126679507.098 5  98711316.81041
     -3681.356       -2868.567
  24553422.727    24553423.9224   24553423.8884  129029127.874 5 100542171.54941
      3877.533        3021.432
  22908822.297    22908822.1524   22908823.2254  120386686.008 6  93807814.35243
     -2044.787       -1593.314
  22442599.437    22442598.7514   22442598.9774  117936652.085 7  91898717.00644
      2368.627        1845.691
  21505211.568    21505211.2504   21505213.7994  113010651.214 8  88060263.12246
      -777.948        -606.182
  22701978.308    22701977.5754   22701979.1464  119299702.934 7  92960821.71744
     -1467.734       -1143.696
  23267773.472    23267773.9364   23267774.9364  122272998.474 5  95277668.12542
      4058.747        3162.649
  22423716.399    22423716.0294   22423717.6984  117837435.542 7  91821397.33544
       558.933         435.523
  23944839.524    23944838.7034   23944840.6374  125830974.679 6  98050120.04442
     -3309.800       -2579.031
 08  5  2 14 38 30.0000000  0 14G 3G 6G 7G 8G10G13G15G16G21G24G25G26
                                G27G29
  23613861.837    23613863.3274   23613865.0654  124091697.264 5  96694839.00741
      3162.539        2464.321
  22417304.125    22417303.8074   22417305.8054  117803734.517 7  91795141.64344
      1243.432         968.920
  21987938.960    21987939.2814   21987939.7034  115547396.243 7  90036959.81645
       163.547         127.450
  23122723.964    23122723.9664   23122725.8274  121510792.560 6  94683720.85043
      3023.194        2355.722
  21352509.431    21352508.7144   21352510.7764  112208198.849 8  87434973.20945
     -1522.807       -1186.597
  24127350.998    24127348.7804   24127354.0374  126790068.095 5  98797468.20341
     -3689.650       -2875.102
  24531300.423    24531302.2374   24531301.4534  128912873.402 5 100451583.78741
      3872.248        3017.339
  22920543.088    22920542.7284   22920543.3134  120448275.738 6  93855806.32543
     -2061.640       -1606.498
  22429117.532    22429117.0254   22429117.4844  117865806.316 7  91843512.55444
      2353.927        1834.220
  21509706.253    21509705.9614   21509708.5644  113034270.581 8  88078667.81745
      -797.142        -621.137
  22710405.131    22710405.0064   22710406.3654  119343989.234 7  92995330.50944
     -1485.226       -1157.316
  23244628.705    23244628.9074   23244631.3114  122151375.689 5  95182897.16142
      4049.142        3155.172
  22420575.060    22420574.6114   22420576.3764  117820927.109 7  91808533.60844
       541.157         421.695
  23963756.710    23963756.7174   23963758.0504  125930388.932 6  98127585.67142
     -3318.281       -2585.654
 08  5  2 14 39  0.0000000  0 14G 3G 6G 7G 8G10G13G15G16G21G24G25G26
                                G27G29
  23595843.195    23595844.2474   23595846.4304  123997008.094 4  96621055.28541
      3149.315        2453.979
  22410260.126    22410260.0524   22410261.5584  117766719.007 7  91766298.39244
      1224.000         953.759
  21987068.682    21987068.5394   21987069.0494  115542821.229 7  90033394.86645
       141.024         109.896
  23105506.275    23105505.8504   23105507.7294  121420311.785 6  94613216.37543
      3008.583        2344.367
  21361258.818    21361258.2184   21361260.1534  112254177.317 8  87470800.61445
     -1542.891       -1202.270
  24148435.406    24148434.1004   24148435.8804  126900872.139 5  98883808.93441
     -3698.091       -2881.662
  24509213.335    24509211.8444   24509210.6014  128796788.131 5 100361127.75241
      3866.093        3012.623
  22932361.897    22932360.9074   22932362.0174  120510383.318 6  93904201.83143
     -2079.315       -1620.282
  22415723.178    22415722.5114   22415722.9044  117795416.727 7  91788663.51244
      2338.390        1822.105
  21514312.731    21514312.4344   21514314.9234  113058477.729 8  88097530.52046
      -817.071        -636.681
  22718933.680    22718934.0174   22718935.0694  119388808.702 7  93030254.75544
     -1503.436       -1171.528
  23221544.958    23221544.8094   23221546.3334  122030064.359 5  95088368.89742
      4038.038        3146.481
  22417538.033    22417537.6944   22417539.4014  117804968.256 7  91796098.12344
       522.453         407.092
  23982728.538    23982727.5644   23982729.7864  126030080.516 6  98205267.39942
     -3327.864       -2593.090
 08  5  2 14 39 30.0000000  0 14G 3G 6G 7G 8G10G13G15G16G21G24G25G26
                                G27G29
  23577898.708    23577899.3604   23577900.9934  123902709.776 4  96547576.15441
      3136.520        2444.068
  22403324.049    22403324.1614   22403325.9864  117730270.753 7  91737897.15244
      1205.523         939.346
  21986322.649    21986322.3794   21986322.8994  115538900.347 7  90030339.62045
       120.039          93.527
  23088367.927    23088368.3334   23088370.0044  121330254.457 6  94543041.86443
      2994.916        2333.684
  21370119.117    21370118.4484   21370120.4514  112300738.790 8  87507082.27945
     -1561.570       -1216.818
  24169565.864    24169564.9474   24169566.3184  127011910.595 5  98970332.36641
     -3704.919       -2887.017
  24487156.223    24487153.6244   24487153.6914  128680868.686 5 100270801.00141
      3861.146        3008.696
  22944276.862    22944276.4744   22944277.7494  120573000.765 6  93952994.62243
     -2095.413       -1632.816
  22402414.645    22402413.9584   22402414.4134  117725479.336 7  91734166.85844
      2323.833        1810.773
  21519029.790    21519029.4374   21519032.0834  113083265.932 8  88116845.99346
      -835.735        -651.231
  22727563.139    22727562.6624   22727564.1984  119434153.931 7  93065588.69044
     -1520.150       -1184.554
  23198517.418    23198518.2114   23198520.7614  121909061.800 5  94994081.25342
      4028.310        3138.927
  22414604.347    22414604.3464   22414606.1954  117789553.600 7  91784086.69944
       504.916         393.419
  24001749.480    24001749.4394   24001751.1104  126130040.667 6  98283158.41342
     -3336.270       -2599.672
 08  5  2 14 40  0.0000000  0 14G 3G 6G 7G 8G10G13G15G16G21G24G25G26
                                G27G29
  23560028.942    23560029.3654   23560032.7674  123808804.754 5  96474403.42241
      3122.896        2433.380
  22396497.103    22396496.5354   22396498.8484  117694390.192 7  91709938.25444
      1186.063         924.206
  21985700.735    21985700.8284   21985701.0444  115535633.343 7  90027793.89845
        97.336          75.835
  23071312.202    23071311.9454   23071314.1654  121240622.535 6  94473198.84343
      2979.957        2322.046
  21379090.192    21379089.3764   21379091.5354  112347880.855 7  87543816.35545
     -1581.660       -1232.472
  24190739.302    24190738.0794   24190742.5504  127123180.261 5  99057036.02141
     -3713.790       -2893.909
  24465125.261    24465122.8654   24465127.7494  128565116.900 5 100180604.85241
      3854.899        3003.752
  22956289.573    22956288.9884   22956290.1004  120636125.213 6  94002182.48243
     -2113.194       -1646.658
  22389192.299    22389191.5184   22389191.9274  117655995.763 7  91680023.79644
      2307.879        1798.344
  21523856.767    21523856.9184   21523859.3704  113108633.513 8  88136612.93946
      -855.920        -666.959
  22736291.636    22736291.2704   22736292.8264  119480022.607 7  93101330.51444
     -1538.272       -1198.658
  23175550.801    23175552.4384   23175552.9114  121788370.467 5  94900036.09442
      4017.218        3130.274
  22411775.117    22411774.5784   22411776.2984  117774682.861 7  91772499.10544
       485.857         378.597
  24020821.940    24020822.3444   24020822.3764  126230265.992 6  98361256.05642
     -3345.868       -2607.155
 08  5  2 14 40 30.0000000  0 14G 3G 6G 7G 8G10G13G15G16G21G24G25G26
                                G27G29
  23542234.836    23542233.4544   23542236.8484  123715293.193 5  96401537.27541
      3110.063        2423.447
  22389776.459    22389776.3654   22389778.2024  117659076.335 7  91682420.94844
      1167.704         909.890
  21985202.993    21985203.1154   21985203.3924  115533017.945 7  90025755.92045
        76.251          59.423
  23054336.961    23054336.3974   23054338.9664  121151416.930 6  94403687.99543
      2966.223        2311.313
  21388170.304    21388169.6654   21388171.9264  112395599.341 8  87580999.59645
     -1600.269       -1246.967
  24211954.936    24211956.2014   24211957.2834  127234675.651 5  99143915.40941
     -3720.315       -2898.910
  24443128.378    24443127.6424   24443127.2214  128449532.696 4 100090539.30541
      3849.498        2999.559
  22968397.426    22968397.1064   22968397.6114  120699752.303 6  94051762.02143
     -2129.380       -1659.261
  22376056.128    22376055.2494   22376056.2844  117586965.490 7  91626233.96844
      2293.323        1786.978
  21528793.938    21528793.7274   21528796.2624  113134577.154 8  88156828.76245
      -874.473        -681.409
  22745118.650    22745118.4234   22745119.8954  119526410.813 7  93137477.16344
     -1555.026       -1211.721
  23152642.783    23152644.1484   23152644.9664  121667991.312 5  94806234.16942
      4007.300        3122.551
  22409048.499    22409047.9504   22409049.5494  117760353.908 7  91761333.67344
       468.521         365.066
  24039943.537    24039943.7584   24039946.0264  126330751.693 5  98439556.58842
     -3353.839       -2613.403
 08  5  2 14 41  0.0000000  0 14G 3G 6G 7G 8G10G13G15G16G21G24G25G26
                                G27G29
  23524517.105    23524516.8454   23524518.5394  123622182.442 5  96328983.48641
      3096.452        2412.842
  22383165.422    22383165.2764   22383167.1744  117624334.456 7  91655349.34944
      1148.034         894.573
  21984829.956    21984830.1544   21984830.5484  115531057.716 7  90024228.46445
        53.944          42.022
  23037444.242    23037443.8204   23037446.2804  121062644.337 6  94334514.57243
      2951.454        2299.841
  21397361.308    21397360.4184   21397362.6314  112443897.121 8  87618634.20945
     -1620.048       -1262.381
  24233216.241    24233215.8254   24233219.7864  127346398.140 5  99230971.78841
     -3728.523       -2905.332
  24421167.844    24421167.1104   24421170.2574  128334123.020 5 100000609.77441
      3843.512        2994.886
  22980601.101    22980600.7844   22980601.3424  120763883.971 6  94101734.73243
     -2146.433       -1672.556
  22363007.493    22363006.9474   22363007.2744  117518394.890 7  91572802.31644
      2277.653        1774.800
  21533841.217    21533840.8804   21533843.4804  113161100.412 8  88177496.23645
      -894.201        -696.783
  22754045.943    22754045.6364   22754046.8904  119573321.168 7  93174030.68944
     -1572.769       -1225.526
  23129797.433    23129797.2394   23129799.4214  121547931.806 5  94712681.33342
      3996.145        3113.901
  22406425.443    22406425.2414   22406426.8994  117746571.515 7  91750594.14244
       449.854         350.521
  24059115.697    24059116.2114   24059116.5124  126431499.395 5  98518061.26342
     -3363.196       -2620.644
 08  5  2 14 41 30.0000000  0 14G 3G 6G 7G 8G10G13G15G16G21G24G25G26
                                G27G29
  23506875.155    23506874.9994   23506876.3794  123529476.373 5  96256745.04141
      3083.995        2403.107
  22376664.034    22376663.5584   22376665.2824  117590167.390 7  91628725.63044
      1129.480         880.107
  21984582.203    21984582.2774   21984582.8714  115529755.125 7  90023213.45245
        32.659          25.457
  23020634.275    23020634.2874   23020636.0784  120974308.942 6  94265681.81243
      2937.275        2288.795
  21406662.323    21406661.5964   21406663.6704  112492774.164 7  87656720.20245
     -1638.693       -1276.898
  24254519.435    24254520.0114   24254520.1944  127458347.136 5  99318204.72041
     -3735.781       -2910.917
  24399239.483    24399239.3554   24399239.8434  128218892.284 5  99910819.67941
      3838.087        2990.744
  22992901.051    22992900.7704   22992901.2734  120828519.515 6  94152100.07943
     -2162.785       -1685.281
  22350047.201    22350046.5014   22350046.9954  117450287.669 7  91519731.71644
      2262.572        1763.042
  21538998.773    21538998.6234   21539001.0414  113188203.955 8  88198615.86946
      -913.073        -711.480
  22763071.337    22763071.4244   22763073.0904  119620753.671 7  93210991.07644
     -1589.558       -1238.618
  23107014.163    23107012.8284   23107014.8514  121428196.838 5  94619381.37942
      3985.644        3105.677
  22403907.346    22403907.0554   22403908.6024  117733337.858 7  91740282.19545
       432.133         336.725
  24078336.073    24078336.6054   24078337.7714  126532507.781 5  98596769.02542
     -3371.054       -2626.814
 08  5  2 14 42  0.0000000  0 14G 3G 6G 7G 8G10G13G15G16G21G24G25G26
                                G27G29
  23489311.544    23489310.0334   23489313.7394  123437174.793 5  96184821.81541
      3069.793        2392.085
  22370271.022    22370270.9234   22370272.8254  117556573.124 7  91602548.28344
      1110.159         865.062
  21984458.617    21984458.9604   21984459.1824  115529106.319 7  90022707.87745
        10.595           8.258
  23003907.675    23003907.8704   23003909.2864  120886410.376 6  94197189.44043
      2922.511        2277.258
  21416072.609    21416071.6774   21416073.9804  112542225.413 8  87695253.62945
     -1658.039       -1291.979
  24275865.694    24275863.5144   24275865.9224  127570516.450 5  99405609.34541
     -3742.915       -2916.574
  24377348.219    24377347.5244   24377347.0314  128103839.516 5  99821168.26641
      3832.300        2986.268
  23005295.548    23005295.7294   23005295.8404  120893653.607 6  94202853.89843
     -2179.597       -1698.384
  22337174.524    22337174.1914   22337174.9504  117382642.743 7  91467021.38944
      2247.066        1750.952
  21544266.023    21544265.8804   21544268.3624  113215883.743 8  88220184.53746
      -932.403        -726.548
  22772195.905    22772195.7774   22772197.5824  119668703.492 7  93248354.57644
     -1607.068       -1252.259
  23084290.386    23084289.9234   23084290.9604  121308786.234 5  94526334.17242
      3975.029        3097.384
  22401492.531    22401492.7834   22401494.1544  117720650.120 7  91730395.63445
       413.729         322.384
  24097607.243    24097606.0434   24097608.3124  126633771.323 5  98675675.67242
     -3379.723       -2633.531
 08  5  2 14 42 30.0000000  0 14G 3G 6G 7G 8G10G13G15G16G21G24G25G26
                                G27G29
  23471823.547    23471823.8414   23471825.8664  123345277.125 5  96113213.28141
      3055.767        2381.126
  22363986.796    22363986.4074   22363988.1194  117523549.011 7  91576815.20744
      1090.928         850.083
  21984459.143    21984459.2394   21984459.4254  115529107.943 7  90022709.13445
       -11.031          -8.581
  22987264.755    22987263.7494   22987266.2314  120798947.636 6  94129036.67743
      2907.918        2265.906
  21425591.105    21425590.3034   21425592.2324  112592245.231 7  87734230.10945
     -1677.012       -1306.755
  24297251.474    24297254.1574   24297252.2404  127682899.852 5  99493180.74841
     -3749.685       -2921.906
  24355485.498    24355485.2134   24355488.4114  127988963.294 5  99731654.35241
      3826.114        2981.465
  23017784.119    23017783.0194   23017784.7704  120959280.183 6  94253991.44743
     -2195.831       -1711.044
  22324390.073    22324389.3554   22324390.0084  117315458.507 7  91414670.04444
      2231.655        1738.962
  21549642.151    21549641.9834   21549644.4284  113244134.899 8  88242198.42246
      -951.385        -741.324
  22781418.251    22781418.2184   22781419.5414  119717165.354 7  93286117.06744
     -1624.211       -1265.602
  23061627.516    23061627.6074   23061629.5044  121189699.743 5  94433539.50142
      3964.198        3088.996
  22399181.609    22399181.4614   22399183.1994  117708504.601 7  91720931.58045
       395.600         308.269
  24116923.002    24116923.8674   24116923.6324  126735283.841 5  98754776.30542
     -3387.990       -2639.966
 08  5  2 14 43  0.0000000  0 14G 3G 6G 7G 8G10G13G15G16G21G24G25G26
                                G27G29
  23454414.884    23454415.9494   23454415.8094  123253795.684 5  96041929.00741
      3042.626        2370.898
  22357812.844    22357812.7694   22357814.6144  117491105.951 7  91551534.89744
      1072.047         835.336
  21984584.630    21984584.9424   21984585.4214  115529769.475 7  90023224.61045
       -32.744         -25.528
  22970705.753    22970705.4484   22970707.9644  120711933.730 6  94061233.64843
      2893.198        2254.437
  21435219.260    21435218.5034   21435220.8234  112642841.982 8  87773656.13845
     -1695.758       -1321.374
  24318677.401    24318678.7444   24318681.0834  127795504.140 5  99580924.31441
     -3756.713       -2927.304
  24333660.139    24333661.1334   24333656.1424  127874276.050 5  99642287.71141
      3820.042        2976.628
  23030367.184    23030367.3144   23030367.8544  121025406.877 6  94305518.72243
     -2212.221       -1723.832
  22311694.812    22311694.5314   22311694.9964  117248746.465 7  91362686.63844
      2216.219        1726.916
  21555128.892    21555128.4124   21555130.8584  113272966.362 8  88264664.50846
      -970.273        -756.053
  22790738.949    22790738.8434   22790740.3544  119766147.348 7  93324284.85544
     -1641.039       -1278.744
  23039030.016    23039030.1984   23039033.4164  121070950.313 5  94341007.50242
      3952.888        3080.197
  22396975.195    22396975.1624   22396977.0354  117696911.153 7  91711897.70944
       377.574         294.218
  24136289.589    24136289.9294   24136291.8934  126837052.274 5  98834076.32742
     -3396.152       -2646.370
 08  5  2 14 43 30.0000000  0 14G 3G 6G 7G 8G10G13G15G16G21G24G25G26
                                G27G29
  23437084.364    23437083.6454   23437086.5534  123162721.924 5  95970962.44641
      3029.243        2360.456
  22351747.804    22351747.9324   22351749.5324  117459234.027 7  91526699.62744
      1053.221         820.699
  21984834.352    21984834.4244   21984834.8104  115531080.129 7  90024245.88645
       -54.168         -42.208
  22954231.842    22954231.5174   22954233.7294  120625359.861 6  93993773.50943
      2878.841        2243.250
  21444954.949    21444954.0324   21444956.1994  112694002.640 8  87813521.56945
     -1714.410       -1335.897
  24340144.707    24340145.7194   24340147.1554  127908315.785 5  99668829.42341
     -3763.274       -2932.506
  24311870.505    24311871.2054   24311870.9404  127759769.615 5  99553061.93341
      3814.106        2972.074
  23043043.086    23043043.1154   23043044.5094  121092020.453 6  94357425.41743
     -2228.206       -1736.276
  22299088.371    22299088.0904   22299088.3244  117182498.079 7  91311064.55444
      2200.744        1714.865
  21560723.359    21560722.8764   21560725.4254  113302365.989 8  88287573.31245
      -989.127        -770.748
  22800156.740    22800156.4434   22800158.3874  119815636.854 7  93362848.10244
     -1657.804       -1291.815
  23016494.767    23016496.3444   23016499.2064  120952530.148 5  94248732.06042
      3942.000        3071.644
  22394872.840    22394872.0754   22394873.9854  117685859.566 7  91703286.06844
       359.755         280.348
  24155702.139    24155701.7564   24155703.3224  126939062.965 5  98913565.16442
     -3404.053       -2652.551
 08  5  2 14 44  0.0000000  0 14G 3G 6G 7G 8G10G13G15G16G21G24G25G26
                                G27G29
  23419831.645    23419831.1924   23419835.1764  123072061.418 5  95900317.93341
      3015.634        2349.876
  22345792.169    22345791.9354   22345793.9744  117427936.832 7  91502312.18744
      1033.630         805.419
  21985207.299    21985207.7744   21985208.2454  115533041.910 7  90025774.54345
       -76.280         -59.445
  22937841.712    22937841.0834   22937843.6944  120539231.416 6  93926660.48143
      2863.608        2231.417
  21454798.092    21454797.2844   21454799.4164  112745728.576 8  87853827.47345
     -1733.650       -1350.901
  24361653.762    24361651.5724   24361652.2664  128021334.578 5  99756896.00041
     -3770.843       -2938.397
  24290117.040    24290116.2004   24290118.0494  127645448.855 5  99463980.81341
      3807.604        2966.839
  23055812.377    23055812.1344   23055812.5884  121159121.217 6  94409711.73143
     -2244.720       -1749.172
  22286570.939    22286570.3244   22286570.9554  117116717.878 7  91259807.28844
      2184.804        1702.429
  21566426.512    21566425.9694   21566428.3384  113332335.865 8  88310926.47145
     -1008.575        -785.913
  22809670.779    22809670.9914   22809672.1154  119865634.736 6  93401807.49144
     -1674.866       -1305.119
  22994025.589    22994025.3714   22994027.3894  120834445.238 5  94156717.85642
      3930.788        3062.949
  22392873.089    22392872.7144   22392874.5284  117675352.734 7  91695098.92644
       341.125         265.795
  24175159.763    24175160.2684   24175161.9794  127041315.809 5  98993242.64842
     -3412.520       -2659.101
 08  5  2 14 44 30.0000000  0 14G 3G 6G 7G 8G10G13G15G16G21G24G25G26
                                G27G29
  23402656.929    23402658.6114   23402660.4744  122981813.148 5  95829994.70242
      2999.890        2337.553
  22339945.452    22339944.9954   22339947.2284  117397210.913 6  91478369.89744
      1013.486         789.722
  21985703.865    21985704.0704   21985704.6944  115535650.537 7  90027807.22845
       -98.806         -76.998
  22921536.044    22921535.9684   22921537.9794  120453546.372 6  93859892.93243
      2847.780        2219.051
  21464747.589    21464746.8534   21464748.8754  112798013.106 7  87894568.64945
     -1753.269       -1366.193
  24383196.682    24383199.6124   24383200.3074  128134553.343 5  99845118.34841
     -3778.332       -2944.198
  24268396.702    24268396.1734   24268397.3154  127531311.932 5  99375043.05241
      3800.322        2961.342
  23068672.874    23068672.2744   23068673.0284  121226702.564 6  94462372.50443
     -2261.920       -1762.548
  22274141.748    22274141.3134   22274141.8654  117051403.385 7  91208912.89844
      2168.303        1689.581
  21572236.891    21572236.4434   21572238.9584  113362870.108 8  88334719.39245
     -1028.292        -801.268
  22819280.287    22819280.4894   22819282.2174  119916134.961 6  93441158.31744
     -1692.837       -1319.111
  22971616.649    22971618.0554   22971620.5754  120716694.176 5  94064963.82842
      3918.091        3053.013
  22390976.404    22390976.3114   22390978.1694  117665386.257 7  91687332.83344
       322.113         250.970
  24194662.159    24194661.8854   24194664.2214  127143804.180 5  99073103.67142
     -3421.080       -2665.762
 08  5  2 14 45  0.0000000  0 14G 3G 6G 7G 8G10G13G15G16G21G24G25G26
                                G27G29
  23385564.441    23385563.6174   23385565.5424  122891982.687 6  95759996.98042
      2987.146        2327.635
  22334207.693    22334207.7894   22334209.7524  117367061.387 7  91454876.77744
       995.061         775.378
  21986324.149    21986324.3624   21986324.9604  115538909.901 7  90030346.97945
      -119.695         -93.258
  22905316.895    22905316.9484   22905318.6394  120368311.642 7  93793476.27343
      2833.397        2207.847
  21474803.788    21474802.8824   21474804.7174  112850858.263 7  87935746.68045
     -1771.053       -1380.041
  24404779.589    24404780.6334   24404784.4654  128247973.736 5  99933497.81941
     -3784.365       -2948.838
  24246717.643    24246715.1524   24246717.3334  127417365.149 5  99286253.37841
      3794.738        2956.992
  23081624.701    23081625.0254   23081625.5674  121294765.830 6  94515408.78843
     -2276.967       -1774.270
  22261802.387    22261802.0994   22261802.7144  116986560.473 7  91158385.98244
      2153.433        1677.995
  21578155.225    21578155.1214   21578157.2464  113393971.827 8  88358954.49345
     -1046.398        -815.390
  22828986.643    22828986.6264   22828987.7424  119967139.670 6  93480902.24244
     -1708.769       -1331.510
  22949275.707    22949276.0694   22949277.7064  120599284.363 5  93973475.68642
      3907.939        3045.149
  22389183.647    22389183.3024   22389185.0024  117655964.104 7  91679990.88644
       304.633         237.382
  24214210.695    24214210.8244   24214213.2284  127246529.020 5  99153148.95842
     -3428.205       -2671.332
 08  5  2 14 45 30.0000000  0 14G 3G 6G 7G 8G10G13G15G16G21G24G25G26
                                G27G29
  23368551.952    23368551.3284   23368552.1814  122802578.310 6  95690331.20841
      2972.702        2316.410
  22328581.674    22328581.4384   22328583.6414  117337494.302 7  91431837.48144
       975.360         760.032
  21987069.218    21987069.5874   21987069.8944  115542824.538 7  90033397.33545
      -141.940        -110.597
  22889184.730    22889183.6934   22889186.0014  120283534.977 6  93727416.57343
      2817.765        2195.642
  21484967.392    21484966.2604   21484968.1814  112904267.769 8  87977364.47345
     -1790.111       -1394.889
  24426400.876    24426404.1644   24426405.1154  128361597.673 4 100022035.92741
     -3791.253       -2954.193
  24225070.982    24225070.7564   24225070.2254  127303616.361 6  99197617.94341
      3787.854        2951.554
  23094669.229    23094668.3444   23094669.7854  121363314.043 6  94568822.94143
     -2293.354       -1787.025
  22249554.212    22249553.9394   22249554.6814  116922196.525 7  91108232.31444
      2136.995        1665.192
  21584182.786    21584182.0134   21584184.5254  113425645.097 8  88383634.95445
     -1065.727        -830.443
  22838789.330    22838789.1814   22838790.5334  120018652.271 7  93521041.92144
     -1725.933       -1344.898
  22926999.550    22926999.1034   22927001.9624  120482224.105 6  93882259.94542
      3895.651        3035.585
  22387495.506    22387494.7854   22387496.7184  117647091.832 7  91673077.41844
       286.081         222.912
  24233803.954    24233803.3824   24233805.7174  127349492.776 5  99233380.41742
     -3436.395       -2677.676
 08  5  2 14 46  0.0000000  0 14G 3G 6G 7G 8G10G13G15G16G21G24G25G26
                                G27G29
  23351619.330    23351619.6584   23351620.5104  122713605.510 5  95621001.72041
      2958.588        2305.404
  22323066.614    22323066.5624   22323068.1864  117308513.470 7  91409255.00744
       956.153         745.036
  21987939.180    21987939.6494   21987940.0504  115547397.111 7  90036960.36745
      -163.537        -127.428
  22873139.926    22873139.6604   22873141.9184  120199221.564 6  93661717.81943
      2802.611        2183.851
  21495238.094    21495237.2944   21495239.4104  112958241.931 7  88019422.25145
     -1808.604       -1409.290
  24448062.924    24448061.3924   24448065.7134  128475424.976 5 100110732.43741
     -3797.736       -2959.221
  24203462.032    24203461.6904   24203459.0814  127190070.817 6  99109140.97241
      3781.243        2946.401
  23107805.793    23107805.5694   23107805.3934  121432347.623 6  94622615.34843
     -2309.248       -1799.421
  22237398.647    22237398.1784   22237398.4144  116858316.047 7  91058455.36144
      2121.202        1652.895
  21590318.914    21590318.4244   21590320.8484  113457891.698 8  88408762.17745
     -1084.545        -845.101
  22848688.685    22848688.2164   22848690.0474  120070673.792 7  93561578.16744
     -1742.653       -1357.926
  22904791.399    22904792.1304   22904794.1424  120365519.047 5  93791320.96142
      3883.935        3026.420
  22385912.150    22385911.7904   22385913.8534  117638772.705 7  91666594.97044
       268.048         208.852
  24253441.583    24253443.2154   24253443.0034  127452695.776 5  99313798.32642
     -3443.914       -2683.528
 08  5  2 14 46 30.0000000  0 14G 3G 6G 7G 8G10G13G15G16G21G24G25G26
                                G27G29
  23334769.697    23334769.4774   23334771.9134  122625058.301 5  95552003.92741
      2943.866        2293.936
  22317662.304    22317661.7694   22317663.5984  117280110.752 7  91387123.01744
       936.479         729.700
  21988932.927    21988933.1064   21988933.6984  115552618.526 7  90041028.99245
      -185.414        -144.480
  22857182.420    22857182.5054   22857184.5484  120115365.149 6  93596375.17144
      2787.041        2171.700
  21505614.348    21505613.6174   21505615.7224  113012770.286 8  88061911.86945
     -1827.355       -1423.907
  24469760.967    24469759.5624   24469764.6264  128589444.561 5 100199578.89841
     -3804.776       -2964.760
  24181888.929    24181891.1134   24181893.3594  127076721.976 5  99020817.27241
      3774.452        2941.136
  23121032.607    23121032.2674   23121033.5204  121501855.358 6  94676777.21943
     -2325.175       -1811.823
  22225333.085    22225332.7664   22225332.8064  116794911.850 7  91009049.53044
      2104.944        1640.222
  21596562.375    21596561.8954   21596564.3884  113490701.307 8  88434328.10945
     -1103.569        -859.916
  22858682.611    22858682.8224   22858684.0714  120123193.444 7  93602502.55544
     -1759.660       -1371.151
  22882650.411    22882650.5944   22882652.1934  120249163.725 6  93700654.49942
      3872.221        3017.299
  22384432.666    22384432.2664   22384434.1104  117630997.558 7  91660536.40444
       249.602         194.480
  24273124.903    24273125.9934   24273126.4104  127556126.372 5  99394393.56042
     -3451.770       -2689.674
 08  5  2 14 47  0.0000000  0 14G 3G 6G 7G 8G10G13G15G16G21G24G25G26
                                G27G29
  23318002.543    23318001.9154   23318004.3184  122536941.869 6  95483341.81942
      2929.791        2282.970
  22312367.876    22312367.6554   22312369.2764  117252289.708 7  91365444.28044
       918.044         715.375
  21990050.598    21990050.7134   21990051.1984  115558491.062 7  90045604.97545
      -206.353        -160.781
  22841313.344    22841313.3004   22841314.5864  120031970.990 6  93531392.73043
      2772.462        2160.366
  21516096.462    21516095.6344   21516097.6674  113067853.547 7  88104833.88345
     -1845.012       -1437.667
  24491495.519    24491496.1434   24491492.8204  128703656.209 5 100288574.98641
     -3809.727       -2968.634
  24160364.178    24160361.1124   24160361.2874  126963575.543 6  98932651.32441
      3768.479        2936.531
  23134349.365    23134349.0634   23134350.2784  121571837.374 6  94731308.66243
     -2340.357       -1823.719
  22213358.963    22213358.4564   22213359.0234  116731988.275 7  90960018.20344
      2089.610        1628.275
  21602913.087    21602913.0044   21602915.0904  113524075.641 8  88460334.08245
     -1121.592        -873.953
  22868771.544    22868771.8184   22868773.0144  120176212.187 6  93643815.85944
     -1775.108       -1383.198
  22860574.599    22860575.7194   22860578.1744  120133163.881 6  93610265.02642
      3860.865        3008.462
  22383057.264    22383056.6734   22383058.5224  117623769.143 7  91654903.86144
       232.012         180.799
  24292850.078    24292849.9834   24292852.1264  127659784.620 5  99475166.18242
     -3459.054       -2695.291
 08  5  2 14 47 30.0000000  0 14G 3G 6G 7G 8G10G13G15G16G21G24G25G26
                                G27G29
  23301316.963    23301316.9494   23301319.3174  122449261.292 6  95415019.30042
      2915.166        2271.553
  22307184.542    22307184.9824   22307186.1974  117225053.805 7  91344221.52144
       898.082         699.806
  21991292.228    21991292.5714   21991292.9674  115565016.969 7  90050690.08645
      -228.644        -178.175
  22825533.223    22825532.6074   22825534.3404  119949044.293 6  93466774.54843
      2756.073        2147.574
  21526683.879    21526683.4774   21526685.3614  113123492.377 8  88148188.80445
     -1864.079       -1452.551
  24513265.723    24513267.4064   24513265.9444  128818059.519 5 100377720.34041
     -3816.569       -2973.915
  24138868.065    24138868.4464   24138870.4994  126850635.556 5  98844646.13241
      3760.999        2930.650
  23147757.680    23147756.8884   23147757.1994  121642293.816 6  94786209.77843
     -2356.633       -1836.350
  22201477.405    22201476.9994   22201477.4904  116669550.237 7  90911365.18844
      2073.004        1615.325
  21609371.874    21609371.6044   21609373.9124  113558016.217 8  88486781.28245
     -1140.973        -889.084
  22878956.565    22878956.1414   22878957.2844  120229730.754 7  93685518.63144
     -1792.487       -1396.750
  22838570.467    22838571.0704   22838572.5194  120017525.440 6  93520157.18242
      3848.272        2998.699
  22381786.189    22381785.8344   22381787.6554  117617090.231 7  91649699.50944
       213.159         166.077
  24312619.118    24312619.5794   24312620.8024  127763670.111 5  99556115.85442
     -3466.940       -2701.569
 08  5  2 14 48  0.0000000  0 14G 3G 6G 7G 8G10G13G15G16G21G24G25G26
                                G27G29
  23284716.067    23284715.0164   23284717.5744  122362021.294 5  95347040.10242
      2900.689        2260.237
  22302113.939    22302113.5724   22302115.6394  117198405.818 7  91323456.87144
       878.488         684.517
  21992658.901    21992658.9524   21992659.5824  115572197.761 7  90056285.50645
      -250.350        -195.075
  22809842.280    22809841.7714   22809843.6164  119866589.708 6  93402524.25243
      2740.603        2135.525
  21537377.809    21537377.0394   21537378.9794  113179686.727 7  88191976.59645
     -1882.286       -1466.725
  24535069.912    24535073.3534   24535073.4134  128932653.565 5 100467014.28041
     -3822.717       -2978.794
  24117412.153    24117416.9644   24117417.8474  126737907.218 5  98756805.89042
      3754.069        2925.211
  23161255.156    23161254.3524   23161255.4664  121713224.129 6  94841480.13243
     -2372.190       -1848.458
  22189689.002    22189688.5814   22189689.0844  116607601.756 7  90863093.64744
      2056.773        1602.676
  21615938.289    21615937.9884   21615940.3104  113592523.304 7  88513669.92445
     -1159.606        -903.602
  22889236.069    22889235.2264   22889236.9364  120283748.948 7  93727610.72544
     -1808.780       -1409.444
  22816634.736    22816635.1244   22816636.6124  119902253.104 6  93430334.59442
      3836.191        2989.230
  22380620.410    22380619.5474   22380621.5034  117610963.052 7  91644925.07044
       194.888         151.851
  24332432.565    24332432.4574   24332432.2244  127867782.325 5  99637242.20742
     -3474.177       -2707.113
 08  5  2 14 48 30.0000000  0 14G 3G 6G 7G 8G10G13G15G16G21G24G25G26
                                G27G29
  23268197.609    23268197.5544   23268199.0004  122275216.677 6  95279400.16842
      2886.056        2248.868
  22297153.666    22297153.4074   22297155.0054  117172338.686 7  91303144.82844
       859.071         669.391
  21994148.020    21994148.6794   21994149.0604  115580025.153 7  90062384.76845
      -271.940        -211.899
  22794240.575    22794240.1044   22794242.4384  119784601.937 7  93338637.71144
      2725.129        2123.479
  21548175.058    21548174.0764   21548175.9464  113236426.538 7  88236189.43545
     -1900.593       -1480.982
  24556911.526    24556913.7864   24556914.6824  129047428.250 5 100556449.00941
     -3829.523       -2984.079
  24096007.076    24096006.0774   24096006.4964  126625384.980 6  98669126.24542
      3746.876        2919.584
  23174840.221    23174840.5784   23174841.3554  121784618.267 6  94897111.90043
     -2387.585       -1860.496
  22177992.897    22177992.1094   22177992.7754  116546136.466 7  90815198.60744
      2040.594        1590.059
  21622610.865    21622610.6024   21622612.7834  113627587.802 8  88540992.90345
     -1178.271        -918.139
  22899608.281    22899608.1064   22899609.3524  120338257.483 7  93770084.90844
     -1825.202       -1422.267
  22794768.461    22794768.3824   22794770.2354  119787342.599 6  93340793.97742
      3824.267        2979.954
  22379557.795    22379557.5654   22379559.4014  117605379.675 7  91640574.37144
       176.818         137.778
  24352283.492    24352284.3084   24352285.4824  127972110.760 5  99718537.10942
     -3481.281       -2712.635
 08  5  2 14 49  0.0000000  0 13G 3G 6G 7G 8G10G15G16G21G24G25G26G27
                                G29
  23251762.384    23251761.3214   23251763.8374  122188847.008 6  95212099.15442
      2871.073        2237.195
  22292303.405    22292303.0304   22292304.5824  117146850.308 7  91283283.73944
       839.420         654.083
  21995760.269    21995760.4684   21995760.9624  115588496.101 7  90068985.50145
      -293.639        -228.813
  22778727.508    22778727.2574   22778729.1284  119703080.489 6  93275114.51943
      2709.125        2111.014
  21559074.857    21559074.1494   21559076.2714  113293707.178 7  88280823.68645
     -1918.825       -1495.179
  24074633.176    24074632.0354   24074632.1604  126513068.183 6  98581606.73342
      3740.089        2914.401
  23188513.699    23188513.1694   23188513.8814  121856470.957 6  94953101.00443
     -2403.278       -1872.690
  22166388.017    22166387.5594   22166387.6064  116485153.413 8  90767679.32744
      2024.186        1577.287
  21629388.969    21629388.4844   21629390.8934  113663205.853 8  88568747.22145
     -1196.960        -932.692
  22910072.990    22910073.2684   22910074.3354  120393251.343 7  93812937.24944
     -1841.736       -1435.094
  22772970.875    22772971.1854   22772971.9324  119672793.955 6  93251535.32542
      3811.555        2970.056
  22378598.063    22378597.8954   22378599.5154  117600337.174 7  91636645.12744
       158.694         123.670
  24372177.415    24372178.7694   24372179.3384  128076649.628 5  99799995.89442
     -3488.682       -2718.429
 08  5  2 14 49 30.0000000  0 13G 3G 6G 7G 8G10G15G16G21G24G25G26G27
                                G29
  23235412.390    23235412.3064   23235414.8364  122102929.391 6  95145150.41043
      2856.080        2225.522
  22287565.663    22287565.6634   22287567.7384  117121955.381 7  91263885.08044
       819.766         638.766
  21997497.152    21997497.5714   21997497.8404  115597623.691 7  90076097.89245
      -315.266        -245.658
  22763306.356    22763305.9784   22763307.8744  119622041.820 7  93211967.53044
      2692.785        2098.286
  21570080.198    21570079.6184   21570081.6354  113351540.700 8  88325888.74845
     -1937.224       -1509.521
  24053303.022    24053301.0724   24053301.5924  126400973.428 6  98494260.24542
      3732.556        2908.516
  23202276.157    23202276.2314   23202275.8024  121928793.505 6  95009456.22843
     -2418.984       -1884.962
  22154878.330    22154877.7104   22154878.1314  116424668.611 7  90720548.32644
      2007.558        1564.327
  21636274.479    21636274.1214   21636276.5154  113699390.178 8  88596942.79945
     -1215.862        -947.415
  22920632.955    22920632.4304   22920633.7594  120448742.572 6  93856177.15144
     -1858.125       -1447.883
  22751245.106    22751244.9034   22751246.1934  119558624.348 6  93162572.02442
      3798.610        2959.960
  22377744.310    22377743.9654   22377745.8234  117595849.511 7  91633148.23544
       140.136         109.213
  24392112.547    24392112.1214   24392114.5414  128181410.358 5  99881627.62742
     -3495.861       -2724.096
 08  5  2 14 50  0.0000000  0 13G 3G 6G 7G 8G10G15G16G21G24G25G26G27
                                G29
  23219148.493    23219148.0474   23219149.8034  122017461.292 5  95078551.93142
      2840.554        2213.426
  22282940.573    22282940.4494   22282942.2944  117097650.093 7  91244945.93244
       799.782         623.229
  21999358.151    21999358.1254   21999358.9904  115607402.564 7  90083717.77945
      -337.301        -262.817
  22747977.081    22747976.4974   22747977.9794  119541483.609 7  93149194.90344
      2676.630        2085.676
  21581189.677    21581188.9944   21581191.0124  113409919.942 7  88371379.04945
     -1955.525       -1523.782
  24032010.744    24032010.6874   24032012.2094  126289098.329 6  98407084.86342
      3724.905        2902.535
  23216127.288    23216126.2024   23216126.4184  122001578.417 6  95066171.72343
     -2434.324       -1896.863
  22143462.342    22143462.0854   22143462.1734  116364678.713 7  90673802.95845
      1990.862        1551.324
  21643266.605    21643266.3254   21643268.6454  113736134.505 8  88625574.73545
     -1234.677        -962.089
  22931285.901    22931285.8384   22931286.5784  120504724.714 7  93899799.60644
     -1874.886       -1460.936
  22729589.878    22729591.3964   22729592.0664  119444832.285 6  93073902.91542
      3786.177        2950.292
  22376994.764    22376994.6644   22376996.3074  117591911.841 7  91630079.91845
       121.644          94.781
  24412088.721    24412090.5234   24412090.8014  128286385.347 5  99963426.25742
     -3503.020       -2729.612
 08  5  2 14 50 30.0000000  0 13G 3G 6G 7G 8G10G15G16G21G24G25G26G27
                                G29
  23202971.811    23202971.4874   23202973.9694  121932453.199 6  95012311.92042
      2825.587        2201.735
  22278429.167    22278429.1744   22278431.4174  117073942.981 7  91226472.89044
       780.129         607.888
  22001344.578    22001344.5284   22001345.0574  115617840.300 7  90091851.05945
      -359.074        -279.787
  22732740.120    22732739.7184   22732741.8974  119461416.284 7  93086804.80544
      2660.534        2073.127
  21592403.723    21592403.0514   21592404.9374  113468850.716 7  88417299.13645
     -1973.722       -1537.980
  24010766.922    24010766.5144   24010767.8484  126177453.463 6  98320088.90542
      3717.601        2896.825
  23230066.581    23230067.0684   23230067.1724  122074831.354 6  95123251.95543
     -2449.752       -1908.908
  22132142.763    22132142.2364   22132142.5964  116305193.306 7  90627450.71045
      1974.315        1538.442
  21650366.712    21650366.5054   21650368.7664  113773445.863 8  88654648.51945
     -1253.488        -976.755
  22942033.015    22942033.0974   22942034.9104  120561203.568 7  93943809.09944
     -1891.049       -1473.560
  22708010.571    22708010.2294   22708011.9374  119331428.679 6  92985536.50842
      3773.421        2940.317
  22376352.111    22376351.5974   22376353.2334  117588532.154 7  91627446.38345
       103.115          80.355
  24432106.606    24432105.5874   24432107.3934  128391580.021 5 100045396.12342
     -3510.118       -2735.188
 08  5  2 14 51  0.0000000  0 13G 3G 6G 7G 8G10G15G16G21G24G25G26G27
                                G29
  23186880.804    23186880.3344   23186882.0934  121847894.179 6  94946421.75542
      2810.352        2189.929
  22274029.674    22274029.4434   22274031.1424  117050821.298 7  91208456.00344
       760.139         592.319
  22003453.688    22003453.6074   22003454.2074  115628923.264 7  90100487.11445
      -381.041        -296.924
  22717595.043    22717594.8234   22717597.1494  119381829.057 7  93024788.80544
      2643.990        2060.250
  21603719.864    21603719.2134   21603721.2104  113528317.963 7  88463637.23845
     -1992.000       -1552.214
  23989561.046    23989562.2814   23989563.0924  126066028.106 5  98233263.95442
      3709.799        2890.741
  23244091.614    23244090.9154   23244092.5844  122148536.486 6  95180684.49742
     -2464.987       -1920.764
  22120917.012    22120916.3534   22120916.7654  116246201.319 7  90581482.92944
      1957.352        1525.198
  21657571.861    21657571.7674   21657574.0384  113811309.546 7  88684152.68645
     -1272.181        -991.316
  22952872.139    22952872.5344   22952873.3984  120618163.988 6  93988193.82044
     -1907.689       -1486.488
  22686502.387    22686503.1294   22686503.9654  119218403.357 6  92897464.85442
      3760.237        2930.052
  22375812.545    22375811.9204   22375813.8084  117585697.123 7  91625237.25744
        84.698          65.977
  24452164.449    24452164.3394   24452163.9694  128496978.183 5 100127524.56942
     -3517.521       -2740.954
 08  5  2 14 51 30.0000000  0 13G 3G 6G 7G 8G10G15G16G21G24G25G26G27
                                G29
  23170877.579    23170877.7764   23170880.1254  121763797.714 6  94880892.04842
      2795.237        2178.107
  22269743.000    22269743.0564   22269744.9424  117028296.466 7  91190904.17744
       740.730         577.188
  22005687.004    22005687.4124   22005688.1214  115640661.654 7  90109633.89945
      -402.264        -313.440
  22702544.639    22702543.7874   22702545.9204  119302735.170 7  92963157.21044
      2628.159        2047.917
  21615139.759    21615138.9604   21615141.3014  113588330.385 8  88510400.15545
     -2009.519       -1565.870
  23968403.451    23968402.4214   23968404.2264  125954834.961 6  98146619.96242
      3702.500        2885.064
  23258205.692    23258205.2904   23258206.1794  122222701.991 6  95238475.79742
     -2479.857       -1932.328
  22109787.089    22109786.6594   22109787.2344  116187715.420 7  90535909.51344
      1940.955        1512.440
  21664884.115    21664883.8594   21664886.2004  113849734.858 8  88714094.48645
     -1290.304       -1005.427
  22963804.971    22963805.0684   22963806.4284  120675614.572 7  94032960.50944
     -1923.285       -1498.665
  22665069.455    22665069.5204   22665070.4734  119105770.136 6  92809698.74442
      3747.791        2920.348
  22375378.634    22375378.3474   22375379.9264  117583417.282 7  91623460.74645
        66.699          51.965
  24472261.042    24472260.3184   24472261.2474  128602588.020 5 100209817.96642
     -3523.890       -2745.882
 08  5  2 14 52  0.0000000  0 13G 3G 6G 7G 8G10G15G16G21G24G25G26G27
                                G29
  23154963.569    23154962.8844   23154966.4194  121680170.801 6  94815728.29442
      2779.724        2166.027
  22265571.479    22265571.3774   22265572.9324  117006373.663 7  91173821.48544
       720.594         561.534
  22008046.160    22008046.5724   22008047.1024  115653058.991 7  90119294.15045
      -424.436        -330.709
  22687588.239    22687587.9294   22687590.0294  119224141.503 6  92901915.40644
      2611.251        2034.746
  21626664.347    21626663.2854   21626665.3504  113648890.079 7  88557589.51145
     -2027.877       -1580.150
  23947287.727    23947289.7844   23947289.5114  125843881.065 6  98060162.38542
      3694.500        2878.872
  23272406.060    23272405.4454   23272407.9644  122297329.827 6  95296627.35542
     -2495.612       -1944.597
  22098754.793    22098754.6234   22098755.0494  116129741.511 7  90490735.05945
      1923.794        1499.064
  21672303.724    21672303.3894   21672305.5794  113888724.741 8  88744476.21345
     -1309.180       -1020.142
  22974831.146    22974831.2414   22974832.7594  120733557.905 7  94078111.13844
     -1939.892       -1511.578
  22643712.048    22643711.6964   22643713.4624  118993536.683 6  92722244.12442
      3734.063        2909.666
  22375050.972    22375050.8224   22375052.6854  117581696.971 7  91622120.24445
        47.875          37.313
  24492398.017    24492398.6544   24492400.2604  128708410.945 5 100292277.29741
     -3531.212       -2751.565
 08  5  2 14 52 30.0000000  0 13G 3G 6G 7G 8G10G15G16G21G24G25G26G27
                                G29
  23139136.036    23139136.6024   23139137.5974  121596991.907 6  94750913.58642
      2764.067        2153.843
  22261509.594    22261509.8344   22261511.0424  116985029.663 7  91157189.80344
       700.830         546.092
  22010526.296    22010526.3534   22010527.0814  115666090.723 7  90129448.73545
      -445.986        -347.505
  22672723.432    22672722.9944   22672725.1594  119146026.501 6  92841046.58644
      2594.696        2021.855
  21638287.135    21638286.6884   21638288.8224  113709970.925 7  88605184.95345
     -2045.762       -1594.101
  23926215.975    23926217.4174   23926218.2834  125733144.989 6  97973874.59242
      3686.597        2872.718
  23286690.828    23286690.9994   23286691.2504  122372393.517 6  95355118.51142
     -2510.374       -1956.131
  22087816.308    22087815.8474   22087816.3934  116072257.692 7  90445942.49245
      1906.889        1485.888
  21679825.965    21679825.5274   21679827.7844  113928254.141 8  88775278.33445
     -1327.638       -1034.525
  22985946.698    22985946.6414   22985947.3024  120791968.052 6  94123625.54043
     -1955.687       -1523.915
  22622426.433    22622426.5054   22622427.9174  118881682.153 6  92635084.79942
      3720.950        2899.447
  22374825.638    22374825.2484   22374827.1604  117580512.084 7  91621196.94345
        29.543          23.044
  24512571.399    24512572.2414   24512572.5054  128814420.465 5 100374882.09142
     -3537.893       -2756.764
 08  5  2 14 53  0.0000000  0 13G 3G 6G 7G 8G10G15G16G21G24G25G26G27
                                G29
  23123397.969    23123398.2404   23123400.4904  121514291.160 6  94686471.42642
      2748.518        2141.720
  22257563.892    22257563.3154   22257565.0844  116964292.613 7  91141031.04744
       680.852         530.516
  22013131.735    22013132.1764   22013132.3864  115679783.859 7  90140118.70445
      -467.600        -364.372
  22657955.640    22657954.9934   22657957.2054  119068420.277 7  92780574.21144
      2578.218        2009.008
  21650014.575    21650014.0954   21650016.3444  113771598.750 7  88653206.61145
     -2063.500       -1607.909
  23905189.490    23905191.9494   23905193.2754  125622657.022 5  97887780.11042
      3678.902        2866.671
  23301062.566    23301061.3944   23301062.9964  122447918.239 6  95413968.91642
     -2525.342       -1967.782
  22076976.453    22076975.9244   22076976.5134  116015292.696 7  90401554.18645
      1889.998        1472.726
  21687455.752    21687455.3044   21687457.7114  113968349.260 7  88806521.28645
     -1345.896       -1048.746
  22997155.744    22997155.3264   22997156.3634  120850870.660 7  94169523.65544
     -1971.842       -1536.496
  22601219.169    22601219.5854   22601220.7504  118770237.234 6  92548244.61542
      3708.115        2889.448
  22374707.235    22374707.0424   22374708.8004  117579890.492 7  91620712.58245
        11.435           8.924
  24532784.650    24532784.1364   24532786.1134  128920641.542 5 100457651.73641
     -3543.946       -2761.523
 08  5  2 14 53 30.0000000  0 13G 3G 6G 7G 8G10G15G16G21G24G25G26G27
                                G29
  23107748.377    23107746.8714   23107749.8504  121432046.844 6  94622384.94242
      2732.539        2129.254
  22253728.336    22253728.5394   22253730.2984  116944138.541 7  91125326.56944
       660.761         514.887
  22015858.685    22015858.9824   22015859.4634  115694113.365 7  90151284.54845
      -489.583        -381.509
  22643279.886    22643279.4384   22643281.8814  118991300.804 6  92720481.10144
      2561.208        1995.746
  21661840.921    21661840.4464   21661842.5474  113833746.689 7  88701633.56445
     -2081.570       -1622.021
  23884210.409    23884210.3854   23884209.0214  125512395.010 6  97801861.73142
      3670.424        2860.075
  23315516.543    23315516.0164   23315517.2904  122523876.833 6  95473157.43342
     -2540.512       -1979.654
  22066230.570    22066230.4704   22066230.8084  115958824.410 7  90357552.94245
      1872.658        1459.207
  21695188.215    21695187.8964   21695190.1594  114008983.936 8  88838184.67445
     -1364.822       -1063.509
  23008452.884    23008452.8714   23008453.8554  120910239.280 7  94215784.91244
     -1988.011       -1549.132
  22580085.826    22580086.5394   22580087.7784  118659180.670 6  92461707.03042
      3694.047        2878.488
  22374691.408    22374691.2794   22374693.0204  117579807.325 7  91620647.77244
        -7.566          -5.930
  24553032.912    24553033.6454   24553036.0374  129027047.072 5 100540565.05041
     -3551.245       -2767.216
 08  5  2 14 54  0.0000000  0 13G 3G 6G 7G 8G10G15G16G21G24G25G26G27
                                G29
  23092188.118    23092187.5444   23092191.2244  121350281.387 6  94558671.65042
      2717.030        2117.154
  22250007.742    22250007.9454   22250009.8234  116924588.353 7  91110092.66744
       641.269         499.674
  22018709.988    22018710.2874   22018710.7214  115709098.525 7  90162961.28445
      -510.639        -397.910
  22628701.647    22628701.2944   22628703.0804  118914690.346 7  92660784.61944
      2544.836        1983.004
  21673769.832    21673769.1464   21673771.3994  113896432.974 7  88750479.98745
     -2098.638       -1635.308
  23863274.198    23863274.0974   23863276.4414  125402381.673 6  97716137.06742
      3662.694        2854.021
  23330057.053    23330057.1954   23330057.2194  122600286.745 6  95532697.63442
     -2554.575       -1990.610
  22055583.754    22055583.2824   22055583.8644  115902874.307 7  90313955.47545
      1856.033        1446.253
  21703026.989    21703026.5074   21703029.0294  114050176.903 8  88870283.08845
     -1382.646       -1077.397
  23019842.444    23019842.5134   23019843.3674  120970091.808 6  94262423.23243
     -2003.431       -1561.127
  22559031.166    22559031.5084   22559032.5004  118548535.373 6  92375489.93643
      3680.857        2868.235
  22374781.888    22374781.6404   22374783.1144  117580282.326 7  91621017.88645
       -25.382         -19.791
  24573319.496    24573319.2664   24573319.4704  129133654.421 5 100623635.64941
     -3557.492       -2772.115
 08  5  2 14 54 30.0000000  0 13G 3G 6G 7G 8G10G15G16G21G24G25G26G27
                                G29
  23076718.884    23076718.7174   23076721.2154  121268990.686 6  94495328.24843
      2701.384        2104.960
  22246401.474    22246401.0374   22246403.0504  116905635.425 7  91095324.15944
       621.724         484.459
  22021684.859    22021685.2324   22021686.0304  115724731.845 7  90175143.08245
      -532.232        -414.740
  22614219.049    22614218.8894   22614221.2394  118838584.642 7  92601481.45044
      2528.249        1970.052
  21685799.747    21685798.7084   21685800.8314  113959648.258 7  88799738.62445
     -2116.206       -1649.004
  23842384.121    23842386.8954   23842387.2454  125292612.192 5  97630602.42842
      3654.567        2847.724
  23344682.465    23344681.2774   23344682.6274  122677138.598 6  95592582.19942
     -2569.318       -2002.086
  22045034.468    22045034.1134   22045034.4434  115847437.542 7  90270758.01545
      1838.958        1432.950
  21710970.336    21710969.9784   21710972.4464  114091919.952 7  88902810.13645
     -1400.921       -1091.620
  23031322.219    23031322.4824   23031323.7634  121030419.612 7  94309431.89543
     -2019.154       -1573.371
  22538053.192    22538053.7564   22538055.0714  118438297.935 6  92289590.65643
      3667.375        2857.685
  22374977.547    22374976.9574   22374978.8444  117581308.872 7  91621817.78445
       -43.628         -33.986
  24593642.963    24593642.4624   24593644.5644  129240453.950 5 100706856.03341
     -3563.427       -2776.677
 08  5  2 14 55  0.0000000  0 13G 3G 6G 7G 8G10G15G16G21G24G25G26G27
                                G29
  23061339.459    23061339.3924   23061340.7474  121188172.399 6  94432352.95342
      2685.899        2092.892
  22242907.989    22242907.6014   22242909.2404  116887275.984 7  91081018.12444
       602.170         469.237
  22024782.462    22024782.5024   22024783.4824  115741007.712 7  90187825.55145
      -553.320        -431.152
  22599832.577    22599832.0704   22599834.0714  118762981.356 7  92542569.80044
      2511.551        1957.049
  21697928.078    21697927.6214   21697929.8034  114023386.038 7  88849404.40845
     -2133.442       -1662.418
  23821544.419    23821543.9934   23821545.1464  125183084.587 6  97545256.25342
      3646.982        2841.809
  23359389.084    23359388.4974   23359390.1474  122754425.038 5  95652805.37842
     -2583.566       -2013.122
  22034582.369    22034581.8784   22034582.1434  115792510.672 8  90227957.85845
      1822.354        1420.026
  21719017.225    21719017.0634   21719019.5044  114134207.048 7  88935761.11145
     -1418.822       -1105.584
  23042891.474    23042891.2124   23042892.8764  121091215.871 7  94356805.59543
     -2034.591       -1585.396
  22517153.512    22517153.4744   22517154.7114  118328466.698 6  92204007.86643
      3654.147        2847.390
  22375276.614    22375276.3814   22375277.9754  117582882.041 7  91623043.62545
       -61.516         -47.935
  24614001.230    24614001.6314   24614002.8444  129347438.142 5 100790220.28341
     -3569.121       -2781.100
 08  5  2 14 55 30.0000000  0 13G 3G 6G 7G 8G10G15G16G21G24G25G26G27
                                G29
  23046052.624    23046052.9444   23046054.6844  121107835.808 6  94369753.04342
      2669.219        2079.943
  22239528.869    22239528.0774   22239529.8664  116869517.416 7  91067180.29544
       581.349         452.999
  22028002.947    22028003.2264   22028004.0504  115757932.764 7  90201013.89345
      -575.493        -448.413
  22585542.971    22585542.3964   22585544.6004  118687890.073 7  92484057.11644
      2493.883        1943.316
  21710157.609    21710156.8514   21710158.9234  114087651.021 7  88899481.00845
     -2151.497       -1676.494
  23800746.498    23800748.9564   23800751.0154  125073808.573 5  97460106.17042
      3637.448        2834.366
  23374179.236    23374179.2614   23374180.1654  122832150.740 6  95713370.89842
     -2598.716       -2024.998
  22024228.829    22024228.4064   22024228.6094  115738102.429 8  90185561.83645
      1804.366        1406.001
  21727168.837    21727168.5304   21727171.1784  114177043.929 8  88969140.49645
     -1437.525       -1120.151
  23054550.529    23054550.5384   23054551.4424  121152485.573 7  94404548.21043
     -2050.799       -1598.021
  22496332.706    22496332.3974   22496333.9294  118219051.872 6  92118749.59843
      3639.826        2836.256
  22375681.380    22375681.0374   22375682.7744  117585008.457 7  91624700.56045
       -80.643         -62.832
  24634395.539    24634396.4754   24634397.1984  129454611.946 5 100873732.27941
     -3576.585       -2786.933
 08  5  2 14 56  0.0000000  0 13G 3G 6G 7G 8G10G15G16G21G24G25G26G27
                                G29
  23030855.722    23030855.2884   23030857.6884  121027977.349 6  94307525.68443
      2653.798        2067.915
  22236261.945    22236262.3304   22236264.0934  116852353.777 7  91053806.04444
       561.906         437.859
  22031345.819    22031346.0804   22031347.0504  115775499.504 7  90214702.25245
      -596.476        -464.773
  22571350.294    22571350.2164   22571351.7534  118613306.743 7  92425940.24044
      2477.405        1930.459
  21722485.456    21722484.7334   21722487.1804  114152434.291 7  88949961.46645
     -2168.249       -1689.551
  23780001.743    23780001.4724   23780002.6034  124964780.164 6  97375149.02942
      3629.832        2828.492
  23389052.355    23389051.6364   23389053.7494  122910306.734 6  95774271.68442
     -2612.600       -2035.783
  22013972.846    22013972.7514   22013972.8684  115684208.621 7  90143566.67745
      1787.678        1392.988
  21735423.403    21735423.2534   21735425.7464  114220422.281 8  89002941.80645
     -1455.119       -1133.852
  23066298.995    23066298.3914   23066300.3644  121214220.274 7  94452653.16444
     -2065.699       -1609.656
  22475589.596    22475589.6374   22475590.8894  118110050.131 6  92033813.18643
      3626.065        2825.497
  22376189.975    22376189.6474   22376191.4034  117587681.445 7  91626783.39645
       -98.441         -76.696
  24654823.364    24654823.7624   24654825.3024  129561965.600 5 100957384.40241
     -3581.951       -2791.102
 08  5  2 14 56 30.0000000  0 13G 3G 6G 7G 8G10G15G16G21G24G25G26G27
                                G29
  23015752.373    23015752.3874   23015753.3144  120948605.306 6  94245677.36643
      2637.602        2055.306
  22233110.326    22233110.0894   22233112.3214  116835791.232 7  91040900.16944
       542.262         422.538
  22034811.687    22034812.2414   22034812.8724  115793713.150 7  90228894.69445
      -617.702        -481.316
  22557255.895    22557255.6444   22557257.0404  118539239.091 7  92368225.18144
      2460.652        1917.393
  21734912.492    21734911.7224   21734913.9104  114217739.305 7  89000848.47345
     -2185.451       -1702.939
  23759301.988    23759303.1094   23759303.7614  124856007.347 6  97290391.05542
      3621.162        2821.605
  23404006.895    23404005.9854   23404006.8164  122988895.874 6  95835509.96242
     -2626.750       -2046.811
  22003816.793    22003816.2814   22003816.8034  115630836.617 7  90101978.11445
      1770.484        1379.605
  21743781.770    21743781.5364   21743784.3424  114264346.489 7  89037168.46245
     -1473.108       -1147.876
  23078135.148    23078135.3764   23078136.2774  121276423.428 6  94501123.14043
     -2081.137       -1621.661
  22454927.729    22454928.1884   22454929.3854  118001469.989 6  91949205.31543
      3612.507        2814.952
  22376803.768    22376803.2474   22376805.3174  117590906.542 7  91629296.46144
      -116.612         -90.867
  24675286.757    24675285.8804   24675290.6234  129669502.443 5 101041179.27741
     -3587.298       -2795.279
 08  5  2 14 57  0.0000000  0 13G 3G 6G 7G 8G10G15G16G21G24G25G26G27
                                G29
  23000740.538    23000740.0164   23000742.7054  120869724.793 6  94184212.03642
      2621.139        2042.435
  22230073.588    22230073.7084   22230075.7444  116819833.343 7  91028465.45644
       521.886         406.660
  22038401.287    22038401.3164   22038402.4074  115812575.550 7  90243592.66045
      -639.464        -498.283
  22543259.823    22543259.3344   22543262.0664  118465692.861 7  92310916.43544
      2442.868        1903.540
  21747439.395    21747438.4854   21747440.5594  114283567.578 7  89052143.20245
     -2202.879       -1716.533
  23738655.096    23738653.6774   23738654.8904  124747495.596 6  97205836.49142
      3612.921        2815.283
  23419044.697    23419044.3124   23419045.7884  123067918.785 6  95897086.23842
     -2640.898       -2057.823
  21993760.266    21993759.9164   21993760.5524  115577990.695 7  90060799.48345
      1752.898        1365.899
  21752244.677    21752244.3484   21752247.1104  114308818.295 8  89071821.81545
     -1491.369       -1162.109
  23090061.814    23090061.7634   23090063.5334  121339096.360 6  94549959.16143
     -2096.836       -1633.902
  22434347.277    22434347.0874   22434349.6624  117893317.986 6  91864931.05543
      3598.062        2803.708
  22377522.697    22377522.7524   22377524.7164  117594686.463 7  91632241.85244
      -135.118        -105.293
  24695786.928    24695787.7704   24695788.5814  129777222.814 5 101125117.14041
     -3593.888       -2800.407
 08  5  2 14 57 30.0000000  0 13G 3G 6G 7G 8G10G15G16G21G24G25G26G27
                                G29
  22985825.184    22985824.7264   22985825.7744  120791337.506 6  94123131.02542
      2604.224        2029.272
  22227152.337    22227151.7044   22227153.5954  116804479.450 7  91016501.38744
       501.294         390.625
  22042113.876    22042114.0804   22042114.8954  115832084.912 7  90258794.75945
      -661.479        -515.447
  22529363.959    22529363.5664   22529366.1334  118392669.462 7  92254015.10544
      2424.884        1889.539
  21760064.898    21760064.0124   21760066.4194  114349915.368 7  89103842.76045
     -2220.657       -1730.360
  23718054.615    23718054.2924   23718055.4364  124639246.310 6  97121486.42842
      3603.492        2807.955
  23434164.263    23434163.4834   23434164.5294  123147371.771 6  95958997.64142
     -2656.004       -2069.605
  21983804.652    21983804.0604   21983804.5194  115525671.765 7  90020031.50245
      1734.787        1351.793
  21760810.461    21760810.6894   21760813.2804  114353834.800 8  89106899.61045
     -1510.082       -1176.694
  23102076.505    23102076.9284   23102077.8604  121402235.702 6  94599158.64043
     -2112.865       -1646.371
  22413848.463    22413848.0954   22413850.0514  117785595.849 6  91780991.71243
      3583.023        2791.979
  22378347.581    22378347.2954   22378348.9334  117599020.082 7  91635618.69245
      -154.091        -120.050
  24716319.158    24716319.1334   24716321.2124  129885122.786 5 101209194.94141
     -3599.899       -2805.111
 08  5  2 14 58  0.0000000  0 13G 3G 6G 7G 8G10G15G16G21G24G25G26G27
                                G29
  22971003.278    22971002.4734   22971004.6574  120713449.159 6  94062438.82343
      2587.979        2016.580
  22224345.778    22224345.8764   22224347.4314  116789733.123 7  91005010.74944
       481.472         375.177
  22045949.687    22045950.1714   22045951.1774  115852243.488 7  90274502.73645
      -682.839        -532.095
  22515569.344    22515568.8614   22515570.4954  118320173.965 7  92197525.14444
      2407.540        1875.972
  21772789.438    21772788.8994   21772790.8554  114416783.590 7  89155947.85545
     -2237.507       -1743.512
  23697506.788    23697506.3654   23697507.4744  124531265.386 6  97037345.48642
      3595.069        2801.382
  23449365.176    23449364.6264   23449365.3824  123227255.312 6  96021244.55841
     -2669.958       -2080.475
  21973949.670    21973948.8104   21973949.5854  115473884.423 7  89979677.75345
      1717.311        1338.159
  21769481.333    21769480.9774   21769483.5794  114399397.669 7  89142403.14845
     -1527.859       -1190.553
  23114180.254    23114180.0894   23114181.7504  121465842.596 6  94648722.44143
     -2128.055       -1658.241
  22393433.550    22393432.6804   22393434.2544  117678310.108 6  91697392.46443
      3568.959        2780.965
  22379277.953    22379278.0424   22379279.7034  117603910.198 7  91639429.17045
      -172.343        -134.314
  24736885.437    24736886.0804   24736886.8334  129993203.170 5 101293413.35341
     -3605.849       -2809.708
 08  5  2 14 58 30.0000000  0 12G 3G 6G 7G 8G10G15G16G21G24G25G26G27
  22956275.540    22956275.5554   22956277.8074  120636060.842 6  94002136.28242
      2570.708        2003.140
  22221655.694    22221655.1834   22221656.6654  116775594.193 7  90993993.41044
       460.475         358.817
  22049908.987    22049909.3164   22049909.8794  115873049.646 7  90290715.32245
      -705.033        -549.376
  22501875.083    22501873.9514   22501875.4004  118248208.181 7  92141447.91644
      2389.268        1861.753
  21785612.993    21785611.9244   21785614.2914  114484169.813 7  89208456.57545
     -2255.632       -1757.636
  23677010.218    23677009.3854   23677009.9284  124423554.652 6  96953415.09542
      3584.986        2793.517
  23464648.026    23464647.9264   23464648.3504  123307566.070 6  96083824.35942
     -2684.859       -2092.098
  21964196.082    21964195.7164   21964196.1164  115422629.351 7  89939738.74745
      1698.986        1323.876
  21778255.049    21778254.8574   21778257.4074  114445504.854 7  89178330.82145
     -1546.653       -1205.195
  23126373.061    23126372.8004   23126374.2124  121529914.179 6  94698648.32343
     -2144.108       -1670.740
  22373100.394    22373100.1624   22373101.9384  117571462.954 6  91614134.94143
      3553.488        2768.926
  22380314.533    22380314.1364   22380316.3464  117609355.678 7  91643672.39245
      -191.392        -149.141
